     2              OBSERVATION DATA    GPS                 RINEX VERSION / TYPE
teqc 1999Jul19 20000201 02:02:14UTC                         PGM / RUN BY / DATE
                                                            COMMENT
L2: 1 -> 1; 5 -> 5; 60 -> 9                                 COMMENT
L2: 1 -> 1; 5 -> 5; 60 -> 9                                 COMMENT
L2: 1 -> 1; 5 -> 5; 60 -> 9                                 COMMENT
L2: 1 -> 1; 5 -> 5; 60 -> 9                                 COMMENT
L2: 1 -> 1; 5 -> 5; 60 -> 9                                 COMMENT
Original Marker Name: 0009                                  COMMENT
Campaign Name: Imperial Valley Leveling                     COMMENT
4-Character Station Name: 0009                              COMMENT
6-Character Antenna Code: TRMSST                            COMMENT
Vertical Measurement Point: BPA                             COMMENT
Vertical Offset to Rinex Ref. Point: 0.0000                 COMMENT
Radial Measurement Point: RRP                               COMMENT
Radial Offset to Rinex Ref. Point: 0.0000                   COMMENT
Antenna Height from Field Measurement: 2.2160 m             COMMENT
Additional Antenna Identification Info.:                    COMMENT
Model 14532.00                                              COMMENT
Original XYZ: -2275555.8078 -4866200.5511 3426862.5199      COMMENT
New XYZ position is based on association with SCEC monument COMMENT
E1C9N1F4+0011. Position of that monument is believed to be  COMMENT
valid to within 1 m horizontally; vertical accuracy         COMMENT
should be no worse than 3-times this value.                 COMMENT
                                                            COMMENT
Revised Rinex header created by UCSD GPS archive for        COMMENT
GSAC on 17-Jul-2000 (2000:199) 21:18:32 GMT                 COMMENT
For assistance contact dagnew@ucsd.edu                      COMMENT
or anderson@python.ucsd.edu                                 COMMENT
                                                            COMMENT
JUNCTION                                                    MARKER NAME
0009                                                        MARKER NUMBER
-Unknown- CALIF DEPT TRANSPORTATION                         OBSERVER / AGENCY
7377 TRIMBLE 4000 SSE NP 6.11; SP 2.12                      REC # / TYPE / VERS
S/N UNKNOWN TR 4000SST L1/L2 GEO                            ANT # / TYPE
 -2275558.6664 -4866208.0235  3426870.1324                  APPROX POSITION XYZ
        2.2160        0.0000        0.0000                  ANTENNA: DELTA H/E/N
     1     1     0                                          WAVELENGTH FACT L1/2
     7    C1    L1    L2    P1    P2    S1    S2            # / TYPES OF OBSERV
     0                                                      INTERVAL
  1995     4    19    15    28   15.000000                  TIME OF FIRST OBS
  1995     4    19    22    29   60.000000                  TIME OF LAST OBS
                                                            END OF HEADER
 95  4 19 15 28 15.0000000  0  8G14G18G19G22G27G28G29G31
  23924938.313       59939.41015
         8.500
  20497063.6024      -4055.14358
        29.7504
  21560686.5554      -8631.79057
        23.0004
  24018169.2974      56761.96356
        12.5004
  24143158.5474     -24489.25955
         8.7504
                     -3842.56515     -2994.96115  23455285.555    23455288.234
        11.000          10.750
  20781803.6954      18971.49457
        26.7504
  23327189.4454     -28924.22256
        12.2504
 95  4 19 15 28 30.0000000  0  8G14G18G19G22G27G28G29G31
  23937091.3284     123802.43745
         9.2504
  20496182.8914      -8683.40448
        29.2504
  21558861.5554     -18221.51647
        23.0004
  24029681.0634     117254.29946
        12.2504
  24138095.0394     -51103.17145
         9.2504
                     -8227.177 5     -6411.491 5  23454450.992    23454453.668
        11.000          10.750
  20785620.9614      39030.78847
        26.7504
  23321227.1024     -60254.38746
        12.5004
 95  4 19 15 28 45.0000000  0  8G14G18G19G22G27G28G29G31
  23949174.3834     187298.78745
         9.5004
  20495250.7424     -13581.31848     -1294.54158                  20495252.8524
        29.2504         48.5004
  21556974.3594     -28138.11647     -3120.45757                  21556977.5124
        23.0004         32.0004
  24041128.5394     177413.52646        -3.62655                  24041132.5004
        12.5004          8.5004
  24132962.2344     -78072.48445
         9.0004
                    -12863.338 5    -10024.031 5  23453568.813    23453571.516
        11.000          11.000
  20789388.7664      58831.50347      8203.72258                  20789390.6644
        26.7504         42.5004
  23315203.2814     -91905.34045     -9892.94255                  23315206.5864
        11.7504          9.2504
 95  4 19 15 29  0.0000000  0  8G14G18G19G22G27G28G29G31
  23961192.8444     250455.04145     39345.40955                  23961198.3284
         9.5004          5.2504
  20494271.1804     -18729.80348     -5306.34348                  20494273.2894
        29.7504         48.5004
  21555029.4614     -38359.86547    -11085.43447                  21555032.7774
        23.0004         32.0004
  24052516.5704     237257.90246     46628.34445                  24052520.7544
        12.2504          8.5004
  24127766.2344    -105373.24645    -17037.87455                  24127771.7774
         8.2504          4.5004
                    -17728.706 5    -13815.176 5  23452642.969    23452645.773
        11.000          11.000
  20793111.6094      78395.24947     23448.21148                  20793113.4384
        27.0004         42.0004
  23309124.2504    -123855.44546    -34789.07145                  23309128.3054
        12.5004          8.5004
 95  4 19 15 29 15.0000000  0  8G14G18G19G22G27G28G29G31
  23973150.2424     313292.40445     88309.58045                  23973155.1524
         9.7504          4.5004
  20493246.6334     -24112.11848     -9500.33048                  20493248.6484
        29.7504         47.7504
  21553029.9534     -48867.43747    -19273.12747                  21553033.0234
        23.5004         32.0004
  24063848.4534     296807.26946     93030.44445                  24063852.9774
        12.2504          8.5004
  24122512.7664    -132984.66145    -38553.19345                  24122518.6954
         8.5004          5.2504
                    -22803.645 5    -17769.628 5  23451677.313    23451679.957
        11.000          11.000
  20796793.3594      97741.26747     38523.04548                  20796795.1644
        27.2504         43.2504
  23302992.0784    -156081.13046    -59899.95245                  23302996.2974
        13.0004          7.7504
 95  4 19 15 29 30.0000000  0  8G14G18G19G22G27G28G29G31
  23985050.2344     375829.57845    137039.84545                  23985054.6054
         9.2504          5.2504
  20492181.3444     -29709.60148    -13861.98048                  20492183.4184
        29.5004         47.7504
  21550978.9454     -59644.67647    -27670.95147                  21550981.9574
        23.2504         32.7504
  24075127.9064     356078.39046    139215.71345                  24075131.7154
        12.2504          9.2504
  24117203.0784    -160887.90345    -60295.94445                  24117208.0124
         8.7504          6.0004
                    -28070.443 5    -21873.578 5  23450674.781    23450677.664
        11.000          11.000
  20800436.1954     116885.52147     53440.65448                  20800437.9884
        27.2504         43.2504
  23296810.2974    -188565.32346    -85212.27945                  23296814.5394
        12.7504          8.5004
 95  4 19 15 29 45.0000000  0  8G14G18G19G22G27G28G29G31
  23996896.9144     438081.63745    185547.90345                  23996902.6334
         9.0004          5.2504
  20491078.2274     -35507.09748    -18379.49148                  20491080.2074
        29.5004         45.7504
  21548879.2734     -70678.18047    -36268.45347                  21548882.4494
        23.0004         31.5004
  24086355.2814     415080.90146    185191.68245                  24086359.3484
        12.0004          8.5004
  24111839.1174    -189072.99045    -82258.28345                  24111844.2624
         8.5004          4.5004
                    -33516.807 5    -26117.454 5  23449638.383    23449641.211
        10.750          10.750
  20804042.7114     135837.80547     68208.67848                  20804044.6214
        27.2504         43.2504
  23290581.7424    -221295.50846   -110716.28045                  23290586.1134
        12.7504          9.2504
 95  4 19 15 30  0.0000000  0  8G14G18G19G22G27G28G29G31
  24008691.7274     500062.35745    233844.55345                  24008697.2464
         9.5004          4.5004
  20489939.6954     -41490.54248    -23041.89648                  20489941.6994
        29.7504         46.5004
  21546732.9614     -81958.36847    -45058.18547                  21546736.2194
        23.0004         31.5004
  24097534.2584     473825.87945    230966.96545                  24097538.5594
        11.7504          8.5004
  24106423.9614    -217528.69845   -104431.53045                  24106428.3094
         8.5004          4.5004
                    -39131.173 5    -30492.250 5  23448570.133    23448572.922
        10.750          11.000
  20807614.2584     154606.65947     82833.77048                  20807616.0274
        27.0004         42.5004
  23284309.2584    -254258.84346   -136401.95545                  23284313.2424
        12.7504          9.2504
 95  4 19 15 30 15.0000000  0  8G14G18G19G22G27G28G29G31
  24020437.6804     561789.17045    281943.33145                  24020443.4574
         9.2504          4.5004
  20488769.0004     -47642.31748    -27835.47048                  20488771.0864
        29.7504         46.5004
  21544542.1724     -93470.63347    -54028.75847                  21544545.3954
        23.0004         32.7504
  24108666.6644     532328.54545    276553.43545                  24108670.6484
        11.5004          8.5004
  24100960.8364    -246237.55845   -126802.03845                  24100966.1564
         8.5004          4.5004
                    -44897.598 5    -34985.531 5  23447472.750    23447475.520
        10.750          11.000
  20811154.0864     173208.67847     97328.85648                  20811155.9614
        27.0004         42.5004
  23277995.2974    -287439.19746   -162256.75245                  23277999.6914
        13.0004          9.2504
 95  4 19 15 30 30.0000000  0  8G14G18G19G22G27G28G29G31
  24032138.7584     623277.01345    329855.90645                  24032143.4924
         9.2504          5.2504
  20487568.7194     -53950.12748    -32750.62948                  20487570.8524
        29.2504         47.2504
  21542309.7584    -105200.93347    -63169.23347                  21542312.8754
        22.7504         32.0004
  24119755.4064     590601.21045    321960.70045                  24119759.7194
        11.2504          8.5004
  24095452.7114    -275186.51845   -149359.61845                  24095458.1954
         9.0004          6.0004
                    -50801.878 5    -39586.232 5  23446349.227    23446352.020
        10.750          11.000
  20814664.6954     191656.52347    111703.81048                  20814666.5474
        27.0004         42.0004
  23271642.5784    -320822.95046   -188270.03245                  23271646.9024
        13.0004          7.7504
 95  4 19 15 30 45.0000000  0  8G14G18G19G22G27G28G29G31
  24043795.1024     684531.14645    377586.39345                  24043800.2114
         9.7504          5.2504
  20486339.7894     -60408.93948    -37783.45348                  20486341.7344
        29.2504         47.2504
  21540037.8054    -117141.98847    -72473.92847                  21540040.8404
        23.0004         32.0004
  24130801.5004     648647.50845    367191.54845                  24130805.9654
        11.2504          7.2504
  24089898.9384    -304370.68245   -172100.48044                  24089903.5084
         8.5004          4.0004
                    -56838.571 5    -44290.113 5  23445200.531    23445203.262
        10.750          11.000
  20818146.6254     209955.43447    125962.70748                  20818148.4304
        26.7504         41.2504
  23265251.4844    -354406.48146   -214438.98045                  23265255.5394
        13.0004          9.2504
 95  4 19 15 31  0.0000000  0  8G14G18G19G22G27G28G29G31
  24055408.9384     745563.55445    425144.07645                  24055414.9264
         9.2504          4.5004
  20485083.6414     -67009.29348    -42926.57148                  20485085.6334
        29.2504         46.5004
  21537727.0004    -129283.52247    -81934.84347                  21537730.0824
        22.5004         32.0004
  24141807.0394     706479.40245    412255.33245                  24141811.4924
        11.0004          7.7504
  24084303.0234    -333778.30145   -195015.46645                  24084308.0394
         9.0004          5.2504
                    -62996.179 5    -49088.218 5  23444028.711    23444031.566
        10.750          11.000
  20821601.8364     228110.89947    140109.83648                  20821603.5944
        27.0004         42.5004
  23258825.5314    -388178.24046   -240754.60445                  23258829.3054
        12.7504          9.2504
 95  4 19 15 31 15.0000000  0  8G14G18G19G22G27G28G29G31
  24066982.7734     806387.65145    472539.45545                  24066988.1764
         9.0004          4.5004
  20483804.5944     -73731.25448    -48164.45148                  20483806.4454
        29.5004         45.2504
  21535381.6884    -141608.88247    -91538.99447                  21535384.7344
        22.7504         32.0004
  24152774.4694     764116.58745    457167.40945                  24152778.8404
        11.0004          7.2504
  24078667.0474    -363393.56845   -218092.25945                  24078672.4384
         8.7504          6.5004
                    -69258.440 5    -53967.872 5  23442837.055    23442839.801
        10.750          11.000
  20825032.2034     246137.76447    154156.74948                  20825033.9844
        27.0004         42.5004
  23252366.0784    -422119.73046   -267202.48745                  23252370.2624
        12.5004          9.2504
 95  4 19 15 31 30.0000000  0  8G14G18G19G22G27G28G29G31
  24078519.1094     867011.47845    519778.76745                  24078525.4614
         8.5004          4.5004
  20482504.9844     -80560.77048    -53486.13648                  20482506.8484
        29.5004         45.2504
  21533002.8524    -154109.45947   -101279.67947                  21533006.0514
        22.7504         31.5004
  24163707.5554     821567.09945    501934.03145                  24163711.7384
        11.7504          6.5004
  24072993.4064    -393206.44145   -241323.01045                  24072998.9384
         8.5004          4.5004
                    -75615.699 5    -58921.550 5  23441627.359    23441629.938
        11.000          11.000
  20828439.9614     264045.70247    168110.99148                  20828441.8714
        27.0004         42.5004
  23245876.8984    -456221.96546   -293775.62045                  23245880.4844
        13.0004          9.2504
 95  4 19 15 31 45.0000000  0  8G14G18G19G22G27G28G29G31
  24090019.7894     927445.36145    566870.09245                  24090025.3914
         8.7504          4.5004
  20481186.9304     -87486.19048    -58882.55148                  20481188.8874
        29.2504         44.5004
  21530592.5394    -166775.26247   -111149.12147                  21530595.5984
        22.7504         30.7504
  24174605.1564     878836.53445    546559.54945                  24174609.2464
        11.0004          7.2504
  24067284.2344    -423209.39545   -264701.91345                  24067289.2034
         9.0004          6.0004
                    -82059.042 5    -63942.314 5  23440401.227    23440403.738
        10.750          11.000
  20831826.9384     281844.69347    181980.33848                  20831828.7774
        26.7504         42.5004
  23239358.7504    -490476.58646   -320467.50445                  23239361.9384
        13.2504          9.7504
 95  4 19 15 32  0.0000000  0  8G14G18G19G22G27G28G29G31
  24101484.8754     987696.11745    613818.69243                  24101490.4654
         8.5004          3.2504
  20479852.6804     -94497.97948    -64346.27148                  20479854.5084
        29.5004         45.2504
  21528153.0234    -179594.68847   -121138.25647                  21528156.0944
        22.7504         30.7504
  24185471.1724     935936.26245    591052.82145                  24185474.9224
        11.5004          6.0004
  24061540.3754    -453391.34345   -288220.27845                  24061546.4224
         8.5004          4.5004
                    -88577.162 5    -69021.337 5  23439160.836    23439163.457
        10.750          10.750
  20835196.0314     299548.43347    195775.46948                  20835197.8134
        27.0004         42.5004
  23232812.5944    -524872.28646   -347269.32445                  23232816.2274
        13.0004          9.2504
 95  4 19 15 32 15.0000000  0  8G14G18G19G22G27G28G29G31
  24112917.2894    1047772.15445    660631.16144                  24112922.0234
         9.0004          4.0004
  20478503.7974    -101587.52448    -69870.58048                  20478505.7074
        29.7504         45.2504
  21525686.4384    -192556.52447   -131238.36447                  21525689.5434
        22.7504         30.7504
  24196306.4224     992876.66645    635421.96545                  24196310.8874
        11.5004          6.5004
  24055766.6564    -483738.65245   -311867.48145                  24055772.2114
         9.0004          4.5004
                    -95159.072 5    -74150.072 5  23437908.297    23437910.645
        10.750          10.750
  20838549.2894     317169.60547    209506.26148                  20838551.1294
        27.0004         42.5004
  23226243.3914    -559397.73146   -374172.22245                  23226247.5394
        13.5004          9.7504
 95  4 19 15 32 30.0000000  0  8G14G18G19G22G27G28G29G31
  24124317.0474    1107678.84945    707311.68643                  24124322.7074
         8.5004          3.2504
  20477140.8914    -108749.38748    -75451.23948                  20477142.6484
        29.7504         45.7504
  21523194.1644    -205654.69047   -141444.71047                  21523197.2464
        23.0004         30.7504
  24207111.7894    1049660.86445    679669.36745                  24207115.4924
        11.5004          7.2504
  24049960.3674    -514247.75045   -335640.78445                  24049965.4654
         9.0004          5.2504
                   -101799.497 5    -79324.409 5  23436644.492    23436647.160
        10.750          10.750
  20841887.9304     334715.20047    223178.15848                  20841889.8524
        27.0004         42.5004
  23219649.2584    -594047.61846   -401172.10645                  23219653.2774
        13.5004          9.7504
 95  4 19 15 32 45.0000000  0  8G14G18G19G22G27G28G29G31
  24135684.7814    1167417.55145    753861.28345                  24135690.0554
         8.2504          4.5004
  20475765.1334    -115978.48748    -81084.29148                  20475766.9844
        29.5004         44.5004
  21520676.3054    -218885.28947   -151754.24947                  21520679.5394
        22.7504         30.7504
  24217888.8594    1106292.42745    723797.83945                  24217892.6564
        11.5004          7.2504
  24044125.0394    -544914.24145   -359536.71045                  24044130.0434
         9.5004          4.5004
                   -108493.947 5    -84540.835 5  23435370.750    23435373.363
        10.750          11.000
  20845213.5164     352191.68647    236796.20548                  20845215.4024
        27.0004         42.5004
  23213032.7424    -628817.68446   -428265.63645                  23213037.0204
        13.0004          9.2504
 95  4 19 15 33  0.0000000  0  8G14G18G19G22G27G28G29G31
  24147023.3524    1226998.57545    800288.02545                  24147028.1804
         8.0004          4.5004
  20474378.8204    -123262.26148    -86759.94748                  20474380.7074
        29.2504         44.5004
  21518135.5004    -232238.33447   -162159.19847                  21518138.7464
        23.0004         32.7504
  24228638.5004    1162782.66345    767816.19445                  24228642.6024
        11.7504          7.7504
  24038261.4774    -575726.47645   -383546.22345                  24038265.7664
         9.0004          4.5004
                   -115231.161 5    -89790.592 5  23434088.703    23434091.258
        11.000          11.000
  20848528.4144     369611.16447    250369.82948                  20848530.4184
        27.0004         42.5004
  23206395.9064    -663694.28646   -455442.17545                  23206399.5984
        13.0004          8.5004
 95  4 19 15 33 15.0000000  0  8G14G18G19G22G27G28G29G31
  24158332.2504    1286432.25245    846599.94243                  24158337.0084
         7.7504          3.2504
  20472984.9064    -130589.24148    -92469.27048                  20472986.8524
        29.7504         44.0004
  21515572.6254    -245706.14247   -172653.57547                  21515575.9654
        22.7504         32.0004
  24239363.7734    1219142.99645    811733.31645                  24239367.9454
        11.5004          6.5004
  24032371.7274    -606676.19245   -407662.83845                  24032376.2974
         9.2504          4.5004
                   -122001.313 5    -95066.011 5  23432800.344    23432802.645
        11.000          10.750
  20851834.5474     386984.47747    263907.47948                  20851836.4104
        27.2504         42.5004
  23199741.9144    -698664.86646   -482691.94445                  23199745.3244
        13.2504          9.2504
 95  4 19 15 33 30.0000000  0  8G14G18G19G22G27G28G29G31
  24169615.1174    1345720.16845    892798.30043                  24169621.2114
         8.0004          3.2504
  20471582.7894    -137957.60748    -98210.84148                  20471584.6294
        29.7504         44.0004
  21512988.4454    -259285.88547   -183235.16747                  21512991.5984
        23.0004         32.7504
  24250064.1334    1275373.88445    855549.56845                  24250068.3984
        11.2504          7.2504
  24026456.5084    -637763.06945   -431886.33945                  24026461.2894
         9.2504          5.2504
                   -128803.355 5   -100366.287 5  23431505.836    23431508.461
        10.750          10.750
  20855132.8284     404317.70347    277413.89448                  20855134.7034
        27.5004         43.2504
  23193069.4534    -733727.41246   -510013.37945                  23193073.0984
        13.5004          9.2504
 95  4 19 15 33 45.0000000  0  8G14G18G19G22G27G28G29G31
  24180871.1644    1404871.33645    938890.09943                  24180876.2384
         7.5004          3.2504
  20470173.3594    -145363.78348   -103981.87648                  20470175.1414
        29.2504         43.2504
  21510384.5784    -272969.61247   -193897.78947                  21510387.7774
        23.0004         32.7504
  24260741.1564    1331482.34145    899270.41445                  24260745.3754
        11.5004          6.5004
  24020515.7274    -668979.50145   -456210.80045                  24020520.8954
         9.2504          4.5004
                   -135629.566 5   -105685.396 5  23430206.984    23430209.508
        11.000          11.000
  20858425.1484     421617.91247    290894.57748                  20858426.9774
        27.7504         42.5004
  23186381.2814    -768873.90046   -537400.23645                  23186384.2464
        13.7504          9.7504
 95  4 19 15 34  0.0000000  0  8G14G18G19G22G27G28G29G31
  24192102.4694    1463891.43945    984879.73245                  24192107.2154
         7.7504          4.5004
  20468757.5634    -152803.40948   -109778.97748                  20468759.3554
        29.2504         43.2504
  21507762.3914    -286748.57947   -204634.62947                  21507765.5904
        23.0004         32.7504
  24271397.0004    1387479.32845    942904.41245                  24271401.2304
        11.2504          7.7504
  24014551.8834    -700316.80445   -480629.46145                  24014556.5704
         9.0004          5.2504
                   -142472.815 5   -111017.780 5  23428904.703    23428907.379
        11.000          11.000
  20861712.2664     438891.77847    304354.73448                  20861714.0824
        27.5004         43.2504
  23179678.6334    -804094.40546   -564844.74445                  23179682.5234
        13.2504          9.2504
 95  4 19 15 34 15.0000000  0  8G14G18G19G22G27G28G29G31
  24203308.8134    1522783.11145   1030769.33243                  24203313.4884
         8.2504          3.2504
  20467335.6804    -160275.63748   -115601.48548                  20467337.5204
        29.2504         42.5004
  21505122.3204    -300622.40247   -215445.38047                  21505125.5784
        23.0004         32.7504
  24282032.2344    1443367.25645    986453.42645                  24282036.5594
        11.2504          6.5004
  24008566.6564    -731770.58345   -505138.84945                  24008570.9694
         9.2504          5.2504
                   -149330.961 5   -116361.772 5  23427599.523    23427602.164
        11.000          11.000
  20864994.1254     456138.13747    317793.45548                  20864995.8484
        27.5004         44.5004
  23172962.8984    -839385.00646   -592343.88645                  23172966.7194
        13.0004          8.5004
 95  4 19 15 34 30.0000000  0  8G14G18G19G22G27G28G29G31
  24214492.0164    1581550.55545   1076562.11243                  24214497.6174
         8.0004          2.5004
  20465908.8524    -167773.75648   -121444.16348                  20465910.6914
        29.2504         43.2504
  21502465.3444    -314586.42547   -226326.42247                  21502468.4614
        23.2504         32.0004
  24292647.8284    1499151.96745   1029922.00645                  24292652.1764
        11.5004          6.5004
  24002559.9534    -763336.51245   -529735.64045                  24002564.8984
         9.5004          4.5004
                   -156199.119 5   -121713.569 5  23426292.734    23426295.191
        11.000          11.000
  20868271.1954     473359.06847    331212.36348                  20868272.9414
        27.5004         43.2504
  23166235.1884    -874739.12946   -619892.53245                  23166238.8204
        13.0004          8.5004
 95  4 19 15 34 45.0000000  0  8G14G18G19G22G27G28G29G31
  24225652.9694    1640201.40545   1122264.05043                  24225658.4064
         8.2504          3.2504
  20464478.7734    -175287.75848   -127299.22248                  20464480.6724
        29.0004         42.5004
  21499792.5864    -328631.35147   -237270.50147                  21499795.4344
        23.2504         32.7504
  24303245.6644    1554844.26445   1073318.59345                  24303249.7774
        11.0004          6.5004
  23996533.6414    -795008.57645   -554415.14145                  23996538.1054
         9.7504          6.0004
                   -163068.194 5   -127066.085 5  23424985.367    23424988.156
        11.000          11.000
  20871545.1414     490563.96047    344618.77648                  20871546.8984
        27.7504         42.5004
  23159497.0554    -910148.67946   -647484.35445                  23159501.1454
        13.0004          9.7504
 95  4 19 15 35  0.0000000  0  8G14G18G19G22G27G28G29G31
  24236792.4774    1698737.96945   1167876.93044                  24236796.6954
         8.2504          4.0004
  20463046.5784    -182814.84648   -133164.47748                  20463048.5704
        29.0004         41.2504
  21497105.1884    -342752.61647   -248274.06747                  21497108.1174
        23.0004         32.7504
  24313826.6804    1610449.06445   1116646.97845                  24313831.0164
        11.0004          6.5004
  23990486.5314    -826782.32145   -579173.86645                  23990490.5274
         9.5004          6.0004
                   -169933.499 5   -132415.660 5  23423678.961    23423681.840
        10.750          11.000
  20874816.7344     507756.59047    358015.63248                  20874818.3874
        27.7504         42.5004
  23152749.5234    -945609.26346   -675115.94545                  23152753.6374
        13.0004         11.2504
 95  4 19 15 35 15.0000000  0  8G14G18G19G22G27G28G29G31
  24247910.9064    1757166.54345   1213405.66543                  24247917.0124
         8.0004          3.2504
  20461612.1954    -190351.92548   -139037.51848                  20461614.1414
        28.7504         41.2504
  21494404.7194    -356943.91247   -259332.20047                  21494407.8134
        23.0004         32.0004
  24324392.5394    1665970.78345   1159910.63345                  24324396.9574
        11.0004          6.0004
  23984421.8054    -858653.84645   -604008.79045                  23984427.3134
         9.2504          4.5004
                   -176790.620 5   -137758.857 5  23422374.352    23422376.844
        10.750          11.000
  20878086.8364     524939.73147    371405.09948                  20878088.6294
        27.5004         42.5004
  23145992.5394    -981116.01246   -702783.50745                  23145996.5354
        13.2504          9.7504
 95  4 19 15 35 30.0000000  0  8G14G18G19G22G27G28G29G31
  24259009.9224    1815490.93345   1258853.21343                  24259015.1374
         7.7504          2.5004
  20460177.2344    -197893.33348   -144913.93048                  20460179.1454
        29.0004         42.0004
  21491691.9534    -371200.39447   -270441.12947                  21491695.0944
        23.0004         32.0004
  24334942.4844    1721413.31245   1203112.57545                  24334946.5164
        10.7504          7.2504
  23978338.5554    -890619.52345   -628917.07945                  23978343.3364
         9.5004          5.2504
                   -183635.446 5   -143092.477 5  23421071.867    23421074.270
        10.750          11.000
  20881355.6644     542117.68447    384790.51748                  20881357.4924
        27.5004         43.2504
  23139226.7894   -1016668.36146   -730486.60745                  23139230.5864
        13.2504          9.7504
 95  4 19 15 35 45.0000000  0  8G14G18G19G22G27G28G29G31
  24270089.8364    1873712.92945   1304220.96543                  24270095.5664
         8.5004          3.2504
  20458741.8674    -205435.06848   -150790.59848                  20458743.9414
        28.7504         41.2504
  21488966.9144    -385520.45547   -281599.59847                  21488969.9264
        23.2504         32.0004
  24345477.7424    1776776.46545   1246252.65945                  24345482.2304
        10.5004          7.2504
  23972238.6254    -922677.17645   -653897.03845                  23972243.5474
         9.7504          5.2504
                   -190464.642 5   -148413.915 5  23419771.992    23419774.688
        10.750          11.000
  20884623.8754     559292.96647    398173.85948                  20884625.7274
        27.5004         43.2504
  23132452.8204   -1052265.20046   -758224.37545                  23132456.7114
        13.2504          9.7504
 95  4 19 15 36  0.0000000  0  8G14G18G19G22G27G28G29G31
  24281149.1414    1931833.54545   1349509.72643                  24281154.5554
         8.5004          3.2504
  20457307.3204    -212974.72948   -156665.64948                  20457309.2424
        28.5004         40.5004
  21486230.0474    -399902.65947   -292806.49447                  21486233.0824
        23.2504         32.0004
  24355998.7424    1832060.10845   1289330.80545                  24356002.6214
        10.5004          6.0004
  23966121.2344    -954825.19145   -678947.39345                  23966125.6994
         9.2504          5.2504
                   -197275.798 5   -153721.298 5  23418476.000    23418478.613
        10.750          10.750
  20887892.2344     576468.11847    411557.09648                  20887894.0394
        27.5004         43.2504
  23125670.7584   -1087906.12246   -785996.49245                  23125674.4494
        13.2504          9.2504
 95  4 19 15 36 15.0000000  0  8G14G18G19G22G27G28G29G31
  24292188.9224    1989851.05545   1394718.18043                  24292194.7584
         7.7504          3.2504
  20455873.7344    -220508.96848   -162536.48148                  20455875.6454
        28.5004         41.2504
  21483481.5004    -414346.40247   -304061.34647                  21483484.5824
        23.5004         33.5004
  24366503.5634    1887264.74345   1332347.36745                  24366507.6054
        10.5004          6.0004
  23959986.3284    -987063.66945   -704068.24945                  23959991.4844
         9.2504          5.2504
                   -204066.484 5   -159012.732 5  23417183.875    23417186.371
        10.750          10.750
  20891161.3524     593647.21747    424943.40948                  20891163.1094
        27.5004         43.2504
  23118880.4454   -1123591.05846   -813802.91545                  23118884.4774
        13.2504          9.2504
 95  4 19 15 36 30.0000000  0  8G14G18G19G22G27G28G29G31
  24303210.8204    2047767.27945   1439847.65443                  24303214.8754
         8.0004          2.5004
  20454442.1484    -228030.96848   -168397.76848                  20454444.1054
        28.2504         42.5004
  21480722.1024    -428845.55547   -315359.37347                  21480725.0204
        23.2504         32.7504
  24376994.0004    1942393.03945   1375304.47345                  24376999.4024
        10.0004          6.5004
  23953834.7274   -1019390.13845   -729257.65945                  23953839.2154
         9.7504          4.5004
                   -210831.465 5   -164284.133 5  23415896.375    23415899.051
        10.500          10.750
  20894432.5784     610838.06947    438338.88048                  20894434.3834
        27.5004         43.2504
  23112081.7424   -1159318.16146   -841642.17945                  23112085.8324
        13.2504         10.5004
 95  4 19 15 36 45.0000000  0  8G14G18G19G22G27G28G29G31
  24314212.8914    2105584.78645   1484900.21244                  24314218.1524
         7.7504          4.0004
  20453013.8134    -235537.17448   -174246.75448                  20453015.7344
        28.2504         40.5004
  21477953.5554    -443395.37647   -326696.88147                  21477956.3914
        23.5004         33.5004
  24387470.8204    1997447.56045   1418204.06245                  24387474.7584
        10.2504          7.2504
  23947666.3834   -1051804.36845   -754515.48945                  23947671.1174
         9.5004          6.0004
                   -217567.985 5   -169533.359 5  23414614.531    23414617.113
        10.500          10.750
  20897707.2894     628046.91447    451748.36948                  20897709.0474
        27.5004         44.0004
  23105274.9774   -1195086.48946   -869513.57245                  23105279.1844
        13.2504         10.5004
 95  4 19 15 37  0.0000000  0  8G14G18G19G22G27G28G29G31
  24325197.9924    2163309.18145   1529880.22543                  24325203.0554
         8.0004          3.2504
  20451588.9844    -243025.54948   -180081.84348                  20451591.0124
        28.5004         41.2504
  21475175.4064    -457994.26647   -338072.62347                  21475178.2894
        23.5004         33.5004
  24397932.9064    2052426.75745   1461044.97345                  24397936.7974
        10.2504          6.5004
  23941482.3204   -1084302.45545   -779838.61545                  23941486.8204
         9.5004          6.0004
                   -224273.097 5   -174758.115 5  23413338.656    23413341.152
        10.750          11.000
  20900986.1564     645276.96247    465174.38448                  20900987.7854
        27.5004         43.2504
  23098461.1484   -1230893.68146   -897415.24745                  23098465.4144
        13.2504         11.2504
 95  4 19 15 37 15.0000000  0  8G14G18G19G22G27G28G29G31
  24336164.4064    2220943.87644   1574790.37143                  24336169.2934
         6.7504          2.5004
  20450167.8054    -250493.11448   -185900.71748                  20450169.7274
        28.5004         40.5004
  21472388.3674    -472640.01847   -349484.88147                  21472391.2504
        23.5004         33.5004
  24408381.2734    2107332.90645   1503828.97445                  24408385.1054
         9.7504          6.0004
  23935283.2114   -1116879.00145   -805222.91145                  23935287.7934
         9.7504          5.2504
                   -230943.908 5   -179956.143 5  23412069.133    23412071.746
        10.500          11.000
  20904268.4384     662526.57747    478615.64048                  20904270.1484
        27.0004         42.5004
  23091640.7344   -1266735.32846   -925343.77445                  23091645.1764
        13.5004         10.5004
 95  4 19 15 37 30.0000000  0  8G14G18G19G22G27G28G29G31
  24347115.6954    2278490.60344   1619631.91443                  24347120.6174
         6.7504          3.2504
  20448751.2344    -257937.87148   -191701.81847                  20448753.2504
        28.2504         39.2504
  21469592.7274    -487333.13247   -360934.04647                  21469595.6454
        23.7504         32.7504
  24418815.2664    2162167.67945   1546557.33945                  24418819.0164
         9.7504          5.2504
  23929069.4064   -1149532.78545   -830667.38545                  23929074.4574
         9.5004          4.5004
                   -237578.988 5   -185126.325 5  23410806.367    23410809.230
        10.500          11.000
  20907554.6414     679795.03247    492071.57748                  20907556.3874
        27.2504         43.2504
  23084814.2344   -1302608.70746   -953297.02045                  23084818.5354
        13.7504         11.2504
 95  4 19 15 37 45.0000000  0  8G14G18G19G22G27G28G29G31
  24358049.0634    2335947.46444   1664403.47043                  24358054.6174
         7.0004          3.2504
  20447338.7424    -265359.37248   -197484.80048                  20447340.7934
        28.5004         40.5004
  21466787.2424    -502075.17047   -372421.33647                  21466790.2074
        23.7504         33.5004
  24429237.1174    2216929.85645   1589229.13045                  24429240.8794
        10.2504          6.5004
  23922841.0314   -1182263.15645   -856171.54545                  23922846.2114
        10.0004          4.5004
                   -244176.909 5   -190267.556 5  23409551.094    23409553.676
        10.750          11.000
  20910844.8444     697085.35347    505544.55248                  20910846.6484
        27.5004         43.2504
  23077982.7974   -1338511.25446   -981273.00345                  23077986.6054
        14.0004         11.2504
 95  4 19 15 38  0.0000000  0  8G14G18G19G22G27G28G29G31
  24368966.2274    2393314.11244   1709104.70743                  24368971.8164
         7.0004          3.2504
  20445930.2894    -272760.92748   -203252.23448                  20445932.3404
        28.5004         40.5004
  21463973.1954    -516863.13447   -383944.41047                  21463975.9614
        24.0004         34.7504
  24439644.2114    2271622.22945   1631846.54845                  24439648.3244
         9.5004          7.2504
  23916599.0314   -1215067.28145   -881733.16145                  23916602.8874
         9.7504          5.2504
                   -250735.214 5   -195377.915 5  23408303.008    23408305.629
        10.750          11.000
  20914139.5634     714398.20947    519035.08648                  20914141.3794
        27.5004         42.5004
  23071145.3754   -1374438.68446  -1009268.37045                  23071149.2894
        13.7504         11.7504
 95  4 19 15 38 15.0000000  0  8G14G18G19G22G27G28G29G31
  24379865.7424    2450592.00244   1753736.78444                  24379871.6484
         7.0004          4.0004
  20444525.7344    -280141.41948   -209003.26548                  20444527.7274
        28.5004         40.0004
  21461151.1024    -531693.41847   -395500.46347                  21461153.8554
        24.2504         34.7504
  24450039.5944    2326249.51445   1674413.22245                  24450044.0704
         9.7504          6.0004
  23910343.1254   -1247939.31845   -907347.71245                  23910347.7774
         9.7504          4.5004
                   -257251.234 5   -200455.325 5  23407063.133    23407065.621
        10.750          11.000
  20917438.7114     731735.45347    532544.62648                  20917440.3984
        27.5004         42.5004
  23064304.8524   -1410385.86346  -1037279.12845                  23064309.0594
        14.0004         11.2504
 95  4 19 15 38 30.0000000  0  8G14G18G19G22G27G28G29G31
  24390749.2734    2507785.19244   1798302.89043                  24390755.3094
         7.0004          2.5004
  20443125.9924    -287498.05448   -214735.69847                  20443127.9614
        28.7504         39.2504
  21458320.8754    -546566.50947   -407089.87647                  21458323.4774
        24.2504         34.0004
  24460422.8524    2380813.67345   1716930.72945                  24460426.7664
        10.0004          6.5004
  23904074.9614   -1280877.77545   -933014.00845                  23904079.5664
         9.5004          5.2504
                   -263723.326 5   -205498.508 5  23405831.492    23405833.902
        11.000          11.000
  20920742.0634     749095.60147    546072.01148                  20920743.8444
        27.2504         42.5004
  23057461.7974   -1446348.78046  -1065302.14345                  23057465.4774
        14.0004         10.5004
 95  4 19 15 38 45.0000000  0  8G14G18G19G22G27G28G29G31
  24401618.2734    2564899.10245   1842807.14844                  24401623.9574
         7.7504          4.0004
  20441730.5234    -294831.27248   -220449.88948                  20441732.4224
        28.5004         40.5004
  21455482.2664    -561483.11147   -418713.18647                  21455484.9384
        24.2504         34.0004
  24470794.5474    2435314.92245   1759399.21645                  24470798.4964
        10.2504          6.0004
  23897794.8674   -1313880.37945   -958730.28945                  23897799.9884
         9.5004          5.2504
                   -270150.063 5   -210506.345 5  23404608.602    23404611.121
        10.750          10.750
  20924049.6094     766476.99047    559615.95248                  20924051.4494
        27.0004         42.5004
  23050615.9924   -1482322.84046  -1093333.85145                  23050619.8834
        14.0004         10.5004
 95  4 19 15 39  0.0000000  0  8G14G18G19G22G27G28G29G31
  24412471.1884    2621935.81345   1887251.31545                  24412476.4614
         7.5004          4.5004
  20440339.3284    -302141.97648   -226146.53448                  20440341.1914
        28.5004         40.5004
  21452634.5704    -576448.28147   -430374.34847                  21452637.3014
        24.2504         35.2504
  24481153.1954    2489753.39045   1801818.77345                  24481157.7424
         9.7504          5.2504
  23891502.7664   -1346945.00545   -984494.89645                  23891506.2934
         9.7504          6.0004
                   -276531.745 5   -215479.079 5  23403394.063    23403396.629
        11.000          11.000
  20927360.5164     783875.36347    573173.12348                  20927362.4384
        27.0004         41.2504
  23043768.8444   -1518304.11446  -1121371.17545                  23043772.9454
        14.0004         10.5004
 95  4 19 15 39 15.0000000  0  7G18G19G22G27G28G29G31
  20438952.1414    -309432.40448   -231827.38448                  20438954.2384
        28.7504         40.5004
  21449777.3054    -591463.54147   -442074.53947                  21449780.0354
        25.0004         35.2504
  24491500.7034    2544129.98845   1844190.11745                  24491505.8834
        10.0004          6.5004
  23885199.3444   -1380070.54045  -1010306.97845                  23885203.5394
         9.7504          5.2504
                   -282868.714 5   -220416.967 5  23402188.313    23402190.797
        11.000          10.750
  20930674.1884     801289.46647    586742.54948                  20930676.0514
        27.0004         43.2504
  23036920.9534   -1554289.81246  -1149411.94345                  23036925.3594
        14.0004         11.7504
 95  4 19 15 39 30.0000000  0  7G18G19G22G27G28G29G31
  20437569.3444    -316699.01048   -237489.66848                  20437571.1844
        29.0004         40.5004
  21446911.6414    -606523.26047   -453809.37647                  21446914.3244
        24.7504         34.7504
  24501838.4534    2598452.46145   1886519.30545                  24501842.8364
        10.0004          6.5004
  23878884.7504   -1413253.84545  -1036164.05645                  23878888.9694
         9.7504          4.5004
                   -289155.221 5   -225315.535 5  23400992.055    23400994.434
        11.000          10.750
  20933992.5004     818727.43847    600330.57748                  20933994.3984
        27.0004         42.5004
  23030073.8204   -1590273.00746  -1177450.75345                  23030077.6884
        14.5004         11.7504
 95  4 19 15 39 45.0000000  0  7G18G19G22G27G28G29G31
  20436191.1414    -323941.32448   -243133.02248                  20436193.0044
        28.7504         40.5004
  21444037.4384    -621626.86947   -465578.40647                  21444040.0514
        25.0004         34.7504
  24512164.7274    2652719.37545   1928805.18645                  24512168.8404
        10.0004          6.5004
  23872558.5474   -1446496.83245  -1062067.66145                  23872563.0594
         9.7504          6.0004
                   -295390.957 5   -230174.544 5  23399805.539    23399807.914
        11.250          10.750
  20937316.1724     836192.53547    613939.73948                  20937318.1414
        27.0004         42.5004
  23023226.7664   -1626252.89846  -1205487.01445                  23023230.3984
        14.2504         10.5004
 95  4 19 15 40  0.0000000  0  7G18G19G22G27G28G29G31
  20434818.2194    -331155.85948   -248754.73348                  20434820.1414
        28.7504         40.0004
  21441156.3674    -636767.84247   -477376.56047                  21441159.0634
        25.0004         34.7504
  24522481.4304    2706934.07545   1971050.37245                  24522485.9654
         9.7504          6.0004
  23866222.4844   -1479795.62845  -1088014.74145                  23866226.6214
        10.0004          6.5004
                   -301572.308 5   -234991.171 5  23398629.141    23398631.559
        11.000          10.750
  20940645.7274     853689.10847    627573.43148                  20940647.6954
        26.7504         42.5004
  23016381.5084   -1662225.06946  -1233517.24745                  23016385.7624
        13.7504          9.7504
 95  4 19 15 40 15.0000000  0  7G18G19G22G27G28G29G31
  20433451.6094    -338337.28648   -254350.64448                  20433453.4844
        29.0004         40.0004
  21438268.8914    -651941.87547   -489200.46947                  21438271.5164
        25.2504         35.2504
  24532789.3204    2761100.24645   2013257.76845                  24532793.3984
        10.0004          4.5004
  23859875.5784   -1513147.26545  -1114003.00245                  23859879.7274
         9.7504          7.2504
                   -307696.770 5   -239763.469 5  23397463.672    23397466.195
        11.000          11.000
  20943981.3594     871218.96347    641233.05348                  20943983.2114
        27.0004         42.0004
  23009538.3364   -1698185.95246  -1261538.66545                  23009542.4614
        14.0004         10.5004
 95  4 19 15 40 30.0000000  0  7G18G19G22G27G28G29G31
  20432092.0084    -345482.96548   -259918.70248                  20432093.8714
        29.0004         40.0004
  21435374.6564    -667149.53547   -501050.58447                  21435377.2234
        25.0004         34.7504
  24543086.5084    2815215.11145   2055425.16745                  24543090.3874
        10.0004          5.2504
  23853518.1884   -1546554.91745  -1140034.89645                  23853522.0084
         9.5004          6.5004
                   -313764.688 5   -244491.705 5  23396309.008    23396311.352
        11.250          11.000
  20947323.9454     888783.12047    654919.40848                  20947325.9614
        27.0004         43.2504
  23002697.3054   -1734134.89146  -1289550.79745                  23002701.4184
        13.7504         10.5004
 95  4 19 15 40 45.0000000  0  7G18G19G22G27G28G29G31
  20430739.2504    -352590.56648   -265457.08648                  20430741.1484
        29.0004         40.5004
  21432475.6644    -682384.90747   -512922.29447                  21432478.2544
        25.0004         36.0004
  24553374.9304    2869279.77545   2097553.48845                  24553378.8444
        10.0004          4.5004
  23847150.2814   -1580018.09045  -1166110.06245                  23847154.6994
         9.7504          6.0004
                   -319773.554 5   -249173.929 5  23395165.664    23395167.910
        11.000          11.000
  20950673.0944     906384.37347    668634.66748                  20950675.0634
        26.7504         43.2504
  22995859.3444   -1770069.74646  -1317551.95045                  22995862.9064
        14.0004         11.2504
 95  4 19 15 41  0.0000000  0  7G18G19G22G27G28G29G31
  20429393.8984    -359660.54048   -270966.15348                  20429395.8914
        29.0004         40.0004
  21429571.4144    -697646.28147   -524814.26547                  21429574.0984
        25.2504         34.7504
  24563654.0164    2923295.09845   2139643.31145                  24563658.4104
        10.5004          4.5004
  23840772.3674   -1613535.54045  -1192227.53845                  23840777.4534
         9.7504          6.5004
                   -325723.682 5   -253810.382 5  23394033.297    23394035.719
        11.000          11.000
  20954029.9534     924025.06447    682380.66348                  20954031.9694
        26.7504         42.0004
  22989023.4384   -1805992.20646  -1345543.43645                  22989027.3524
        14.2504         10.5004
 95  4 19 15 41 15.0000000  0  7G18G19G22G27G28G29G31
  20428056.9844    -366687.79648   -276441.93448                  20428058.8714
        29.2504         40.0004
  21426663.6644    -712926.88247   -536721.21647                  21426666.0664
        25.2504         34.7504
  24573923.9304    2977264.25445   2181697.20245                  24573928.0554
        10.0004          4.5004
  23834384.6644   -1647105.41345  -1218385.83845                  23834389.1524
         9.7504          7.2504
                   -331611.966 5   -258398.643 5  23392912.727    23392915.305
        11.000          11.000
  20957395.6414     941710.50947    696161.52648                  20957397.7154
        26.7504         42.0004
  22982190.2194   -1841902.36046  -1373525.34045                  22982193.9574
        14.2504         11.7504
 95  4 19 15 41 30.0000000  0  6G18G19G27G28G29G31
  20426727.4384    -373673.40648   -281885.26147                  20426729.2774
        29.0004         38.7504
  21423752.2894    -728226.29747   -548642.82647                  21423754.7274
        25.2504         36.0004
  23827985.3204   -1680732.41445  -1244588.65245                  23827991.2154
         9.7504          6.0004
                   -337440.270 5   -262940.167 5  23391803.625    23391806.289
        11.000          11.250
  20960769.5864     959440.67247    709977.23648                  20960771.5204
        26.7504         41.2504
  22975357.6174   -1877804.35846  -1401500.89345                  22975361.5554
        14.2504         11.2504
 95  4 19 15 41 45.0000000  0  6G18G19G27G28G29G31
  20425407.4844    -380609.03748   -287289.64548                  20425409.3134
        29.0004         40.0004
  21420838.5084    -743537.73047   -560573.80347                  21420840.8634
        25.2504         35.2504
  23821576.4694   -1714410.77145  -1270831.50645                  23821581.0044
         9.7504          6.0004
                   -343203.539 5   -267431.018 5  23390706.813    23390709.488
        11.000          11.250
  20964152.4144     977218.95247    723830.43648                  20964154.3954
        26.2504         42.0004
  22968527.9224   -1913696.39046  -1429468.67845                  22968531.7304
        14.2504         11.7504
 95  4 19 15 42  0.0000000  0  6G18G19G27G28G29G31
  20424097.9844    -387491.50348   -292652.60347                  20424099.8594
        29.0004         39.2504
  21417923.0474    -758859.47047   -572512.81447                  21417925.4844
        25.2504         34.7504
  23815158.3594   -1748135.91745  -1297110.81945                  23815162.6484
         9.7504          6.0004
                   -348900.264 5   -271870.008 5  23389622.922    23389625.441
        11.000          11.250
  20967544.7504     995045.73747    737721.43348                  20967546.9064
        26.2504         41.2504
  22961699.5784   -1949578.87346  -1457429.01945                  22961703.4344
        14.0004         10.5004
 95  4 19 15 42 15.0000000  0  6G18G19G27G28G29G31
  20422798.0394    -394323.14048   -297975.95147                  20422799.8794
        29.0004         39.2504
  21415004.3674    -774195.77147   -584463.16947                  21415006.9454
        25.0004         34.0004
  23808731.5084   -1781908.52145  -1323427.09845                  23808735.5044
         9.7504          4.5004
                   -354532.887 5   -276259.054 5  23388550.945    23388553.469
        11.000          11.250
  20970946.1564    1012919.36147    751648.92248                  20970948.2304
        26.5004         42.0004
  22954873.1644   -1985455.06046  -1485384.46245                  22954876.8914
        14.2504         11.2504
 95  4 19 15 42 30.0000000  0  6G18G19G27G28G29G31
  20421508.8134    -401097.52848   -303254.69147                  20421510.6644
        29.0004         39.2504
  21412083.5784    -789544.66347   -596423.33347                  21412086.1804
        25.0004         33.5004
  23802296.5784   -1815724.52645  -1349777.21545                  23802300.7734
         9.7504          6.5004
                   -360097.469 5   -280595.082 5  23387492.063    23387494.609
        11.000          11.250
  20974356.7894    1030842.71447    765615.16948                  20974358.6174
        26.2504         41.2504
  22948047.6564   -2021321.73046  -1513332.48045                  22948051.2304
        14.2504         11.2504
 95  4 19 15 42 45.0000000  0  6G18G19G27G28G29G31
  20420230.6024    -407815.02748   -308489.10147                  20420232.4184
        29.0004         39.2504
  21409160.1334    -804907.89847   -608394.67347                  21409162.9104
        24.7504         34.7504
  23795853.1884   -1849584.16245  -1376161.30045                  23795857.6054
        10.0004          6.0004
                   -365594.975 5   -284878.842 5  23386446.047    23386448.582
        11.000          11.250
  20977776.5634    1048813.09047    779618.05448                  20977778.3554
        26.2504         40.5004
  22941223.7814   -2057181.38746  -1541275.03545                  22941227.0164
        14.5004         11.7504
 95  4 19 15 43  0.0000000  0  6G18G19G27G28G29G31
  20418963.5864    -414472.56148   -313676.78647                  20418965.4384
        29.0004         39.2504
  21406233.7114    -820286.10547   -620377.68347                  21406236.4184
        24.5004         34.7504
  23789403.1334   -1883481.37345  -1402574.69745                  23789408.5944
        10.0004          5.2504
                   -371023.298 5   -289108.692 5  23385412.922    23385415.520
        11.000          11.250
  20981205.4774    1066831.57147    793658.42348                  20981207.2814
        26.2504         40.5004
  22934401.8444   -2093031.41146  -1569210.09946                  22934405.4414
        15.0004         12.5004
 95  4 19 15 43 15.0000000  0  6G18G19G27G28G29G31
  20417707.8984    -421071.61948   -318818.90448                  20417709.8094
        29.0004         40.0004
  21403303.6804    -835683.82147   -632375.89547                  21403306.3164
        24.5004         34.0004
  23782944.6484   -1917418.62945  -1429019.27645                  23782949.1134
        10.2504          7.2504
                   -376383.841 5   -293285.725 5  23384392.891    23384395.410
        11.000          11.250
  20984643.1254    1084897.35747    807735.65948                  20984645.0944
        26.0004         40.5004
  22927580.9384   -2128873.15146  -1597138.69246                  22927584.4414
        14.2504         12.5004
 95  4 19 15 43 30.0000000  0  6G18G19G27G28G29G31
  20416464.7194    -427604.71748   -323909.62748                  20416466.6294
        29.0004         40.0004
  21400371.5704    -851092.41547   -644382.58047                  21400374.1954
        24.7504         34.7504
  23776480.3914   -1951387.84445  -1455488.76945                  23776484.2704
         9.7504          6.5004
                   -381668.988 5   -297404.009 5  23383387.102    23383389.871
        11.000          11.500
  20988091.6644    1103018.85447    821856.29948                  20988093.8444
        25.7504         40.5004
  22920764.3364   -2164695.83746  -1625052.43346                  22920768.2154
        14.7504         12.5004
 95  4 19 15 43 45.0000000  0  6G18G19G27G28G29G31
  20415234.2274    -434070.70748   -328948.05348                  20415236.0554
        29.0004         40.0004
  21397437.7274    -866509.48347   -656395.87147                  21397440.2114
        24.7504         35.2504
  23770010.9534   -1985385.83745  -1481980.67345                  23770015.2304
        10.2504          6.5004
                   -386876.327 5   -301461.664 5  23382396.367    23382398.953
        11.000          11.500
  20991550.6644    1121196.71747    836020.86648                  20991552.7504
        25.7504         40.5004
  22913951.5944   -2200494.91146  -1652947.78946                  22913955.2384
        14.5004         12.5004
 95  4 19 15 44  0.0000000  0  6G18G19G27G28G29G31
  20414016.6024    -440469.48348   -333934.11148                  20414018.4534
        29.0004         40.0004
  21394502.6094    -881934.47347   -668415.33247                  21394505.1054
        24.5004         35.2504
  23763536.3204   -2019412.30745  -1508494.80245                  23763541.7344
        10.7504          6.5004
                   -392004.486 5   -305457.621 5  23381420.414    23381423.016
        11.000          11.500
  20995021.1254    1139433.63747    850231.44748                  20995023.2464
        25.7504         40.0004
  22907144.8914   -2236266.66546  -1680821.85346                  22907148.4064
        15.0004         12.5004
 95  4 19 15 44 15.0000000  0  6G18G19G27G28G29G31
  20412811.2584    -446803.58348   -338869.76947                  20412813.0634
        29.2504         39.2504
  21391564.6414    -897372.87147   -680445.23847                  21391567.2774
        24.5004         35.2504
  23757054.6954   -2053472.03345  -1535034.80345                  23757058.9844
        10.5004          7.2504
                   -397055.730 5   -309393.645 5  23380459.203    23380461.586
        11.000          11.250
  20998502.4694    1157728.16947    864486.92247                  20998504.5784
        25.7504         39.2504
  22900342.9384   -2272010.41346  -1708674.09746                  22900346.4304
        15.0004         13.0004
 95  4 19 15 44 30.0000000  0  6G18G19G27G28G29G31
  20411618.7274    -453070.72548   -343753.25348                  20411620.5204
        29.2504         40.0004
  21388624.9694    -912820.89547   -692482.65047                  21388627.5004
        24.5004         34.0004
  23750567.1804   -2087566.22045  -1561601.68145                  23750571.1054
        10.7504          6.5004
                   -402028.374 5   -313268.421 5  23379513.055    23379515.273
        11.000          11.250
  21001994.7194    1176080.81747    878787.68248                  21001996.8284
        25.2504         40.0004
  22893546.9694   -2307723.07146  -1736502.11646                  22893550.3914
        15.0004         12.5004
 95  4 19 15 44 45.0000000  0  6G18G19G27G28G29G31
  20410437.4384    -459277.51848   -348589.71348                  20410439.2544
        29.0004         40.0004
  21385682.8054    -928282.10347   -704530.33447                  21385685.4534
        24.5004         34.0004
  23744071.2034   -2121701.89045  -1588200.88945                  23744075.9384
        10.7504          7.2504
                   -406928.012 5   -317086.306 5  23378580.547    23378583.156
        11.000          11.500
  21005496.8204    1194485.08847    893128.67048                  21005498.9414
        25.2504         40.0004
  22886756.1024   -2343410.13346  -1764310.19046                  22886759.7814
        14.7504         13.0004
 95  4 19 15 45  0.0000000  0  6G18G19G27G28G29G31
  20409268.0554    -465424.54548   -353379.60247                  20409269.8484
        29.0004         39.2504
  21382738.2274    -943755.43647   -716587.46847                  21382740.7584
        24.5004         34.0004
  23737567.7194   -2155875.88045  -1614829.94345                  23737572.4414
        10.7504          6.5004
                   -411752.347 5   -320845.518 5  23377662.547    23377665.152
        11.000          11.500
  21009009.9844    1212945.90147    907513.71348                  21009012.1054
        25.2504         40.5004
  22879970.3284   -2379068.94646  -1792096.24746                  22879973.9384
        14.7504         13.7504
 95  4 19 15 45 15.0000000  0  6G18G19G27G28G29G31
  20408109.9844    -471509.49048   -358121.11747                  20408111.8014
        29.0004         39.2504
  21379792.0234    -959237.76447   -728651.60947                  21379794.5314
        24.2504         33.5004
  23731058.0474   -2190087.01045  -1641487.94045                  23731062.6524
        10.7504          7.2504
                   -416498.026 5   -324543.440 5  23376759.461    23376761.977
        11.000          11.500
  21012534.3754    1231466.96447    921945.71047                  21012536.4614
        25.2504         39.2504
  22873190.6254   -2414696.42446  -1819857.88846                  22873194.6094
        15.0004         13.0004
 95  4 19 15 45 30.0000000  0  6G18G19G27G28G29G31
  20406965.1644    -477525.48448   -362808.90248                  20406967.0634
        29.0004         40.0004
  21376846.0394    -974720.37147   -740715.97047                  21376848.5594
        24.5004         34.7504
  23724541.7584   -2224330.32045  -1668171.00245                  23724546.5274
        10.7504          6.5004
                   -421156.998 5   -328173.798 5  23375872.703    23375875.266
        11.000          11.250
  21016071.7034    1250055.81647    936430.52148                  21016073.9414
        25.2504         40.0004
  22866418.6254   -2450284.01846  -1847588.44946                  22866422.3054
        15.2504         13.0004
 95  4 19 15 45 45.0000000  0  6G18G19G27G28G29G31
  20405832.7424    -483476.97048   -367446.41948                  20405834.7114
        29.2504         40.0004
  21373898.3524    -990210.44547   -752786.14447                  21373900.9414
        24.2504         34.0004
  23718017.6024   -2258612.58545  -1694884.44545                  23718022.0784
        10.7504          6.0004
                   -425734.729 5   -331740.851 5  23375001.648    23375004.199
        11.000          11.250
  21019620.0704    1268702.05847    950960.05548                  21019622.2034
        25.2504         40.0004
  22859653.3284   -2485836.76846  -1875291.87046                  22859656.6094
        15.5004         13.0004
 95  4 19 15 46  0.0000000  0  6G18G19G27G28G29G31
  20404711.8984    -489365.95248   -372035.23548                  20404713.9264
        29.0004         40.0004
  21370947.6024   -1005715.47347   -764867.97047                  21370950.1914
        24.2504         34.7504
  23711485.9614   -2292938.32845  -1721631.74445                  23711490.3914
        10.7504          6.5004
                   -430234.380 5   -335247.068 5  23374145.352    23374147.984
        11.000          11.250
  21023178.1724    1287400.74447    965530.45747                  21023180.3404
        25.2504         39.2504
  22852893.0634   -2521360.79546  -1902972.90346                  22852896.8244
        15.0004         13.7504
 95  4 19 15 46 15.0000000  0  6G18G19G27G28G29G31
  20403606.0164    -495178.79448   -376564.71848                  20403607.9614
        29.2504         40.0004
  21367995.6174   -1021228.47747   -776956.01147                  21367998.2194
        24.2504         34.0004
  23704947.7344   -2327296.56045  -1748404.35745                  23704952.1644
        11.0004          6.5004
                   -434646.220 5   -338684.856 5  23373305.898    23373308.395
        11.000          11.250
  21026748.3754    1306162.27447    980149.82548                  21026750.7194
        25.2504         40.0004
  22846140.7114   -2556846.28846  -1930623.91046                  22846144.2854
        15.5004         13.0004
 95  4 19 15 46 30.0000000  0  6G18G19G27G28G29G31
  20402513.5234    -500919.52848   -381038.01648                  20402515.2934
        29.5004         40.5004
  21365041.2114   -1036754.11847   -789053.90647                  21365043.8484
        24.2504         34.7504
  23698403.2194   -2361688.76645  -1775203.44745                  23698408.1054
        11.0004          7.2504
                   -438974.883 5   -342057.830 5  23372482.344    23372484.730
        11.000          11.250
  21030329.1334    1324979.50847    994812.59748                  21030331.4534
        25.2504         40.0004
  22839394.3914   -2592299.57746  -1958249.83046                  22839397.8484
        15.7504         13.7504
 95  4 19 15 46 45.0000000  0  6G18G19G27G28G29G31
  20401435.1884    -506586.33148   -385453.70648                  20401437.0634
        29.2504         40.0004
  21362085.3204   -1052288.94147   -801158.94947                  21362087.8524
        24.2504         34.0004
  23691853.0634   -2396108.88445  -1802024.30645                  23691858.1724
        10.7504          7.7504
                   -443215.547 5   -345362.232 5  23371675.242    23371677.699
        11.000          11.250
  21033921.5704    1343857.14047   1009522.43648                  21033923.6094
        25.7504         40.5004
  22832654.4844   -2627715.07946  -1985846.30246                  22832657.8014
        15.5004         13.7504
 95  4 19 15 47  0.0000000  0  6G18G19G27G28G29G31
  20400371.0944    -512177.45648   -389810.42548                  20400373.0394
        29.2504         40.0004
  21359126.8914   -1067834.46047   -813272.33247                  21359129.6214
        24.2504         34.7504
  23685298.4454   -2430555.28345  -1828865.62045                  23685302.9454
        11.0004          7.2504
                   -447366.086 5   -348596.414 5  23370885.453    23370887.785
        11.000          11.250
  21037525.9384    1362798.46247   1024281.89848                  21037528.1414
        25.7504         40.0004
  22825922.7974   -2663089.15146  -2013410.49346                  22825926.1024
        15.0004         13.7504
 95  4 19 15 47 15.0000000  0  6G18G19G27G28G29G31
  20399321.6094    -517692.94948   -394108.21148                  20399323.5664
        29.2504         40.0004
  21356166.2664   -1083392.53147   -825395.49547                  21356169.0314
        24.2504         34.7504
  23678738.1724   -2465028.80145  -1855728.07245                  23678741.6994
        11.0004          6.5004
                   -451427.417 5   -351761.082 5  23370112.516    23370115.000
        11.000          11.250
  21041141.9844    1381800.63647   1039088.77748                  21041144.0824
        25.7504         40.5004
  22819199.3134   -2698423.19646  -2040943.48746                  22819202.7234
        15.7504         14.5004
 95  4 19 15 47 30.0000000  0  6G18G19G27G28G29G31
  20398286.2034    -523133.98448   -398347.97847                  20398288.1724
        29.2504         39.2504
  21353203.3364   -1098962.06747   -837527.58647                  21353206.0784
        24.2504         34.7504
  23672172.3754   -2499530.30445  -1882612.33945                  23672176.8874
        10.7504          6.5004
                   -455399.544 5   -354856.235 5  23369356.703    23369358.996
        11.000          11.000
  21044769.8524    1400864.42647   1053943.66848                  21044771.9024
        26.0004         41.2504
  22812483.2504   -2733716.65246  -2068444.85346                  22812486.6954
        16.2504         14.5004
 95  4 19 15 47 45.0000000  0  6G18G19G27G28G29G31
  20397265.6644    -528496.82248   -402526.81147                  20397267.7384
        29.0004         38.7504
  21350239.5004   -1114536.94347   -849663.84747                  21350242.1134
        24.2504         34.7504
  23665602.7194   -2534053.90145  -1909513.81245                  23665607.1024
        10.7504          6.0004
                   -459279.175 5   -357879.320 5  23368618.289    23368620.844
        11.000          11.000
  21048410.3674    1419995.35047   1068850.87548                  21048412.3834
        26.0004         40.5004
  22805775.1414   -2768966.50646  -2095912.26146                  22805778.6564
        15.5004         13.7504
 95  4 19 15 48  0.0000000  0  6G18G19G27G28G29G31
  20396259.9844    -533781.67648   -406644.88047                  20396262.0594
        29.2504         39.2504
  21347275.0474   -1130116.48447   -861803.73847                  21347277.6134
        24.2504         36.0004
  23659029.4224   -2568597.49445  -1936430.88145                  23659033.9344
        10.7504          7.2504
                   -463066.033 5   -360830.108 5  23367897.703    23367900.262
        11.000          11.250
  21052064.5394    1439197.78047   1083813.80148                  21052066.5434
        26.0004         42.5004
  22799075.8984   -2804171.93946  -2123345.04046                  22799079.5904
        15.5004         13.7504
 95  4 19 15 48 15.0000000  0  6G18G19G27G28G29G31
  20395268.9304    -538988.86348   -410702.42748                  20395270.9454
        29.2504         40.0004
  21344310.0864   -1145696.81847   -873944.25047                  21344312.7934
        24.2504         35.2504
  23652452.8984   -2603157.48745  -1963360.71645                  23652457.4694
        10.7504          7.2504
                   -466758.349 5   -363707.229 5  23367195.023    23367197.512
        11.000          11.250
  21055733.2584    1458476.36347   1098836.06948                  21055735.3204
        26.2504         41.2504
  22792385.1804   -2839330.82346  -2150741.55446                  22792389.0124
        15.0004         13.0004
 95  4 19 15 48 30.0000000  0  6G18G19G27G28G29G31
  20394292.0944    -544122.87448   -414702.95148                  20394294.2624
        29.5004         40.5004
  21341345.7194   -1161274.86347   -886082.97447                  21341348.4844
        24.5004         36.0004
  23645873.0164   -2637734.94545  -1990304.16645                  23645877.0944
        10.7504          6.5004
                   -470357.280 5   -366511.582 5  23366510.305    23366512.770
        11.000          11.250
  21059415.6254    1477827.87947   1113915.16848                  21059417.6884
        26.2504         42.5004
  22785703.2894   -2874443.83246  -2178102.31546                  22785707.1094
        15.5004         13.0004
 95  4 19 15 48 45.0000000  0  6G18G19G27G28G29G31
  20393328.9144    -549185.45348   -418647.81648                  20393331.0944
        29.5004         40.5004
  21338382.4844   -1176846.24147   -898216.50847                  21338385.1214
        24.5004         35.2504
  23639290.0554   -2672328.37945  -2017260.06145                  23639294.8014
        10.7504          7.2504
                   -473860.839 5   -369241.620 5  23365843.703    23365846.156
        11.000          11.250
  21063112.3134    1497254.57147   1129052.84048                  21063114.4224
        26.2504         41.2504
  22779030.7894   -2909508.86346  -2205425.69946                  22779034.7274
        15.2504         13.0004
 95  4 19 15 49  0.0000000  0  6G18G19G27G28G29G31
  20392379.4144    -554175.02548   -422535.79347                  20392381.5704
        29.2504         38.7504
  21335421.0314   -1192408.28747   -910342.76947                  21335423.6684
        24.2504         36.0004
  23632704.0554   -2706939.84945  -2044230.01445                  23632708.4024
        10.7504          6.5004
                   -477269.232 5   -371897.499 5  23365195.219    23365197.520
        11.250          11.250
  21066823.6804    1516757.67647   1144250.05848                  21066825.7774
        26.0004         41.2504
  22772366.8204   -2944526.39246  -2232712.06546                  22772370.3714
        15.5004         13.0004
 95  4 19 15 49 15.0000000  0  6G18G19G27G28G29G31
  20391443.8754    -559090.96348   -426366.39247                  20391446.0434
        29.5004         39.2504
  21332461.8444   -1207959.40747   -922460.51747                  21332464.5984
        24.2504         36.0004
  23626113.1644   -2741570.91245  -2071215.23145                  23626117.4304
        10.7504          7.2504
                   -480584.002 5   -374480.427 5  23364564.305    23364566.688
        11.250          11.250
  21070548.7974    1536333.50447   1159503.94248                  21070550.8134
        26.2504         43.2504
  22765711.6254   -2979502.60746  -2259966.24246                  22765715.3634
        15.7504         13.7504
 95  4 19 15 49 30.0000000  0  6G18G19G27G28G29G31
  20390522.4304    -563932.78648   -430139.24148                  20390524.6094
        29.7504         40.5004
  21329505.0784   -1223496.86747   -934567.61647                  21329508.0314
        24.5004         35.2504
  23619520.5474   -2776219.15745  -2098213.83845                  23619524.5904
        11.0004          7.2504
                   -483803.995 5   -376989.500 5  23363951.352    23363953.891
        11.000          11.250
  21074288.3444    1555983.93247   1174815.95748                  21074290.3134
        26.7504         42.0004
  22759064.1644   -3014434.64346  -2287185.99446                  22759068.1604
        15.5004         13.0004
 95  4 19 15 49 45.0000000  0  6G18G19G27G28G29G31
  20389616.3674    -568694.54448   -433849.70048                  20389618.4774
        29.5004         40.0004
  21326551.9064   -1239015.59647   -946660.12847                  21326554.8244
        24.5004         36.7504
  23612924.1884   -2810881.14645  -2125223.15345                  23612928.2194
        10.7504          6.5004
                   -486923.488 5   -379420.264 5  23363357.836    23363360.145
        11.250          11.250
  21078042.8444    1575714.39847   1190190.34248                  21078044.8954
        26.7504         42.5004
  22752426.6954   -3049314.10446  -2314364.77346                  22752430.7034
        15.5004         13.7504
 95  4 19 15 50  0.0000000  0  6G18G19G27G28G29G31
  20388725.1564    -573377.94548   -437499.10548                  20388727.1254
        29.5004         40.0004
  21323601.5084   -1254520.50147   -958741.85947                  21323604.4964
        24.5004         37.2504
  23606324.9454   -2845561.28245  -2152246.61345                  23606329.3634
        10.7504          7.2504
                   -489946.395 5   -381775.761 5  23362782.766    23362785.109
        11.250          11.250
  21081811.2664    1595518.31747   1205621.96248                  21081813.3874
        26.5004         41.2504
  22745798.9384   -3084144.44646  -2341505.28446                  22745802.4654
        15.5004         13.7504
 95  4 19 15 50 15.0000000  0  6G18G19G27G28G29G31
  20387849.3054    -577980.06248   -441085.17047                  20387851.3324
        29.5004         39.2504
  21320653.6414   -1270012.68647   -970813.68547                  21320656.6644
        24.5004         36.7504
  23599722.0474   -2880259.29345  -2179284.00744                  23599725.9144
        11.0004          4.0004
                   -492870.362 5   -384054.162 5  23362226.227    23362228.793
        11.250          11.250
  21085593.5784    1615394.44247   1221109.84748                  21085595.7234
        26.7504         42.5004
  22739181.1954   -3118921.03846  -2368603.90345                  22739184.9454
        15.7504         11.7504
 95  4 19 15 50 30.0000000  0  6G18G19G27G28G29G31
  20386989.9454    -582496.83348   -444604.72848                  20386991.9144
        29.5004         40.0004
  21317708.4614   -1285489.91847   -982873.85747                  21317711.2274
        24.5004         36.7504
  23593116.0234   -2914975.15945  -2206335.31842                  23593119.7974
        11.0004          2.0004
                   -495693.442 5   -386253.955 5  23361689.000    23361691.438
        11.250          11.250
  21089389.3754    1635340.70147   1236652.38148                  21089391.4494
        26.7504         42.0004
  22732573.6724   -3153643.36446  -2395660.25345                  22732576.7424
        16.0004          9.7504
 95  4 19 15 50 45.0000000  0  6G18G19G27G28G29G31
  20386147.5164    -586922.42848   -448053.24348                  20386149.5784
        29.7504         40.0004
  21314765.8834   -1300952.52847   -994922.63847                  21314768.5084
        24.5004         38.0004
  23586507.0554   -2949705.11845  -2233397.57845                  23586511.6024
        11.0004          8.5004
                   -498411.731 5   -388372.094 5  23361171.664    23361174.047
        11.250          11.250
  21093199.5944    1655363.42647   1252254.49748                  21093201.5744
        27.0004         43.2504
  22725977.4384   -3188306.40146  -2422670.40046                  22725980.5664
        15.7504         14.5004
 95  4 19 15 51  0.0000000  0  6G18G19G27G28G29G31
  20385321.9224    -591260.12848   -451433.26947                  20385324.0664
        29.7504         39.2504
  21311825.1024   -1316406.63347  -1006964.79247                  21311827.9264
        24.7504         36.7504
  23579894.5474   -2984453.57445  -2260474.28445                  23579899.0594
        11.0004          6.5004
                   -501029.039 5   -390411.540 5  23360673.563    23360676.059
        11.250          11.250
  21097024.0474    1675460.17247   1267914.29148                  21097026.1334
        27.0004         42.0004
  22719391.7664   -3222911.97546  -2449635.76246                  22719395.4694
        16.0004         13.7504
 95  4 19 15 51 15.0000000  0  6G18G19G27G28G29G31
  20384513.6884    -595508.18948   -454743.44448                  20384515.7854
        29.5004         40.5004
  21308886.0234   -1331850.60447  -1018999.04747                  21308888.8594
        24.5004         38.0004
  23573278.3674   -3019221.44245  -2287566.10245                  23573283.0554
        11.2504          8.5004
                   -503543.857 5   -392371.127 5  23360195.055    23360197.633
        11.000          11.500
  21100862.2974    1695630.39347   1283631.34048                  21100864.2424
        27.0004         43.2504
  22712817.8284   -3257457.47046  -2476554.31446                  22712821.4264
        16.0004         14.5004
 95  4 19 15 51 30.0000000  0  6G18G19G27G28G29G31
  20383722.4924    -599666.79448   -457983.91748                  20383724.4494
        29.7504         40.0004
  21305949.0394   -1347284.61447  -1031025.53847                  21305951.9224
        24.5004         38.0004
  23566659.4144   -3054006.50045  -2314671.32445                  23566663.7974
        11.5004          7.7504
                   -505954.898 5   -394249.855 5  23359736.289    23359738.789
        11.000          11.500
  21104714.9454    1715876.27347   1299407.34548                  21104716.8794
        27.0004         42.5004
  22706256.8914   -3291937.11046  -2503421.55546                  22706260.4414
        15.7504         15.7504
 95  4 19 15 51 45.0000000  0  6G18G19G27G28G29G31
  20382948.6094    -603734.46248   -461153.52848                  20382950.5314
        29.7504         40.0004
  21303014.4304   -1362707.52947  -1043043.38547                  21303017.3594
        24.7504         38.0004
  23560036.4224   -3088808.28745  -2341789.57445                  23560040.6414
        11.5004          7.2504
                   -508259.934 5   -396045.978 5  23359297.578    23359300.051
        11.000          11.500
  21108582.5314    1736200.98547   1315244.77448                  21108584.4654
        27.0004         42.0004
  22699709.5944   -3326345.22046  -2530233.05546                  22699713.1454
        16.0004         15.0004
 95  4 19 15 52  0.0000000  0  6G18G19G27G28G29G31
  20382192.0784    -607708.63048   -464250.28048                  20382194.0944
        29.7504         40.0004
  21300081.8914   -1378116.60747  -1055050.44647                  21300084.8444
        24.7504         38.7504
  23553411.1724   -3123626.27445  -2368920.43845                  23553415.5204
        11.5004          7.7504
                   -510457.805 5   -397758.593 5  23358879.375    23358881.773
        11.000          11.500
  21112465.4064    1756605.18547   1331144.14248                  21112467.3284
        27.0004         42.5004
  22693175.0234   -3360683.59246  -2556990.22146                  22693178.0594
        16.0004         15.7504
 95  4 19 15 52 15.0000000  0  6G18G19G27G28G29G31
  20381453.8444    -611588.11048   -467273.25048                  20381455.8594
        29.5004         40.0004
  21297152.6414   -1393510.29047  -1067045.51747                  21297155.6174
        24.7504         38.7504
  23546782.1804   -3158459.34345  -2396063.07845                  23546786.2584
        11.5004          8.5004
                   -512547.934 5   -399387.255 5  23358481.383    23358484.105
        11.000          11.500
  21116363.4534    1777089.98747   1347106.31848                  21116365.3754
        27.0004         42.0004
  22686653.7504   -3394952.34646  -2583693.13446                  22686657.0784
        15.7504         14.5004
 95  4 19 15 52 30.0000000  0  6G18G19G27G28G29G31
  20380732.8204    -615376.99948   -470225.63047                  20380734.9884
        29.5004         39.2504
  21294225.5314   -1408892.40847  -1079031.57147                  21294228.5434
        24.7504         38.0004
  23540150.7274   -3193308.99145  -2423218.62245                  23540154.8634
        11.5004          7.2504
                   -514532.450 5   -400933.616 5  23358103.984    23358106.594
        11.000          11.500
  21120276.2814    1797652.08547   1363128.72348                  21120278.0984
        26.7504         42.5004
  22680144.5944   -3429157.43646  -2610346.43446                  22680148.3444
        15.7504         15.0004
 95  4 19 15 52 45.0000000  0  6G18G19G27G28G29G31
  20380029.0864    -619074.53848   -473106.82747                  20380031.2074
        29.2504         38.7504
  21291301.2344   -1424259.20247  -1091005.68347                  21291304.1994
        24.5004         37.2504
  23533516.3984   -3228172.24145  -2450384.77245                  23533520.2304
        11.7504          8.5004
                   -516409.252 5   -402396.053 5  23357746.875    23357749.406
        11.000          11.250
  21124204.5394    1818294.99147   1379214.10048                  21124206.5434
        26.7504         42.0004
  22673647.5474   -3463298.85646  -2636950.12946                  22673651.1334
        15.7504         14.5004
 95  4 19 15 53  0.0000000  0  6G18G19G27G28G29G31
  20379342.2034    -622684.33648   -475919.65547                  20379344.4414
        29.2504         38.7504
  21288380.1174   -1439610.54347  -1102967.76147                  21288382.9304
        24.5004         37.2504
  23526879.4614   -3263051.77346  -2477563.59345                  23526883.1174
        12.2504          7.7504
                   -518180.017 5   -403775.859 5  23357409.758    23357412.402
        11.000          11.500
  21128147.8914    1839017.24847   1395361.30748                  21128149.9774
        26.7504         42.0004
  22667162.9304   -3497376.45046  -2663504.09046                  22667166.8204
        15.7504         14.5004
 95  4 19 15 53 15.0000000  0  6G18G19G27G28G29G31
  20378672.4304    -626204.76948   -478662.84747                  20378674.6564
        29.0004         38.7504
  21285463.0164   -1454940.71947  -1114913.34347                  21285465.9104
        25.0004         38.7504
  23520238.2734   -3297946.74945  -2504754.47345                  23520242.6334
        11.7504          7.2504
                   -519842.075 5   -405070.964 5  23357093.539    23357096.121
        10.750          11.500
  21132106.6644    1859820.65247   1411571.74548                  21132108.6334
        27.0004         42.0004
  22660690.7274   -3531389.65446  -2690007.86846                  22660694.3014
        15.7504         14.5004
 95  4 19 15 53 30.0000000  0  6G18G19G27G28G29G31
  20378020.0084    -629633.62848   -481334.68647                  20378022.0124
        29.5004         38.7504
  21282548.8054   -1470254.10947  -1126845.84547                  21282551.6764
        24.7504         38.7504
  23513594.9694   -3332857.87145  -2531957.91545                  23513599.3754
        11.5004          8.5004
                   -521396.154 5   -406281.924 5  23356797.711    23356800.398
        10.750          11.500
  21136080.8364    1880705.87347   1427845.94148                  21136082.7584
        26.7504         42.5004
  22654230.0164   -3565340.35846  -2716462.95546                  22654234.0944
        15.7504         13.7504
 95  4 19 15 53 45.0000000  0  6G18G19G27G28G29G31
  20377384.9144    -632970.84148   -483935.10847                  20377387.0594
        29.2504         39.2504
  21279637.4454   -1485553.80747  -1138767.67847                  21279640.1994
        25.0004         38.7504
  23506949.1564   -3367782.47045  -2559171.87145                  23506953.2344
        11.7504          7.7504
                   -522841.282 5   -407407.992 5  23356522.867    23356525.324
        11.000          11.500
  21140071.3284    1901675.36847   1444185.80348                  21140073.3554
        26.5004         42.0004
  22647780.9304   -3599229.73746  -2742870.24746                  22647785.0314
        15.7504         14.5004
 95  4 19 15 54  0.0000000  0  6G18G19G27G28G29G31
  20376767.7344    -636214.70348   -486462.79447                  20376769.9144
        29.2504         38.0004
  21276728.1644   -1500842.46947  -1150680.91447                  21276730.9184
        24.5004         38.0004
  23500300.7584   -3402720.22145  -2586396.04745                  23500304.2974
        11.7504          7.7504
                   -524177.596 5   -408449.268 5  23356268.594    23356271.066
        11.000          11.250
  21144077.8134    1922729.23547   1460591.40848                  21144079.8874
        26.2504         40.5004
  22641342.8364   -3633061.71646  -2769232.82046                  22641346.5394
        15.7504         14.5004
 95  4 19 15 54 15.0000000  0  6G18G19G27G28G29G31
  20376168.4224    -639363.48048   -488916.38747                  20376170.7074
        29.2504         38.7504
  21273820.6644   -1516120.54247  -1162585.89247                  21273823.4884
        25.0004         38.0004
  23493650.7274   -3437665.45245  -2613626.08245                  23493654.8404
        11.7504          9.2504
                   -525402.733 5   -409403.908 5  23356035.430    23356037.863
        11.000          11.250
  21148100.7734    1943869.86147   1477064.61848                  21148102.8244
        26.2504         40.5004
  22634916.2424   -3666834.06246  -2795548.92146                  22634920.2274
        15.7504         15.7504
 95  4 19 15 54 30.0000000  0  6G18G19G27G28G29G31
  20375586.9304    -642419.74248   -491297.88547                  20375589.0634
        29.2504         38.7504
  21270914.3364   -1531393.16147  -1174486.62547                  21270917.0664
        25.0004         38.7504
  23486999.5314   -3472617.29745  -2640861.26545                  23487004.1724
        11.5004          8.5004
                   -526517.911 5   -410272.871 5  23355823.164    23355825.734
        11.000          11.250
  21152139.4534    1965093.49447   1493602.51047                  21152141.4924
        26.0004         39.2504
  22628501.3204   -3700545.92146  -2821817.88646                  22628505.1764
        16.0004         15.0004
 95  4 19 15 54 45.0000000  0  6G18G19G27G28G29G31
  20375022.8364    -645383.55448   -493607.34747                  20375024.9344
        29.2504         38.7504
  21268009.3594   -1546660.76747  -1186383.45547                  21268012.0434
        25.0004         38.0004
  23480347.1094   -3507576.57245  -2668102.22745                  23480351.2114
        11.7504          7.7504
                   -527523.454 5   -411056.401 5  23355631.891    23355634.285
        11.000          11.250
  21156194.1644    1986401.58947   1510206.21148                  21156196.2384
        26.0004         40.5004
  22622098.0864   -3734194.53346  -2848037.57146                  22622101.8014
        15.7504         15.7504
 95  4 19 15 55  0.0000000  0  6G18G19G27G28G29G31
  20374477.2194    -648251.50048   -495842.10647                  20374479.2464
        29.2504         38.7504
  21265105.2584   -1561921.73847  -1198275.11047                  21265107.9534
        25.2504         37.2504
  23473693.1174   -3542543.57345  -2695349.22145                  23473697.8524
        11.7504          7.7504
                   -528419.766 5   -411754.822 5  23355461.313    23355463.637
        11.000          11.250
  21160265.5004    2007797.03747   1526877.98448                  21160267.4924
        25.7504         40.0004
  22615708.1644   -3767774.44146  -2874203.71346                  22615711.9264
        15.7504         15.0004
 95  4 19 15 55 15.0000000  0  6G18G19G27G28G29G31
  20373950.3984    -651020.63248   -497999.86647                  20373952.4734
        29.2504         38.7504
  21262202.2274   -1577175.95947  -1210161.50947                  21262204.8984
        25.2504         38.7504
  23467038.2194   -3577516.54245  -2722600.86045                  23467042.7304
        11.7504          9.2504
                   -529205.965 5   -412367.435 5  23355311.648    23355314.164
        11.000          11.250
  21164354.0004    2029280.95447   1543618.68947                  21164355.8874
        25.7504         38.7504
  22609331.0634   -3801284.20446  -2900315.20746                  22609334.6604
        15.5004         15.0004
 95  4 19 15 55 30.0000000  0  6G18G19G27G28G29G31
  20373443.5474    -653685.10248   -500076.07347                  20373445.5274
        29.7504         38.7504
  21259301.5704   -1592420.63547  -1222040.46647                  21259304.3364
        25.2504         39.2504
  23460382.5474   -3612491.02045  -2749853.66545                  23460387.3164
        11.7504          8.5004
                   -529879.163 5   -412892.001 5  23355183.523    23355186.164
        11.000          11.500
  21168459.6414    2050857.20947   1560431.35047                  21168461.5744
        25.7504         39.2504
  22602968.7194   -3834720.49946  -2926369.45246                  22602971.9654
        16.2504         15.7504
 95  4 19 15 55 45.0000000  0  6G18G19G27G28G29G31
  20372955.9924    -656246.51348   -502071.97647                  20372958.1844
        29.2504         39.2504
  21256402.0864   -1607656.04747  -1233912.20447                  21256404.8284
        25.2504         38.0004
  23453726.4064   -3647468.71245  -2777108.99845                  23453730.8714
        11.7504          9.2504
                   -530441.735 5   -413330.365 5  23355076.477    23355079.129
        11.000          11.500
  21172582.6644    2072523.26047   1577313.97847                  21172584.7974
        25.2504         38.0004
  22596619.8284   -3868082.94246  -2952366.14146                  22596623.2274
        16.0004         15.7504
 95  4 19 15 56  0.0000000  0  6G18G19G27G28G29G31
  20372487.7274    -658706.71248   -503989.01147                  20372489.7894
        29.2504         38.0004
  21253505.6564   -1622878.27647  -1245773.67647                  21253508.4104
        25.2504         39.2504
  23447069.7344   -3682450.57545  -2804367.57245                  23447073.8134
        11.7504          8.5004
                   -530894.503 5   -413683.165 5  23354990.430    23354992.855
        11.000          11.500
  21176721.9534    2094275.32847   1594263.63247                  21176724.0744
        25.2504         38.7504
  22590285.6644   -3901370.18246  -2978304.23246                  22590289.4384
        15.7504         15.7504
 95  4 19 15 56 15.0000000  0  6G18G19G27G28G29G31
  20372038.6414    -661066.43848   -505827.75847                  20372040.7274
        29.5004         38.0004
  21250611.5004   -1638085.64047  -1257623.55847                  21250614.2544
        25.2504         38.0004
  23440411.6804   -3717438.55945  -2831630.90345                  23440415.9694
        11.7504          8.5004
                   -531238.628 5   -413951.312 5  23354924.797    23354927.430
        11.000          11.500
  21180876.5554    2116109.50347   1611277.27247                  21180878.5234
        25.2504         38.7504
  22583965.6484   -3934582.31046  -3004183.79446                  22583969.7384
        15.7504         15.0004
 95  4 19 15 56 30.0000000  0  6G18G19G27G28G29G31
  20371609.6414    -663320.95248   -507584.51547                  20371611.7734
        29.2504         38.0004
  21247722.6174   -1653268.30147  -1269454.19447                  21247725.3244
        25.2504         38.7504
  23433752.9224   -3752428.70745  -2858895.93645                  23433757.1524
        11.7504          7.7504
                   -531467.800 5   -414129.882 5  23354881.391    23354883.813
        11.000          11.500
  21185048.0944    2138030.92747   1628358.89647                  21185050.3444
        25.0004         37.2504
  22577661.6174   -3967710.38246  -3029997.86046                  22577665.2854
        15.7504         15.7504
 95  4 19 15 56 45.0000000  0  6G18G19G27G28G29G31
  20371199.7584    -665474.44148   -509262.55847                  20371201.9384
        29.2504         38.7504
  21244837.9454   -1668427.58847  -1281266.61747                  21244840.5824
        25.2504         38.7504
  23427092.5864   -3787429.96845  -2886169.62545                  23427096.6884
        11.5004          7.7504
                   -531587.583 5   -414223.222 5  23354858.539    23354861.082
        11.000          11.500
  21189235.8444    2160036.82547   1645506.34147                  21189238.0594
        25.0004         37.2504
  22571372.2034   -4000761.01346  -3055751.58246                  22571375.6844
        16.2504         16.5004
 95  4 19 15 57  0.0000000  0  6G18G19G27G28G29G31
  20370809.0004    -667529.10548   -510863.59147                  20370810.9804
        29.5004         38.7504
  21241957.6484   -1683563.46647  -1293060.79347                  21241960.3914
        25.2504         38.7504
  23420428.7814   -3822447.10745  -2913455.68945                  23420433.1294
        11.5004          8.5004
                   -531601.019 5   -414233.687 5  23354856.000    23354858.563
        11.000          11.500
  21193439.2424    2182125.97947   1662718.66347                  21193441.4104
        25.0004         38.0004
  22565096.7814   -4033739.17346  -3081448.83346                  22565100.0044
        16.5004         16.5004
 95  4 19 15 57 15.0000000  0  6G18G19G27G28G29G31
  20370436.3284    -669487.08748   -512389.28948                  20370438.3094
        29.5004         40.0004
  21239081.9924   -1698673.38247  -1304834.74947                  21239084.6294
        25.0004         39.2504
  23413762.8914   -3857477.85245  -2940752.35345                  23413767.0394
        11.5004          8.5004
                   -531506.594 5   -414160.106 5  23354873.867    23354876.398
        11.000          11.500
  21197658.5234    2204297.92747   1679995.50347                  21197660.8324
        24.7504         38.0004
  22558834.5164   -4066646.22046  -3107090.66646                  22558838.0084
        16.0004         16.5004
 95  4 19 15 57 30.0000000  0  6G18G19G27G28G29G31
  20370081.5784    -671350.93548   -513841.64048                  20370083.6294
        29.2504         40.0004
  21236211.4534   -1713757.81847  -1316588.84647                  21236214.1484
        25.0004         37.2504
  23407094.3284   -3892522.34045  -2968059.72945                  23407098.9224
        11.5004          8.5004
                   -531303.035 5   -414001.485 5  23354912.625    23354915.086
        11.000          11.250
  21201893.1724    2226552.06747   1697336.38847                  21201895.3524
        25.0004         37.2504
  22552586.4064   -4099481.93846  -3132676.91646                  22552590.0514
        16.2504         17.0004
 95  4 19 15 57 45.0000000  0  6G18G19G27G28G29G31
  20369744.6334    -673122.43548   -515222.03247                  20369746.7194
        29.2504         38.0004
  21233345.5634   -1728817.76647  -1328323.86247                  21233348.3634
        24.7504         38.0004
  23400423.0864   -3927579.86145  -2995377.25245                  23400427.5164
        11.5004          7.7504
                   -530989.498 5   -413757.165 5  23354972.367    23354974.680
        11.000          11.250
  21206143.7344    2248888.25747   1714741.20647                  21206145.9264
        25.0004         38.0004
  22546352.0164   -4132243.15646  -3158205.12246                  22546355.4264
        16.5004         15.0004
 95  4 19 15 58  0.0000000  0  6G18G19G27G28G29G31
  20369424.8594    -674802.22348   -516530.95547                  20369426.9804
        29.2504         38.0004
  21230484.7814   -1743852.49747  -1340039.22747                  21230487.5124
        24.7504         38.0004
  23393749.8524   -3962647.27545  -3022702.47345                  23393754.4104
        11.7504          7.7504
                   -530563.225 5   -413425.002 5  23355053.508    23355055.816
        11.000          11.250
  21210409.8914    2271306.84247   1732210.23447                  21210412.0474
        25.0004         39.2504
  22540132.3834   -4164928.14846  -3183673.92446                  22540135.9574
        16.2504         16.5004
 95  4 19 15 58 15.0000000  0  6G18G19G27G28G29G31
  20369121.3134    -676397.04548   -517773.67247                  20369123.5044
        29.2504         38.0004
  21227626.5164   -1758871.39047  -1351742.25447                  21227629.1884
        24.7504         38.0004
  23387073.9064   -3997729.62045  -3050039.35545                  23387078.3484
        11.7504          7.7504
                   -530030.929 5   -413010.219 5  23355154.828    23355157.141
        11.000          11.000
  21214690.0554    2293799.49547   1749736.97247                  21214692.3284
        24.5004         36.7504
  22533925.0474   -4197546.05446  -3209090.45346                  22533928.6454
        16.2504         15.0004
 95  4 19 15 58 30.0000000  0  6G18G19G27G28G29G31
  20368834.8284    -677901.66848   -518946.10247                  20368836.8324
        29.0004         38.0004
  21224772.3914   -1773870.03647  -1363429.50547                  21224775.1094
        24.5004         38.0004
  23380396.2974   -4032821.87545  -3077383.95145                  23380400.8094
        11.5004          8.5004
                   -529386.832 5   -412508.318 5  23355277.438    23355279.699
        11.250          11.000
  21218985.8594    2316374.93047   1767328.21347                  21218988.0984
        24.7504         38.0004
  22527731.6484   -4230091.28646  -3234450.35546                  22527735.3634
        16.2504         16.5004
 95  4 19 15 58 45.0000000  0  6G18G19G27G28G29G31
  20368565.6644    -679316.87148   -520048.84947                  20368567.6804
        29.2504         38.0004
  21221922.2424   -1788848.89747  -1375101.33847                  21221924.9614
        24.7504         37.2504
  23373716.4304   -4067924.28945  -3104736.46145                  23373720.8364
        11.7504          8.5004
                   -528630.818 5   -411919.215 5  23355421.383    23355423.438
        11.250          11.000
  21223297.7114    2339033.61747   1784984.32847                  21223299.9494
        25.0004         38.0004
  22521552.9224   -4262562.74646  -3259752.77046                  22521556.6374
        16.5004         15.7504
 95  4 19 15 59  0.0000000  0  6G18G19G27G28G29G31
  20368311.8204    -680651.12348   -521088.51347                  20368313.8834
        29.2504         38.0004
  21219073.7894   -1803817.87047  -1386765.46547                  21219076.3674
        24.5004         36.7504
  23367033.4924   -4103042.75545  -3132101.46645                  23367037.7704
        11.7504          9.7504
                   -527770.294 5   -411248.673 5  23355585.063    23355587.207
        11.250          11.000
  21227623.5164    2361765.62947   1802697.57747                  21227625.8014
        24.7504         38.7504
  22515386.5474   -4294966.89946  -3285002.73846                  22515390.3094
        16.5004         16.5004
 95  4 19 15 59 15.0000000  0  6G18G19G27G28G29G31
  20368074.4064    -681898.55148   -522060.53747                  20368076.4224
        29.0004         38.0004
  21216227.8444   -1818773.08647  -1398418.87547                  21216230.3754
        24.5004         36.7504
  23360349.1804   -4138170.42046  -3159473.64545                  23360353.8444
        12.0004          7.7504
                   -526799.625 5   -410492.306 5  23355769.734    23355772.074
        11.250          11.000
  21231963.5164    2384572.60647   1820469.23847                  21231965.8134
        24.5004         38.0004
  22509234.3914   -4327297.51546  -3310195.40546                  22509238.0704
        16.5004         15.0004
 95  4 19 15 59 30.0000000  0  6G18G19G27G28G29G31
  20367853.4224    -683060.36548   -522965.84647                  20367855.4734
        29.2504         38.0004
  21213383.6884   -1833720.71847  -1410066.37247                  21213386.2774
        24.5004         38.0004
  23353662.5004   -4173309.09445  -3186854.41345                  23353667.0944
        11.7504          8.5004
                   -525720.807 5   -409651.663 5  23355974.984    23355977.418
        11.000          11.000
  21236317.2894    2407452.51547   1838297.73247                  21236319.6454
        24.7504         38.7504
  22503096.1884   -4359554.35146  -3335330.57746                  22503099.9144
        17.0004         17.0004
 95  4 19 15 59 45.0000000  0  6G18G19G27G28G29G31
  20367649.0634    -684133.71548   -523802.21747                  20367651.0434
        29.2504         38.7504
  21210539.7194   -1848663.62547  -1421710.19147                  21210542.3094
        24.5004         36.7504
  23346973.6804   -4208457.05445  -3214242.41945                  23346977.2774
        11.7504          9.2504
                   -524535.681 5   -408728.184 5  23356200.453    23356202.910
        11.000          11.000
  21240684.4064    2430402.07147   1856180.49447                  21240686.8324
        24.7504         38.0004
  22496971.3674   -4391738.62946  -3360409.21746                  22496974.7424
        17.0004         17.0004
 95  4 19 16  0  0.0000000  0  6G18G19G27G28G29G31
  20367463.1954    -685109.69948   -524562.72347                  20367465.2934
        29.0004         38.7504
  21207699.1254   -1863591.22847  -1433342.08247                  21207701.8674
        24.2504         36.7504
  23340284.8984   -4243607.66445  -3241632.47045                  23340288.4614
        11.7504          9.2504
                   -523237.322 5   -407716.471 5  23356447.695    23356449.859
        11.250          11.000
  21245066.5164    2453428.50047   1874123.15847                  21245068.8594
        25.0004         38.7504
  22490862.0234   -4423844.36346  -3385426.64746                  22490865.2814
        17.2504         16.5004
 95  4 19 16  0 15.0000000  0  6G18G19G27G28G29G31
  20367296.6414    -685986.00348   -525245.55647                  20367298.7384
        29.2504         38.7504
  21204861.4454   -1878503.83147  -1444962.28547                  21204864.0004
        24.2504         36.0004
  23333595.3984   -4278761.42246  -3269024.99845                  23333599.2304
        12.2504          8.5004
                   -521826.363 5   -406617.017 5  23356716.109    23356718.395
        11.250          11.000
  21249462.9694    2476532.06247   1892125.92747                  21249465.2544
        25.0004         39.2504
  22484766.9534   -4455873.13846  -3410384.11746                  22484769.9184
        16.7504         16.5004
 95  4 19 16  0 30.0000000  0  6G18G19G27G28G29G31
  20367148.8984    -686762.41948   -525850.55447                  20367151.0084
        29.2504         37.2504
  21202026.1334   -1893403.40647  -1456572.33847                  21202028.6414
        24.2504         35.2504
  23326904.0394   -4313924.08846  -3296424.45445                  23326908.1884
        12.0004          8.5004
                   -520304.769 5   -405431.353 5  23357005.594    23357007.844
        11.250          11.000
  21253874.0474    2499713.17147   1910189.12147                  21253876.3094
        25.0004         38.7504
  22478686.8204   -4487824.86746  -3435281.54346                  22478690.1604
        17.0004         17.0004
 95  4 19 16  0 45.0000000  0  6G18G19G27G28G29G31
  20367020.5704    -687436.11648   -526375.51047                  20367022.5744
        29.5004         38.7504
  21199193.7194   -1908287.96047  -1468170.68447                  21199196.2504
        24.2504         36.0004
  23320211.2424   -4349094.46745  -3323829.92345                  23320216.0594
        11.7504          8.5004
                   -518669.302 5   -404156.954 5  23357316.781    23357319.234
        11.250          11.000
  21258300.6484    2522975.52147   1928315.62247                  21258302.9924
        24.7504         39.2504
  22472622.1254   -4519693.93646  -3460114.56846                  22472625.4884
        17.2504         17.0004
 95  4 19 16  1  0.0000000  0  6G18G19G27G28G29G31
  20366911.3834    -688009.67048   -526822.43647                  20366913.4344
        29.2504         38.7504
  21196362.7814   -1923164.00747  -1479762.40047                  21196365.4774
        24.0004         34.7504
  23313516.5394   -4384274.77946  -3351243.13745                  23313521.2974
        12.0004          8.5004
                   -516925.418 5   -402798.082 5  23357648.586    23357651.074
        11.250          11.000
  21262741.8524    2546313.39847   1946500.97147                  21262744.1844
        25.0004         39.2504
  22466572.3364   -4551486.48846  -3484887.96246                  22466575.7584
        17.5004         18.2504
 95  4 19 16  1 15.0000000  0  6G18G19G27G28G29G31
  20366822.1484    -688479.68648   -527188.68047                  20366824.2584
        29.2504         38.7504
  21193533.6644   -1938031.82647  -1491347.70647                  21193536.2424
        24.2504         36.7504
  23306820.5004   -4419463.73046  -3378663.06745                  23306824.5784
        12.2504          9.7504
                   -515071.875 5   -401353.759 5  23358001.469    23358003.824
        11.250          11.250
  21267198.1724    2569730.86447   1964748.34448                  21267200.3634
        25.2504         40.5004
  22460536.7344   -4583203.14546  -3509602.22446                  22460540.2504
        17.2504         17.0004
 95  4 19 16  1 30.0000000  0  6G18G19G27G28G29G31
  20366752.7114    -688844.73248   -527473.13147                  20366754.8554
        29.2504         38.7504
  21190705.6954   -1952892.62447  -1502927.54347                  21190708.3204
        24.0004         36.0004
  23300122.5234   -4454661.18046  -3406089.63645                  23300126.6254
        12.2504          9.7504
                   -513108.775 5   -399824.066 5  23358374.875    23358377.492
        11.250          11.000
  21271670.3134    2593231.57647   1983060.57847                  21271672.5164
        25.5004         39.2504
  22454515.7034   -4614844.29046  -3534257.64046                  22454518.9844
        17.7504         17.0004
 95  4 19 16  1 45.0000000  0  6G18G19G27G28G29G31
  20366704.1724    -689100.36848   -527672.32847                  20366706.2934
        29.0004         38.7504
  21187880.2974   -1967738.05347  -1514495.39747                  21187882.9804
        23.7504         36.0004
  23293424.0004   -4489861.52446  -3433518.44945                  23293428.2894
        12.2504         10.5004
                   -511030.311 5   -398204.479 5  23358770.445    23358772.840
        11.000          11.000
  21276159.3914    2616822.41947   2001443.04247                  21276161.7114
        25.5004         39.2504
  22448510.1954   -4646403.45046  -3558849.17246                  22448513.2074
        17.7504         17.7504
 95  4 19 16  2  0.0000000  0  6G18G19G27G28G29G31
  20366676.1644    -689247.19648   -527786.74147                  20366678.4494
        29.0004         38.0004
  21185059.1484   -1982563.29547  -1526047.52547                  21185061.9024
        23.7504         35.2504
  23286724.6954   -4525067.24346  -3460951.45545                  23286728.5514
        12.7504          9.2504
                   -508835.832 5   -396494.495 5  23359188.078    23359190.281
        11.250          11.000
  21280666.1484    2640505.05647   2019897.03848                  21280668.3404
        25.7504         40.0004
  22442520.6564   -4677879.34546  -3583375.83246                  22442523.8094
        18.0004         17.7504
 95  4 19 16  2 15.0000000  0  6G18G19G27G28G29G31
  20366667.5784    -689291.84348   -527821.53147                  20366669.7114
        29.0004         38.0004
  21182241.1094   -1997374.45147  -1537588.67547                  21182243.8634
        24.0004         36.0004
  23280022.3914   -4560286.70746  -3488395.17645                  23280025.8244
        12.7504          9.7504
                   -506529.682 5   -394697.493 5  23359626.898    23359629.270
        11.250          11.000
  21285189.9774    2664278.39047   2038421.70548                  21285192.1094
        26.0004         40.5004
  22436546.1334   -4709275.10846  -3607840.03646                  22436549.4384
        17.7504         17.7504
 95  4 19 16  2 30.0000000  0  6G18G19G27G28G29G31
  20366677.6954    -689237.80848   -527779.42447                  20366679.8874
        29.2504         38.0004
  21179424.5084   -2012174.87147  -1549121.46447                  21179427.1454
        23.7504         35.2504
  23273317.7584   -4595521.08646  -3515850.50545                  23273322.1174
        12.5004         11.2504
                   -504112.923 5   -392814.299 5  23360086.883    23360089.398
        11.250          11.000
  21289730.8204    2688140.69147   2057015.69948                  21289733.0704
        25.7504         40.5004
  22430586.5164   -4740593.27546  -3632243.78646                  22430589.7974
        18.0004         17.0004
 95  4 19 16  2 45.0000000  0  6G18G19G27G28G29G31
  20366706.8444    -689085.59348   -527660.81747                  20366709.0594
        29.2504         38.0004
  21176610.4774   -2026962.46947  -1560644.25947                  21176613.1724
        23.7504         36.0004
  23266610.0474   -4630768.65646  -3543316.12145                  23266614.3014
        12.5004          9.7504
                   -501584.548 5   -390844.132 5  23360568.008    23360570.410
        11.250          11.250
  21294288.5084    2712091.31947   2075678.51548                  21294290.7344
        25.7504         40.0004
  22424642.1254   -4771831.18746  -3656584.99746                  22424645.1954
        18.0004         18.2504
 95  4 19 16  3  0.0000000  0  6G18G19G27G28G29G31
  20366753.7584    -688837.70248   -527467.65747                  20366755.9494
        28.7504         38.0004
  21173799.1024   -2041736.41847  -1572156.42047                  21173801.9614
        23.7504         35.2504
  23259901.0704   -4666027.97946  -3570790.89245                  23259904.7854
        13.2504         10.5004
                   -498947.176 5   -388789.033 5  23361069.891    23361072.266
        11.250          11.000
  21298862.0784    2736125.90947   2094406.76147                  21298864.3404
        25.7504         38.7504
  22418712.6174   -4802992.57746  -3680866.58346                  22418715.5704
        18.0004         18.2504
 95  4 19 16  3 15.0000000  0  6G18G19G27G28G29G31
  20366819.1414    -688493.42048   -527199.38547                  20366821.3444
        29.0004         37.2504
  21170991.0084   -2056493.18747  -1583655.19447                  21170993.8094
        23.7504         36.0004
  23253189.0234   -4701298.63946  -3598274.51045                  23253192.6334
        13.2504         10.5004
                   -496199.063 5   -386647.646 5  23361592.648    23361595.266
        11.250          11.250
  21303451.7504    2760244.68447   2113200.60248                  21303454.0944
        25.7504         40.0004
  22412797.5164   -4834076.94446  -3705088.15346                  22412800.8554
        18.0004         18.2504
 95  4 19 16  3 30.0000000  0  6G18G19G27G28G29G31
  20366902.4694    -688056.08548   -526858.60247                  20366904.6024
        29.0004         38.7504
  21168186.3834   -2071232.26047  -1595140.18247                  21168189.0204
        23.7504         35.2504
  23246474.4534   -4736584.96146  -3625770.31845                  23246478.2034
        13.5004         10.5004
                   -493341.730 5   -384421.148 5  23362136.469    23362139.168
        11.250          11.250
  21308057.2114    2784445.89847   2132058.68748                  21308059.5314
        25.7504         40.0004
  22406896.6644   -4865083.25246  -3729248.88946                  22406900.1454
        17.7504         18.2504
 95  4 19 16  3 45.0000000  0  6G18G19G27G28G29G31
  20367004.2894    -687520.74048   -526441.45347                  20367006.4694
        29.0004         38.0004
  21165386.6094   -2085945.17847  -1606604.78147                  21165389.3754
        23.7504         34.7504
  23239757.9924   -4771880.06046  -3653272.96045                  23239761.9884
        13.2504          9.7504
                   -490369.505 5   -382105.125 5  23362702.063    23362704.672
        11.000          11.500
  21312679.1724    2808733.88147   2150984.38048                  21312681.4344
        26.0004         40.0004
  22401012.8364   -4896002.56446  -3753341.84346                  22401016.3524
        18.0004         20.2504
 95  4 19 16  4  0.0000000  0  6G18G19G27G28G29G31
  20367124.9844    -686887.97648   -525948.39047                  20367127.1884
        29.0004         38.0004
  21162591.6174   -2100631.51247  -1618048.67347                  21162594.3834
        23.5004         35.2504
  23233039.4064   -4807184.93546  -3680783.22745                  23233043.2274
        13.2504          9.7504
                   -487282.887 5   -379699.973 5  23363289.445    23363292.051
        11.500          11.500
  21317317.0234    2833106.59347   2169976.09648                  21317319.2034
        26.0004         40.0004
  22395145.4534   -4926834.45046  -3777366.67546                  22395148.7464
        17.7504         17.7504
 95  4 19 16  4 15.0000000  0  6G18G19G27G28G29G31
  20367263.8914    -686157.37948   -525379.09447                  20367266.1994
        28.5004         36.0004
  21159800.7584   -2115296.69647  -1629476.08147                  21159803.5354
        23.5004         34.0004
  23226319.6024   -4842499.48646  -3708301.04945                  23226323.7034
        13.0004          9.7504
                   -484083.152 5   -377206.671 5  23363898.500    23363900.918
        11.500          11.250
  21321970.7584    2857562.66447   2189032.76447                  21321972.9964
        25.5004         39.2504
  22389295.3524   -4957578.90046  -3801323.37046                  22389298.4924
        18.0004         19.0004
 95  4 19 16  4 30.0000000  0  6G18G19G27G28G29G31
  20367421.7194    -685328.69348   -524733.36347                  20367423.9344
        28.7504         38.7504
  21157013.6644   -2129945.02147  -1640890.35447                  21157016.4184
        23.7504         34.7504
  23219597.6644   -4877822.24846  -3735825.25245                  23219601.8364
        13.2504          9.2504
                   -480772.087 5   -374626.620 5  23364528.359    23364531.020
        11.500          11.250
  21326640.0234    2882097.86947   2208151.10447                  21326642.2504
        25.7504         39.2504
  22383460.8444   -4988239.30246  -3825214.58546                  22383463.9964
        18.0004         19.0004
 95  4 19 16  4 45.0000000  0  6G18G19G27G28G29G31
  20367598.6254    -684398.74748   -524008.73147                  20367600.8634
        29.0004         36.7504
  21154229.6884   -2144574.69147  -1652290.08747                  21154232.4304
        23.7504         35.2504
  23212874.7344   -4913150.91946  -3763354.05545                  23212878.7894
        13.2504          9.2504
                   -477348.551 5   -371958.931 5  23365179.875    23365182.520
        11.250          11.500
  21331323.7814    2906711.22347   2227330.33248                  21331326.0314
        26.0004         40.0004
  22377643.0634   -5018813.40646  -3849038.54146                  22377646.2734
        18.2504         19.0004
 95  4 19 16  5  0.0000000  0  6G18G19G27G28G29G31
  20367795.1254    -683366.40748   -523204.30747                  20367797.4104
        29.0004         38.0004
  21151449.2424   -2159186.01247  -1663675.52947                  21151451.8914
        24.0004         35.2504
  23206150.7424   -4948486.17046  -3790888.00545                  23206154.1414
        13.0004         10.5004
                   -473813.618 5   -369204.440 5  23365852.539    23365855.320
        11.250          11.500
  21336022.1954    2931403.24047   2246570.85547                  21336024.4574
        25.5004         38.7504
  22371841.6174   -5049299.72346  -3872794.09946                  22371844.7584
        18.2504         20.2504
 95  4 19 16  5 15.0000000  0  6G18G19G27G28G29G31
  20368011.7424    -682228.39248   -522317.54547                  20368014.0744
        29.0004         38.0004
  21148672.2584   -2173778.87347  -1675046.58247                  21148674.9414
        24.2504         35.2504
  23199425.7194   -4983826.12546  -3818425.60545                  23199429.7734
        13.0004          9.2504
                   -470165.690 5   -366361.902 5  23366546.844    23366549.336
        11.500          11.250
  21340736.7814    2956177.66447   2265875.59347                  21340739.1724
        25.5004         39.2504
  22366057.1254   -5079697.27346  -3896480.48446                  22366060.0904
        18.2504         19.7504
 95  4 19 16  5 30.0000000  0  6G18G19G27G28G29G31
  20368248.7814    -680981.94748   -521346.28747                  20368250.9264
        29.0004         36.7504
  21145899.3134   -2188351.87747  -1686402.16647                  21145902.0204
        24.2504         36.0004
  23192699.9844   -5019167.89246  -3845964.62145                  23192704.5434
        12.5004          9.7504
                   -466401.840 5   -363429.030 5  23367262.984    23367265.535
        11.000          11.250
  21345467.6414    2981038.43047   2285247.60647                  21345470.0554
        25.2504         38.7504
  22360290.4224   -5110002.14146  -3920094.65546                  22360293.4804
        18.2504         19.0004
 95  4 19 16  5 45.0000000  0  6G18G19G27G28G29G31
  20368505.6884    -679632.33648   -520294.64747                  20368507.9024
        29.0004         37.2504
  21143128.0554   -2202914.16447  -1697749.39547                  21143130.6454
        24.2504         36.7504
  23185973.3914   -5054517.55846  -3873509.79245                  23185977.5514
        13.2504         11.2504
                   -462529.369 5   -360411.526 5  23367999.797    23368002.461
        11.000          11.500
  21350213.2734    3005977.60247   2304680.71847                  21350215.5124
        25.7504         38.7504
  22354539.8834   -5140220.82646  -3943641.66946                  22354543.0234
        18.2504         20.2504
 95  4 19 16  6  0.0000000  0  6G18G19G27G28G29G31
  20368782.9064    -678175.40548   -519159.37747                  20368785.1214
        29.0004         38.7504
  21140359.5164   -2217463.71747  -1709086.70547                  21140362.1524
        24.5004         36.7504
  23179245.9454   -5089871.12346  -3901057.99945                  23179249.6604
        13.2504          9.2504
                   -458544.441 5   -357306.390 5  23368758.242    23368760.836
        11.250          11.500
  21354974.6724    3030997.00947   2324176.35547                  21354977.0274
        25.5004         39.2504
  22348806.3594   -5170352.39346  -3967120.79146                  22348809.1954
        18.7504         19.0004
 95  4 19 16  6 15.0000000  0  6G18G19G27G28G29G31
  20369080.6254    -676611.42048   -517940.68947                  20369082.8404
        28.7504         37.2504
  21137593.0004   -2232001.64147  -1720414.94947                  21137595.7074
        24.5004         36.7504
  23172517.4774   -5125230.33546  -3928610.60145                  23172521.4144
        13.5004          9.7504
                   -454446.489 5   -354113.184 5  23369538.063    23369540.621
        11.250          11.500
  21359750.5784    3056095.85447   2343733.88547                  21359752.8054
        25.5004         38.7504
  22343088.3674   -5200397.68046  -3990532.69146                  22343091.4024
        18.5004         20.2504
 95  4 19 16  6 30.0000000  0  7G 2G18G19G27G28G29G31
  24566896.539      -34137.98115
         7.750
  20369399.0944    -674938.04248   -516636.76447                  20369401.1914
        29.0004         36.7504
  21134829.5864   -2246523.74847  -1731730.87647                  21134832.2704
        24.7504         36.7504
  23165788.0394   -5160593.18946  -3956166.05845                  23165791.7774
        13.5004         11.2504
                   -450231.921 5   -350829.112 5  23370339.938    23370342.664
        11.000          11.500
  21364542.4924    3081277.35647   2363355.82347                  21364544.5314
        25.5004         38.7504
  22337387.7194   -5230356.39246  -4013877.12746                  22337390.8134
        18.5004         19.7504
 95  4 19 16  6 45.0000000  0  7G 2G18G19G27G28G29G31
  24558039.9454     -80680.99345
         7.7504
  20369737.2974    -673159.67848   -515251.03047                  20369739.4304
        28.7504         37.2504
  21132068.5314   -2261031.39947  -1743035.53147                  21132071.3794
        24.5004         37.2504
  23159057.6644   -5195962.01146  -3983726.14845                  23159061.2154
        13.5004         10.5004
                   -445902.990 5   -347455.926 5  23371163.922    23371166.516
        11.000          11.500
  21369349.5554    3106539.20347   2383040.37347                  21369351.6644
        25.2504         38.0004
  22331702.5314   -5260231.65146  -4037156.53546                  22331705.7074
        18.2504         19.7504
 95  4 19 16  7  0.0000000  0  7G 2G18G19G27G28G29G31
  24549185.8204    -127209.98645
         7.5004
  20370095.5314    -671277.56248   -513784.44847                  20370097.7234
        28.7504         37.2504
  21129310.7664   -2275524.73647  -1754329.04047                  21129313.3794
        25.0004         37.2504
  23152325.7034   -5231339.20046  -4011292.76845                  23152328.9734
        13.7504         10.5004
                   -441460.658 5   -343994.372 5  23372009.086    23372011.785
        11.000          11.250
  21374171.8054    3131879.69147   2402786.19647                  21374173.9614
        25.2504         38.0004
  22326033.6724   -5290022.18746  -4060369.92546                  22326036.7074
        18.5004         19.7504
 95  4 19 16  7 15.0000000  0  7G 2G18G19G27G28G29G31
  24540335.5864    -173715.27945    -26569.86053                  24540340.6024
         7.5004          3.2504
  20370474.8984    -669285.18348   -512231.95147                  20370477.0904
        29.0004         37.2504
  21126557.1644   -2289995.05547  -1765604.60547                  21126559.6844
        25.0004         38.0004
  23145593.2274   -5266717.30646  -4038860.10445                  23145596.9184
        13.7504         11.2504
                   -436896.692 5   -340438.039 5  23372877.656    23372880.066
        11.250          11.000
  21379010.6174    3157307.27247   2422599.88447                  21379012.8204
        25.2504         38.0004
  22320382.2974   -5319719.83646  -4083510.93946                  22320385.3914
        18.5004         19.7504
 95  4 19 16  7 30.0000000  0  7G 2G18G19G27G28G29G31
  24531490.7814    -220195.77245    -62788.36044                  24531496.1724
         7.7504          4.0004
  20370874.4384    -667183.35448   -510594.16547                  20370876.6054
        28.7504         38.0004
  21123807.9304   -2304442.47647  -1776862.33347                  21123810.5204
        25.0004         38.0004
  23138861.1884   -5302096.97146  -4066428.64945                  23138864.7154
        13.7504         11.2504
                   -432210.358 5   -336786.358 5  23373769.414    23373771.926
        11.250          11.000
  21383865.3524    3182818.67547   2442478.88647                  21383867.6484
        25.2504         38.0004
  22314748.8134   -5349323.68346  -4106578.85546                  22314751.7664
        18.7504         20.2504
 95  4 19 16  7 45.0000000  0  7G 2G18G19G27G28G29G31
  24522646.9454    -266670.17745    -99002.14943                  24522652.9694
         7.5004          3.2504
  20371291.2194    -664993.94948   -508888.13747                  20371293.1414
        28.7504         38.7504
  21121059.3524   -2318887.16347  -1788117.92847                  21121061.9304
        25.0004         38.0004
  23132123.9774   -5337499.42546  -4094014.96045                  23132127.1174
        13.7504         10.5004
                   -427421.987 5   -333055.166 5  23374680.703    23374683.234
        11.250          11.000
  21388732.1644    3208394.50147   2462408.09047                  21388734.3444
        25.7504         37.2504
  22309129.7584   -5378852.30046  -4129588.15746                  22309132.5824
        19.0004         19.7504
 95  4 19 16  8  0.0000000  0  7G 2G18G19G27G28G29G31
  24513806.0704    -313127.05345   -135202.25044                  24513811.7774
         7.7504          4.0004
  20371726.6884    -662706.26448   -507105.52747                  20371728.7274
        28.7504         36.7504
  21118313.3054   -2333316.79647  -1799361.79547                  21118315.8014
        25.2504         37.2504
  23125384.1564   -5372915.24946  -4121611.68145                  23125387.9534
        13.2504         10.5004
                   -422520.563 5   -329235.880 5  23375613.422    23375615.965
        11.250          11.000
  21393613.8364    3234046.73047   2482396.82947                  21393615.9574
        25.7504         36.7504
  22303527.5314   -5408292.84546  -4152528.83146                  22303530.3674
        18.7504         19.7504
 95  4 19 16  8 15.0000000  0  7G 2G18G19G27G28G29G31
  24504969.4614    -359565.17645   -171387.73543                  24504975.0044
         8.0004          3.2504
  20372180.2274    -660322.14848   -505247.77647                  20372182.3834
        28.7504         37.2504
  21115570.6414   -2347729.51347  -1810592.47647                  21115573.0904
        25.0004         38.7504
  23118641.9534   -5408344.17646  -4149218.60945                  23118645.7274
        13.2504         10.5004
                   -417505.046 5   -325327.691 5  23376567.789    23376570.402
        11.250          11.000
  21398510.3754    3259779.17547   2502448.07447                  21398512.3914
        25.5004         38.0004
  22297942.5864   -5437641.90846  -4175398.21046                  22297945.7154
        19.0004         20.2504
 95  4 19 16  8 30.0000000  0  7G 2G18G19G27G28G29G31
  24496136.8594    -405984.47845   -207558.58945                  24496142.3324
         8.2504          4.5004
  20372652.3444    -657841.22748   -503314.59247                  20372654.5944
        28.5004         38.7504
  21112831.7034   -2362124.14247  -1821809.06747                  21112834.2114
        25.2504         38.0004
  23111898.4144   -5443784.60646  -4176834.49845                  23111902.3524
        13.7504         10.5004
                   -412376.534 5   -321331.450 5  23377543.867    23377546.375
        11.500          11.000
  21403422.5084    3285591.84747   2522561.83347                  21403424.6644
        25.7504         38.0004
  22292374.9694   -5466900.30646  -4198196.95746                  22292378.0164
        19.0004         21.0004
 95  4 19 16  8 45.0000000  0  7G 2G18G19G27G28G29G31
  24487307.2814    -452380.48545   -243711.25343                  24487313.0594
         8.0004          3.2504
  20373143.5234    -655261.62748   -501304.51947                  20373145.7154
        29.0004         38.0004
  21110096.0004   -2376500.41447  -1833011.35347                  21110098.5204
        25.5004         38.0004
  23105152.2974   -5479234.15346  -4204457.50345                  23105155.4964
        13.2504         11.2504
                   -407133.850 5   -317246.250 5  23378541.383    23378543.969
        11.250          11.000
  21408350.0164    3311486.11547   2542739.17547                  21408352.1484
        25.2504         36.0004
  22286824.8364   -5496066.00046  -4220923.45346                  22286828.1294
        19.0004         19.7504
 95  4 19 16  9  0.0000000  0  7G 2G18G19G27G28G29G31
  24478483.0944    -498751.76945   -279844.67344                  24478489.3164
         8.2504          4.0004
  20373653.4224    -652581.18548   -499215.86547                  20373655.5084
        29.0004         38.0004
  21107363.9614   -2390856.30647  -1844197.75948                  21107366.4224
        25.5004         40.0004
  23098404.9924   -5514693.01946  -4232087.76545                  23098408.8484
        13.5004         11.2504
                   -401777.034 5   -313072.115 5  23379560.805    23379563.441
        11.250          11.000
  21413293.3834    3337463.85347   2562981.55747                  21413295.4104
        25.2504         36.7504
  22281293.3834   -5525133.69346  -4243573.59446                  22281296.3364
        18.7504         21.0004
 95  4 19 16  9 15.0000000  0  7G 2G18G19G27G28G29G31
  24469664.4224    -545093.18845   -315954.81745                  24469670.0944
         8.2504          4.5004
  20374183.6564    -649795.85248   -497045.47747                  20374185.8134
        28.5004         38.0004
  21104637.6564   -2405184.92447  -1855362.91247                  21104640.2934
        25.5004         39.2504
  23091656.3674   -5550156.11146  -4259721.32045                  23091659.8014
        13.7504         11.7504
                   -396301.672 5   -308805.603 5  23380602.719    23380605.367
        11.250          11.000
  21418253.8524    3363532.32747   2583294.64147                  21418255.8554
        25.0004         36.0004
  22275781.4534   -5554098.01546  -4266143.17846                  22275784.6054
        18.5004         19.7504
 95  4 19 16  9 30.0000000  0  7G 2G18G19G27G28G29G31
  24460850.3594    -591411.02645   -352046.57944                  24460855.9614
         8.2504          4.0004
  20374732.3754    -646910.92648   -494797.48547                  20374734.5204
        28.7504         38.0004
  21101915.1484   -2419491.71147  -1866511.05148                  21101917.6564
        26.0004         40.0004
  23084906.4224   -5585627.16346  -4287361.08445                  23084910.0554
        13.7504         11.2504
                   -390713.285 5   -304451.021 5  23381666.266    23381668.723
        11.250          10.750
  21423230.9304    3389686.27847   2603674.33447                  21423233.1334
        24.7504         35.2504
  22270288.2974   -5582966.06546  -4288637.75046                  22270291.4144
        19.0004         20.2504
 95  4 19 16  9 45.0000000  0  7G 2G18G19G27G28G29G31
  24452040.3754    -637705.30445   -388120.00945                  24452045.8364
         8.2504          4.5004
  20375301.0234    -643923.01148   -492469.24047                  20375303.3324
        28.5004         37.2504
  21099197.0474   -2433774.80847  -1877640.73447                  21099199.4614
        26.0004         39.2504
  23078155.5784   -5621103.00246  -4315004.57345                  23078159.4344
        13.7504         11.2504
                   -385010.151 5   -300007.024 5  23382751.383    23382753.898
        11.000          11.000
  21428224.8134    3415929.17447   2624123.33347                  21428226.9694
        24.7504         35.2504
  22264812.8834   -5611736.73246  -4311056.43746                  22264816.0474
        18.7504         19.7504
 95  4 19 16 10  0.0000000  0  7G 2G18G19G27G28G29G31
  24443236.2424    -683975.97545   -424175.01245                  24443241.9384
         8.2504          4.5004
  20375889.3674    -640830.79448   -490059.72147                  20375891.5124
        28.5004         38.0004
  21096484.3204   -2448030.37347  -1888748.96247                  21096486.7704
        26.0004         39.2504
  23071404.4384   -5656580.87646  -4342649.64945                  23071408.2114
        13.7504         10.5004
                   -379191.125 5   -295472.727 5  23383858.727    23383861.188
        11.250          10.750
  21433236.1644    3442264.53347   2644644.38647                  21433238.2854
        24.7504         36.0004
  22259356.6484   -5640411.09846  -4333400.08446                  22259359.9184
        18.7504         20.2504
 95  4 19 16 10 15.0000000  0  7G 2G18G19G27G28G29G31
  24434434.8054    -730222.07145   -460210.88444                  24434440.2664
         8.0004          4.0004
  20376498.2034    -637631.49948   -487566.76847                  20376500.3594
        28.5004         37.2504
  21093776.8594   -2462258.38847  -1899835.72447                  21093779.3554
        26.0004         39.2504
  23064653.2894   -5692059.23346  -4370295.10745                  23064657.2504
        13.7504         11.2504
                   -373255.564 5   -290847.620 5  23384988.320    23384990.602
        11.250          10.750
  21438265.1254    3468691.18647   2665236.57247                  21438267.2704
        24.7504         35.2504
  22253918.2274   -5668990.79146  -4355669.96146                  22253921.4264
        18.7504         20.2504
 95  4 19 16 10 30.0000000  0  7G 2G18G19G27G28G29G31
  24425640.0084    -776440.97545   -496225.56843                  24425645.5634
         8.2504          3.2504
  20377127.0704    -634327.04448   -484991.86947                  20377129.2504
        28.5004         38.0004
  21091074.2424   -2476460.35647  -1910902.19048                  21091076.7974
        26.0004         40.0004
  23057902.1484   -5727536.73046  -4397939.88245                  23057905.4414
        14.0004         11.2504
                   -367204.379 5   -286132.416 5  23386139.625    23386142.137
        11.000          10.750
  21443310.8914    3495206.51747   2685897.86147                  21443312.9414
        24.7504         35.2504
  22248496.8284   -5697479.47946  -4377868.93046                  22248499.9224
        18.7504         20.2504
 95  4 19 16 10 45.0000000  0  7G 2G18G19G27G28G29G31
  24416850.0164    -822632.53945   -532218.94745                  24416854.9144
         8.5004          4.5004
  20377776.1724    -630915.96348   -482333.88847                  20377778.3164
        28.5004         38.0004
  21088376.5234   -2490637.42347  -1921949.24748                  21088379.0664
        26.0004         40.5004
  23051150.5704   -5763015.01746  -4425585.28445                  23051154.2384
        14.0004         11.7504
                   -361037.867 5   -281327.344 5  23387313.297    23387315.723
        11.000          10.750
  21448372.7894    3521808.21847   2706626.45047                  21448374.9344
        24.2504         35.2504
  22243092.7664   -5725877.24846  -4399997.04446                  22243095.8244
        18.7504         20.2504
 95  4 19 16 11  0.0000000  0  7G 2G18G19G27G28G29G31
  24408065.2584    -868799.08045   -568192.82944                  24408070.6024
         8.5004          4.0004
  20378445.1484    -627399.50148   -479593.78847                  20378447.3164
        28.2504         38.0004
  21085683.3674   -2504790.14847  -1932977.34148                  21085685.7934
        26.2504         40.5004
  23044398.5234   -5798496.95646  -4453233.53245                  23044401.9804
        13.7504          9.7504
                   -354756.871 5   -276433.067 5  23388508.539    23388510.984
        11.000          10.750
  21453451.7664    3548496.64547   2727422.61947                  21453453.6884
        24.5004         35.2504
  22237707.1564   -5754180.25846  -4422051.32446                  22237710.3554
        18.7504         21.0004
 95  4 19 16 11 15.0000000  0  7G 2G18G19G27G28G29G31
  24399283.6884    -914941.76445   -604148.14544                  24399289.3364
         8.2504          4.0004
  20379134.8754    -623775.65948   -476770.01747                  20379136.9614
        28.2504         37.2504
  21082995.1334   -2518915.62147  -1943984.19948                  21082997.4654
        26.0004         40.0004
  23037646.2894   -5833980.47146  -4480883.00345                  23037650.4964
        13.7504         11.7504
                   -348360.043 5   -271448.526 5  23389725.844    23389728.332
        11.250          10.750
  21458546.6724    3575271.44347   2748286.09247                  21458548.7234
        24.5004         34.7504
  22232339.7114   -5782386.33046  -4444030.07446                  22232342.7704
        18.7504         21.0004
 95  4 19 16 11 30.0000000  0  7G 2G18G19G27G28G29G31
  24390508.9384    -961057.60845   -640082.48544                  24390514.8204
         8.2504          4.0004
  20379845.0164    -620042.60348   -473861.14847                  20379847.2304
        28.0004         37.2504
  21080312.4064   -2533014.30647  -1954970.18148                  21080314.7274
        26.2504         40.5004
  23030894.5864   -5869462.79646  -4508531.54845                  23030898.4774
        14.2504         11.7504
                   -341845.270 5   -266372.088 5  23390965.531    23390968.152
        11.000          10.750
  21463657.7034    3602130.75047   2769215.41047                  21463659.8834
        24.2504         34.7504
  22226990.4224   -5810495.87846  -4465933.60346                  22226993.6334
        18.7504         21.5004
 95  4 19 16 11 45.0000000  0  7G 2G18G19G27G28G29G31
  24381737.7424   -1007148.93145   -675997.74844                  24381742.8634
         8.2504          4.0004
  20380576.1644    -616201.65747   -470868.20647                  20380578.4844
        27.7504         37.2504
  21077633.4774   -2547091.46247  -1965939.38448                  21077635.8914
        26.0004         40.5004
  23024141.6644   -5904949.02946  -4536183.13846                  23024145.2384
        14.2504         12.5004
                   -335215.946 5   -261206.383 5  23392226.977    23392229.668
        11.000          11.000
  21468784.0394    3629069.36447   2790206.52947                  21468786.2544
        24.0004         33.5004
  22221658.9924   -5838513.18746  -4487765.25346                  22221662.2624
        18.7504         21.0004
 95  4 19 16 12  0.0000000  0  7G 2G18G19G27G28G29G31
  24372972.0394   -1053212.26945   -711891.21445                  24372977.5354
         8.5004          4.5004
  20381327.3914    -612254.14047   -467792.22447                  20381329.6884
        27.7504         36.7504
  21074958.9694   -2561147.02247  -1976891.76148                  21074961.3014
        26.0004         40.5004
  23017387.9144   -5940438.05646  -4563836.90645                  23017391.1954
        14.0004         11.7504
                   -328469.959 5   -255949.774 5  23393510.820    23393513.395
        11.000          10.750
  21473925.8594    3656090.64447   2811262.06547                  21473928.1094
        23.7504         34.0004
  22216345.8444   -5866434.21546  -4509521.88246                  22216349.0664
        18.7504         19.7504
 95  4 19 16 12 15.0000000  0  7G 2G18G19G27G28G29G31
  24364212.2344   -1099246.01245   -747761.61945                  24364217.3554
         8.0004          5.2504
  20382098.3364    -608202.74747   -464635.30247                  20382100.4804
        27.7504         36.7504
  21072287.4304   -2575185.20347  -1987830.59748                  21072289.7504
        26.2504         40.5004
  23010633.8524   -5975932.59446  -4591494.96945                  23010637.7074
        14.0004         11.2504
                   -321608.763 5   -250603.389 5  23394816.328    23394819.023
        11.000          10.750
  21479083.0234    3683191.06147   2832379.26447                  21479085.4024
        23.7504         33.5004
  22211051.1254   -5894257.99846  -4531202.74046                  22211054.3954
        18.7504         20.2504
 95  4 19 16 12 30.0000000  0  7G 2G18G19G27G28G29G31
  24355457.8674   -1145250.44545   -783609.19044                  24355463.6684
         8.2504          4.0004
  20382888.9064    -604048.65948   -461398.35447                  20382891.2274
        28.0004         37.2504
  21069619.0784   -2589208.53647  -1998757.86348                  21069621.3524
        26.0004         41.2504
  23003878.1254   -6011433.72346  -4619158.17445                  23003881.8984
        14.2504         11.2504
                   -314632.349 5   -245167.223 5  23396143.844    23396146.449
        11.000          10.750
  21484254.5554    3710368.91947   2853556.80847                  21484256.8054
        23.7504         32.7504
  22205775.6724   -5921980.57946  -4552804.73346                  22205778.9884
        18.5004         20.2504
 95  4 19 16 12 45.0000000  0  7G 2G18G19G27G28G29G31
  24346709.2664   -1191225.62245   -819433.93344                  24346715.1484
         8.5004          4.0004
  20383699.2194    -599789.49848   -458079.53147                  20383701.4454
        28.0004         37.2504
  21066953.4614   -2603215.43547  -2009672.32348                  21066955.9104
        25.7504         41.2504
  22997121.1804   -6046942.38846  -4646827.24146                  22997124.2854
        14.7504         12.5004
                   -307539.212 5   -239640.106 5  23397493.781    23397496.313
        11.000          10.750
  21489441.6954    3737626.52747   2874796.49647                  21489443.9224
        23.7504         34.0004
  22200520.2814   -5949598.36646  -4574325.07546                  22200523.7274
        18.5004         21.0004
 95  4 19 16 13  0.0000000  0  7G 2G18G19G27G28G29G31
  24337966.5394   -1237166.60145   -855232.06545                  24337972.1054
         8.2504          4.5004
  20384531.7274    -595415.28647   -454671.06047                  20384533.9654
        27.7504         36.7504
  21064292.5084   -2617199.23047  -2020568.77848                  21064294.9924
        26.0004         41.2504
  22990363.9844   -6082450.94246  -4674496.22345                  22990367.3834
        14.2504         11.7504
                   -300321.849 5   -234016.188 5  23398867.133    23398869.699
        11.000          11.000
  21494645.6094    3764971.96947   2896104.62247                  21494647.8834
        23.7504         33.5004
  22195286.3754   -5977102.50546  -4595756.85546                  22195289.5634
        18.7504         21.5004
 95  4 19 16 13 15.0000000  0  7G 2G18G19G27G28G29G31
  24329229.4384   -1283082.77045   -891010.86845                  24329235.4844
         8.5004          4.5004
  20385383.8204    -590937.77847   -451182.09947                  20385386.0234
        27.7504         37.2504
  21061634.0004   -2631169.48447  -2031454.68148                  21061636.4614
        25.7504         42.0004
  22983605.5234   -6117966.76346  -4702170.87046                  22983608.7464
        14.2504         12.5004
                   -292989.503 5   -228302.671 5  23400262.547    23400265.082
        11.000          10.750
  21499864.1484    3792395.55147   2917473.63747                  21499866.2704
        23.7504         33.5004
  22190071.7274   -6004505.77146  -4617110.03146                  22190075.0784
        18.5004         21.0004
 95  4 19 16 13 30.0000000  0  7G 2G18G19G27G28G29G31
  24320496.2034   -1328974.45845   -926770.56944                  24320501.8164
         8.2504          4.0004
  20386255.1334    -586359.13047   -447614.32347                  20386257.3594
        27.7504         37.2504
  21058977.5554   -2645130.23447  -2042333.18148                  21058980.0044
        25.7504         42.5004
  22976845.3984   -6153490.34746  -4729851.56546                  22976849.2774
        14.2504         12.5004
                   -285544.173 5   -222501.115 5  23401679.266    23401681.727
        11.000          10.750
  21505097.1174    3819895.13547   2938901.87247                  21505099.3204
        23.5004         32.7504
  22184874.8444   -6031814.22846  -4638389.33346                  22184878.3364
        18.5004         21.0004
 95  4 19 16 13 45.0000000  0  7G 2G18G19G27G28G29G31
  24311769.4534   -1374837.37745   -962507.85144                  24311775.2774
         8.7504          4.0004
  20387146.0864    -581676.73747   -443965.71247                  20387148.3484
        27.7504         36.7504
  21056323.4614   -2659078.34347  -2053201.82848                  21056325.9104
        26.0004         41.2504
  22970084.5164   -6189018.23046  -4757535.60645                  22970088.6644
        14.0004         11.7504
                   -277981.217 5   -216607.899 5  23403118.555    23403120.969
        11.000          10.750
  21510345.9844    3847478.53247   2960395.41947                  21510348.1884
        23.5004         33.5004
  22179697.1644   -6059024.24546  -4659591.93046                  22179700.4694
        18.7504         21.0004
 95  4 19 16 14  0.0000000  0  7G 2G18G19G27G28G29G31
  24303047.7114   -1420669.95545   -998221.52845                  24303053.5354
         8.5004          4.5004
  20388057.3134    -576888.42747   -440234.56547                  20388059.7274
        27.7504         36.7504
  21053671.8364   -2673011.52147  -2064058.84648                  21053674.2624
        26.0004         42.5004
  22963323.9384   -6224546.66246  -4785220.07745                  22963327.8164
        14.2504         11.7504
                   -270298.340 5   -210621.236 5  23404580.383    23404582.977
        11.000          10.750
  21515611.8524    3875150.75647   2981958.18047                  21515613.8674
        23.5004         32.7504
  22174538.4534   -6086131.93146  -4680714.78846                  22174541.6764
        18.5004         21.0004
 95  4 19 16 14 15.0000000  0  7G 2G18G19G27G28G29G31
  24294330.7344   -1466475.24545  -1033913.91244                  24294336.3134
         8.2504          4.0004
  20388988.5784    -571995.15147   -436421.62647                  20388990.8524
        27.7504         37.2504
  21051022.9924   -2686930.59647  -2074904.87448                  21051025.3364
        25.7504         42.0004
  22956562.2974   -6260079.10846  -4812907.67945                  22956566.1524
        14.2504         11.7504
                   -262498.239 5   -204543.235 5  23406064.688    23406067.355
        11.000          10.750
  21520893.5554    3902906.11147   3003585.71647                  21520895.7934
        23.0004         32.7504
  22169399.4144   -6113138.34446  -4701758.72946                  22169402.7304
        18.5004         22.2504
 95  4 19 16 14 30.0000000  0  7G 2G18G19G27G28G29G31
  24285618.3364   -1512254.68545  -1069586.15545                  24285624.5234
         8.5004          4.5004
  20389940.6484    -566991.19747   -432522.44947                  20389942.9454
        27.7504         36.0004
  21048377.6414   -2700832.47947  -2085737.50348                  21048380.0664
        25.7504         40.5004
  22949799.7344   -6295614.88146  -4840597.86746                  22949803.6954
        14.0004         12.5004
                   -254580.856 5   -198373.842 5  23407571.320    23407573.992
        10.750          10.750
  21526190.7274    3930743.45347   3025277.13947                  21526192.9774
        23.2504         32.7504
  22164279.2664   -6140044.90846  -4722724.86946                  22164282.5234
        18.7504         21.5004
 95  4 19 16 14 45.0000000  0  7G 2G18G19G27G28G29G31
  24276912.7504   -1558008.72345  -1105238.60545                  24276918.1174
         8.5004          4.5004
  20390914.3914    -561874.69447   -428535.56747                  20390916.7934
        27.5004         36.0004
  21045735.7194   -2714715.01447  -2096555.05748                  21045738.2624
        25.2504         41.2504
  22943037.3834   -6331153.70246  -4868290.43445                  22943040.8754
        14.0004         11.7504
                   -246547.203 5   -192113.851 5  23409100.016    23409102.730
        11.000          11.000
  21531503.6254    3958662.79347   3047032.45547                  21531505.9224
        23.2504         32.0004
  22159177.5864   -6166854.35046  -4743615.32246                  22159180.7034
        18.2504         21.0004
 95  4 19 16 15  0.0000000  0  7G 2G18G19G27G28G29G31
  24268210.9924   -1603734.68745  -1140869.18545                  24268216.5594
         8.7504          4.5004
  20391909.5784    -556644.45947   -424460.06547                  20391911.7464
        27.5004         37.2504
  21043098.2814   -2728575.79647  -2107355.66448                  21043100.7664
        25.7504         41.2504
  22936274.0784   -6366693.11946  -4895983.46446                  22936277.6414
        14.2504         12.5004
                   -238396.093 5   -185762.336 5  23410651.133    23410653.770
        11.000          11.000
  21536832.0474    3986664.52947   3068851.98247                  21536834.3674
        22.7504         32.0004
  22154094.6334   -6193566.09546  -4764429.65546                  22154097.8674
        18.2504         22.2504
 95  4 19 16 15 15.0000000  0  7G 2G18G19G27G28G29G31
  24259515.7894   -1649428.15845  -1176474.45245                  24259521.3914
         8.5004          5.2504
  20392926.2034    -551302.23147   -420297.29647                  20392928.4774
        27.5004         36.7504
  21040465.3054   -2742412.68347  -2118137.64348                  21040467.8134
        25.7504         41.2504
  22929511.6174   -6402231.43246  -4923675.63246                  22929515.1804
        14.2504         12.5004
                   -230125.298 5   -179317.555 5  23412225.273    23412227.832
        11.000          11.000
  21542176.4144    4014749.13347   3090736.08147                  21542178.7704
        22.7504         31.5004
  22149030.2034   -6220179.07546  -4785167.02646                  22149033.1454
        18.5004         21.5004
 95  4 19 16 15 30.0000000  0  7G 2G18G19G27G28G29G31
  24250826.0634   -1695091.41645  -1212056.13444                  24250832.5554
         8.7504          4.0004
  20393963.3204    -545852.22547   -416050.54547                  20393965.4884
        27.5004         36.7504
  21037836.0314   -2756229.32247  -2128903.85148                  21037838.4454
        25.7504         41.2504
  22922748.2894   -6437772.98346  -4951370.32846                  22922752.1454
        14.2504         13.0004
                   -221738.467 5   -172782.362 5  23413821.055    23413823.719
        11.000          11.000
  21547536.3674    4042913.71447   3112682.49447                  21547538.6054
        23.0004         30.7504
  22143984.6254   -6246693.29146  -4805827.43746                  22143988.0594
        18.2504         20.2504
 95  4 19 16 15 45.0000000  0  7G 2G18G19G27G28G29G31
  24242142.4144   -1740723.37045  -1247613.49245                  24242147.8984
         9.0004          5.2504
  20395021.6254    -540291.23447   -411717.30847                  20395023.9804
        27.5004         36.0004
  21035211.3284   -2770022.16547  -2139651.51548                  21035213.7304
        25.5004         40.5004
  22915984.0164   -6473317.89846  -4979067.64445                  22915988.0824
        14.0004         11.7504
                   -213234.294 5   -166155.725 5  23415439.242    23415441.910
        11.000          10.750
  21552911.2584    4071160.60747   3134693.04447                  21552913.5434
        22.7504         31.5004
  22138959.0164   -6273103.12646  -4826406.51046                  22138962.2504
        18.5004         22.2504
 95  4 19 16 16  0.0000000  0  7G 2G18G19G27G28G29G31
  24233464.1644   -1786328.15545  -1283149.64545                  24233470.0594
         9.2504          5.2504
  20396100.2504    -534622.29347   -407299.95447                  20396102.5594
        27.2504         36.7504
  21032590.6954   -2783793.39847  -2150382.33948                  21032593.1804
        25.5004         41.2504
  22909218.6094   -6508870.18046  -5006770.70046                  22909222.4534
        14.0004         13.0004
                   -204616.426 5   -159440.500 5  23417079.164    23417081.855
        11.000          10.750
  21558301.4614    4099485.64647   3156764.49647                  21558303.8284
        22.5004         31.5004
  22133953.0944   -6299410.21246  -4846905.53046                  22133956.1764
        18.2504         21.5004
 95  4 19 16 16 15.0000000  0  7G 2G18G19G27G28G29G31
  24224791.9064   -1831902.47045  -1318662.04945                  24224797.1804
         9.2504          4.5004
  20397200.7274    -528839.91747   -402794.21047                  20397203.1054
        27.2504         36.0004
  21029975.4694   -2797536.52347  -2161091.26148                  21029977.9064
        25.5004         40.5004
  22902452.3524   -6544426.85146  -5034477.17046                  22902456.1484
        14.0004         12.5004
                   -195880.534 5   -152633.311 5  23418741.742    23418744.371
        11.000          11.000
  21563706.7664    4127890.62547   3178898.23347                  21563709.0514
        22.7504         31.5004
  22128967.9534   -6325607.72046  -4867319.15746                  22128971.1764
        18.2504         21.5004
 95  4 19 16 16 30.0000000  0  7G 2G18G19G27G28G29G31
  24216125.0704   -1877446.30945  -1354150.73045                  24216130.2974
         9.2504          5.2504
  20398322.5004    -522944.47947   -398200.36647                  20398324.7154
        27.2504         35.2504
  21027365.7814   -2811249.70947  -2171776.85548                  21027368.3714
        25.2504         41.2504
  22895685.4694   -6579988.96146  -5062187.88346                  22895689.3954
        14.2504         13.0004
                   -187025.889 5   -145733.585 5  23420426.656    23420429.133
        10.750          11.000
  21569127.6644    4156377.34047   3201095.66147                  21569129.9144
        23.0004         31.5004
  22124003.6484   -6351695.22946  -4887647.06746                  22124006.8714
        18.5004         22.2504
 95  4 19 16 16 45.0000000  0  7G 2G18G19G27G28G29G31
  24207464.6954   -1922959.34645  -1389615.39745                  24207469.7464
         9.5004          5.2504
  20399465.3204    -516939.76847   -393521.37647                  20399467.5944
        27.5004         36.0004
  21024761.6484   -2824935.15347  -2182440.83248                  21024764.1094
        25.2504         40.5004
  22888917.2584   -6615556.53646  -5089902.85546                  22888920.8674
        14.2504         13.0004
                   -178052.821 5   -138741.584 5  23422134.148    23422136.754
        10.750          11.000
  21574564.3594    4184948.56447   3223358.94047                  21574566.7504
        22.7504         30.7504
  22119059.9924   -6377673.23746  -4907889.65046                  22119063.2384
        18.2504         21.5004
 95  4 19 16 17  0.0000000  0  7G 2G18G19G27G28G29G31
  24198808.9064   -1968440.17545  -1425054.95245                  24198814.6604
         9.0004          5.2504
  20400628.0554    -510829.40047   -388760.05847                  20400630.1764
        27.2504         36.7504
  21022162.4304   -2838594.13347  -2193084.18648                  21022164.8794
        25.2504         40.0004
  22882147.4844   -6651130.24346  -5117622.60846                  22882151.2464
        14.2504         13.0004
                   -168960.374 5   -131656.558 5  23423864.289    23423867.008
        10.750          10.750
  21580018.1414    4213605.49447   3245689.00347                  21580020.4844
        23.0004         32.0004
  22114138.0864   -6403538.20746  -4928044.16346                  22114141.3914
        18.5004         23.5004
 95  4 19 16 17 15.0000000  0  7G 2G18G19G27G28G29G31
  24190160.2114   -2013889.97445  -1460470.33645                  24190165.5904
         9.2504          5.2504
  20401810.6484    -504614.57647   -383917.34447                  20401812.8754
        27.2504         36.0004
  21019568.0704   -2852227.90647  -2203707.89848                  21019570.5904
        25.2504         41.2504
  22875376.4064   -6686712.51646  -5145349.03346                  22875380.3444
        14.2504         13.0004
                   -159749.764 5   -124479.464 5  23425617.227    23425619.668
        11.000          11.000
  21585487.2664    4242348.34547   3268086.01647                  21585489.7154
        22.7504         30.7504
  22109237.4304   -6429290.98746  -4948111.25046                  22109240.7934
        18.2504         21.5004
 95  4 19 16 17 30.0000000  0  7G 2G18G19G27G28G29G31
  24181517.6724   -2059309.54245  -1495862.17445                  24181522.5124
         9.5004          6.0004
  20403014.0004    -498291.80147   -378990.51347                  20403016.2154
        27.2504         34.7504
  21016978.4924   -2865836.21947  -2214311.77748                  21016981.0474
        25.0004         41.2504
  22868604.1884   -6722299.55946  -5173079.17646                  22868608.3834
        14.2504         13.0004
                   -150420.138 5   -117209.625 5  23427392.359    23427395.242
        11.000          10.750
  21590973.9534    4271180.49947   3290552.61747                  21590976.3554
        22.7504         30.7504
  22104358.8674   -6454929.40046  -4968089.21446                  22104362.1254
        18.7504         22.2504
 95  4 19 16 17 45.0000000  0  7G 2G18G19G27G28G29G31
  24172880.0864   -2104700.82445  -1531231.97545                  24172885.5594
         9.7504          6.0004
  20404238.3754    -491857.61047   -373976.86447                  20404240.5784
        27.0004         36.0004
  21014393.9304   -2879418.33547  -2224895.23748                  21014396.4614
        25.0004         40.0004
  22861831.9454   -6757889.38346  -5200811.48846                  22861836.0234
        14.2504         12.5004
                   -140971.525 5   -109847.072 5  23429190.477    23429193.051
        10.750          11.000
  21596477.7034    4300102.97547   3313089.59847                  21596480.0474
        22.7504         31.5004
  22099501.8134   -6480453.27246  -4987977.92846                  22099504.8244
        19.0004         23.0004
 95  4 19 16 18  0.0000000  0  7G 2G18G19G27G28G29G31
  24164247.8594   -2150063.06945  -1566579.14845                  24164253.2854
         9.5004          6.0004
  20405484.6024    -485307.77247   -368873.10547                  20405486.7704
        27.2504         36.0004
  21011814.4534   -2892973.13047  -2235457.41048                  21011817.0904
        25.0004         40.0004
  22855059.2664   -6793479.43746  -5228543.97946                  22855063.0394
        14.7504         13.7504
                   -131402.205 5   -102390.458 5  23431011.367    23431013.984
        10.750          11.000
  21601998.6174    4329114.74747   3335696.16047                  21602000.9844
        22.7504         30.7504
  22094666.3284   -6505863.74346  -5007778.28746                  22094669.3404
        19.0004         23.0004
 95  4 19 16 18 15.0000000  0  7G 2G18G19G27G28G29G31
  24155620.4844   -2195399.88445  -1601906.51045                  24155626.0744
         9.7504          5.2504
  20406752.1094    -478645.82247   -363681.97947                  20406754.3834
        26.7504         35.2504
  21009238.9304   -2906507.17347  -2246003.41248                  21009241.6484
        24.5004         40.0004
  22848286.0474   -6829072.47646  -5256278.79746                  22848289.7624
        14.5004         13.0004
                   -121715.687 5    -94842.524 5  23432854.648    23432857.344
        10.750          10.750
  21607534.8444    4358210.21247   3358367.94147                  21607537.0474
        22.7504         31.5004
  22089850.9694   -6531166.90146  -5027495.01946                  22089854.1914
        18.7504         22.2504
 95  4 19 16 18 30.0000000  0  7G 2G18G19G27G28G29G31
  24146998.9534   -2240706.51045  -1637210.32645                  24147004.0274
         9.2504          6.0004
  20408041.6804    -471870.64947   -358402.63147                  20408043.9414
        27.0004         34.7504
  21006667.8674   -2920018.16647  -2256531.45448                  21006670.6804
        24.5004         40.0004
  22841512.7504   -6864665.35646  -5284013.49146                  22841516.6644
        14.2504         12.5004
                   -111909.692 5    -87201.492 5  23434720.773    23434723.449
        10.750          11.000
  21613088.2344    4387391.07447   3381106.26147                  21613090.5204
        23.0004         30.7504
  22085056.9064   -6556361.47346  -5047127.13846                  22085060.1644
        18.7504         23.5004
 95  4 19 16 18 45.0000000  0  7G 2G18G19G27G28G29G31
  24138383.8984   -2285980.79445  -1672488.96045                  24138389.4304
         9.2504          5.2504
  20409352.7664    -464980.32247   -353033.55147                  20409355.0984
        27.0004         36.0004
  21004100.7424   -2933508.23147  -2267043.18947                  21004103.6254
        24.5004         39.2504
  22834740.6564   -6900253.68346  -5311744.62746                  22834744.4184
        14.2504         12.5004
                   -101983.108 5    -79466.499 5  23436609.805    23436612.355
        10.750          11.000
  21618658.0474    4416660.49847   3403913.59247                  21618660.4964
        23.0004         30.7504
  22080283.2664   -6581447.00446  -5066674.29146                  22080286.2774
        19.2504         23.0004
 95  4 19 16 19  0.0000000  0  7G 2G18G19G27G28G29G31
  24129774.4064   -2331221.89745  -1707741.72045                  24129779.8444
         9.0004          6.5004
  20410685.4924    -457976.75647   -347576.23547                  20410687.7194
        27.0004         36.0004
  21001537.0554   -2946979.80747  -2277540.51548                  21001539.8204
        24.5004         40.0004
  22827969.7194   -6935835.33846  -5339470.56946                  22827973.3984
        14.2504         13.0004
                    -91937.610 5    -71638.844 5  23438521.508    23438523.918
        11.000          11.000
  21624243.7814    4446014.52947   3426786.84447                  21624246.2774
        23.0004         32.0004
  22075530.6024   -6606422.56346  -5086135.75746                  22075533.6254
        19.0004         23.0004
 95  4 19 16 19 15.0000000  0  7G 2G18G19G27G28G29G31
  24121171.0864   -2376431.91845  -1742970.28145                  24121175.8204
         9.0004          4.5004
  20412039.9304    -450859.63347   -342030.42947                  20412042.1094
        27.2504         36.7504
  20998977.3754   -2960431.31047  -2288022.20047                  20998980.1644
        24.5004         39.2504
  22821199.7974   -6971409.62446  -5367190.78146                  22821203.5004
        14.2504         13.0004
                    -81774.124 5    -63719.250 5  23440455.391    23440457.883
        10.750          10.750
  21629845.5164    4475451.36347   3449724.62847                  21629847.8134
        23.2504         31.5004
  22070798.4224   -6631290.02246  -5105512.98346                  22070801.5984
        19.0004         22.2504
 95  4 19 16 19 30.0000000  0  7G 2G18G19G27G28G29G31
  24112572.7974   -2421614.35445  -1778177.33945                  24112578.5744
         9.0004          5.2504
  20413415.5084    -443631.40547   -336398.05247                  20413417.7704
        27.0004         36.0004
  20996421.5004   -2973862.93947  -2298488.40147                  20996424.1254
        24.2504         38.7504
  22814432.4384   -7006975.15346  -5394904.16346                  22814435.8714
        14.7504         13.0004
                    -71493.580 5    -55708.443 5  23442411.664    23442414.293
        10.750          10.750
  21635462.8524    4504969.92147   3472726.08547                  21635465.2544
        23.2504         30.2504
  22066086.6024   -6656051.28346  -5124807.46346                  22066089.5784
        19.2504         23.0004
 95  4 19 16 19 45.0000000  0  7G 2G18G19G27G28G29G31
  24103980.5634   -2466767.47045  -1813361.54345                  24103986.5394
         9.2504          4.5004
  20414812.0164    -436292.36547   -330679.32347                  20414814.1844
        27.0004         36.0004
  20993869.8754   -2987272.10747  -2308937.09948                  20993872.3714
        24.2504         40.0004
  22807666.2814   -7042530.17746  -5422609.34846                  22807669.5274
        14.7504         13.7504
                    -61093.664 5    -47604.619 5  23444390.883    23444393.504
        10.750          11.000
  21641095.7894    4534571.51647   3495792.24847                  21641098.0514
        23.0004         31.5004
  22061395.5944   -6680703.01746  -5144016.59646                  22061398.4654
        19.2504         24.2504
 95  4 19 16 20  0.0000000  0  7G 2G18G19G27G28G29G31
  24095395.1174   -2511887.82845  -1848520.23245                  24095400.5664
         9.2504          6.0004
  20416229.5554    -428842.86047   -324874.51947                  20416231.7934
        27.0004         36.0004
  20991322.9384   -3000655.45447  -2319365.67747                  20991325.7034
        24.2504         38.7504
  22800901.9844   -7078077.46446  -5450308.52046                  22800905.2194
        15.0004         13.0004
                    -50572.464 5    -39406.289 5  23446393.000    23446395.508
        11.000          11.000
  21646744.6954    4564255.89547   3518922.92047                  21646746.8984
        23.2504         31.5004
  22056725.1094   -6705244.87046  -5163140.09946                  22056728.1094
        19.2504         22.2504
 95  4 19 16 20 15.0000000  0  7G 2G18G19G27G28G29G31
  24086814.1024   -2556978.20645  -1883655.57245                  24086818.8954
         9.2504          5.2504
  20417666.5004    -421291.54247   -318990.38447                  20417668.7734
        27.0004         36.7504
  20988780.5004   -3014016.67647  -2329777.01348                  20988783.1484
        24.2504         40.5004
  22794137.9924   -7113622.73846  -5478006.11346                  22794141.1564
        14.7504         13.7504
                    -39935.171 5    -31117.496 5  23448417.016    23448419.816
        11.000          11.000
  21652408.7034    4594020.52947   3542116.12847                  21652410.9884
        23.2504         31.5004
  22052075.2894   -6729680.31046  -5182180.69046                  22052078.5124
        19.2504         24.2504
 95  4 19 16 20 30.0000000  0  7G 2G18G19G27G28G29G31
  24078239.9534   -2602033.86245  -1918763.83245                  24078245.7894
         9.0004          5.2504
  20419122.9774    -413639.18147   -313027.51147                  20419125.1684
        27.2504         36.0004
  20986242.9694   -3027351.18847  -2340167.53647                  20986245.5704
        24.2504         39.2504
  22787374.5864   -7149164.12046  -5505700.68846                  22787378.2664
        14.5004         13.0004
                    -29179.770 5    -22736.676 5  23450463.766    23450466.328
        10.750          10.750
  21658089.0084    4623871.69847   3565376.76347                  21658091.2234
        23.0004         30.2504
  22047446.4384   -6754006.04846  -5201135.79946                  22047449.2854
        19.5004         23.0004
 95  4 19 16 20 45.0000000  0  7G 2G18G19G27G28G29G31
  24069672.8594   -2647055.08745  -1953845.27445                  24069678.6604
         9.2504          6.5004
  20420598.3984    -405885.51747   -306985.70447                  20420600.6724
        27.0004         35.2504
  20983710.9384   -3040657.36347  -2350535.98147                  20983713.5984
        24.2504         38.0004
  22780612.0944   -7184700.31246  -5533391.20146                  22780615.5164
        14.7504         12.5004
                    -18306.871 5    -14264.296 5  23452532.945    23452535.523
        10.750          11.000
  21663786.5554    4653811.39447   3588706.38047                  21663788.7114
        23.0004         29.5004
  22042838.6954   -6778219.41546  -5220003.34646                  22042841.7544
        19.5004         23.5004
 95  4 19 16 21  0.0000000  0  7G 2G18G19G27G28G29G31
  24061113.0784   -2692039.46045  -1988898.00145                  24061118.3524
         9.7504          6.0004
  20422093.4774    -398027.69347   -300862.73247                  20422095.6914
        27.0004         36.0004
  20981184.9144   -3053931.81847  -2360879.70447                  20981187.6454
        24.2504         38.0004
  22773851.3834   -7220228.68446  -5561075.63746                  22773854.6994
        14.5004         13.7504
                     -7313.153 5     -5697.773 5  23454624.938    23454627.594
        10.750          11.000
  21669501.1024    4683843.30047   3612107.85447                  21669503.3984
        22.7504         30.7504
  22038253.2274   -6802315.37046  -5238779.40946                  22038256.2854
        19.5004         24.2504
 95  4 19 16 21 15.0000000  0  7G 2G18G19G27G28G29G31
  24052559.3594   -2736990.72745  -2023924.94245                  24052564.2234
        10.0004          6.5004
  20423608.3204    -390068.18247   -294660.52247                  20423610.5704
        27.0004         37.2504
  20978665.2344   -3067172.17147  -2371196.85747                  20978667.9654
        24.2504         38.7504
  22767090.8754   -7255754.66846  -5588758.20046                  22767094.7074
        14.7504         13.0004
                      3798.706 5      2960.806 5  23456739.617    23456742.227
        10.750          11.000
  21675232.6254    4713962.31947   3635577.20347                  21675235.1334
        22.7504         30.2504
  22033689.4534   -6826298.49246  -5257467.54246                  22033692.4304
        19.5004         23.5004
 95  4 19 16 21 30.0000000  0  7G 2G18G19G27G28G29G31
  24044011.3054   -2781906.41545  -2058924.15945                  24044016.4384
        10.0004          5.2504
  20425143.2344    -382001.72947   -288374.98247                  20425145.5314
        27.0004         36.0004
  20976152.8204   -3080375.53647  -2381485.18647                  20976155.3874
        24.5004         38.7504
  22760331.2974   -7291278.78046  -5616439.31046                  22760334.7194
        15.0004         12.5004
                     15031.181 5     11713.373 5  23458877.039    23458879.492
        10.750          11.000
  21680981.2664    4744172.21647   3659117.36347                  21680983.8794
        22.7504         30.7504
  22029147.3054   -6850167.95146  -5276067.11146                  22029150.3404
        19.5004         25.0004
 95  4 19 16 21 45.0000000  0  7G 2G18G19G27G28G29G31
  24035471.8134   -2826785.64245  -2093894.95745                  24035477.3794
        10.0004          5.2504
  20426698.6644    -373827.66647   -282005.58847                  20426700.8094
        27.0004         36.0004
  20973646.5234   -3093545.95247  -2391747.83747                  20973649.1724
        24.2504         38.7504
  22753570.7194   -7326803.96546  -5644121.25746                  22753574.4804
        15.0004         13.7504
                     26381.973 5     20558.137 5  23461036.961    23461039.566
        10.750          11.000
  21686747.2344    4774471.00447   3682726.79647                  21686749.8244
        22.2504         30.2504
  22024626.5634   -6873924.93546  -5294579.03446                  22024629.5984
        19.5004         23.5004
 95  4 19 16 22  0.0000000  0  7G 2G18G19G27G28G29G31
  24026938.7664   -2871624.78945  -2128834.51345                  24026943.7584
         9.5004          6.0004
  20428275.2274    -365541.60147   -275548.91447                  20428277.5594
        26.7504         36.0004
  20971146.1414   -3106684.49647  -2401985.66247                  20971148.8244
        23.7504         37.2504
  22746810.1174   -7362332.17446  -5671805.55946                  22746814.0084
        15.0004         14.5004
                     37850.698 5     29494.792 5  23463219.453    23463222.121
        10.750          10.750
  21692529.8054    4804857.78447   3706404.78947                  21692532.2774
        22.5004         30.2504
  22020126.8984   -6897570.49646  -5313004.13646                  22020129.8284
        19.7504         24.2504
 95  4 19 16 22 15.0000000  0  7G 2G18G19G27G28G29G31
  24018413.2504   -2916423.94345  -2163742.92045                  24018418.8634
        10.0004          6.5004
  20429874.0944    -357140.78547   -269002.82747                  20429876.4024
        27.0004         36.0004
  20968652.3054   -3119790.70247  -2412198.28347                  20968655.0704
        23.7504         38.0004
  22740048.7974   -7397861.11946  -5699490.43646                  22740052.7814
        15.0004         15.0004
                     49438.130 5     38523.953 5  23465424.477    23465427.137
        10.750          10.750
  21698329.2274    4835335.07147   3730153.30847                  21698331.6644
        22.5004         30.7504
  22015648.6804   -6921104.41847  -5331342.24846                  22015651.7384
        20.2504         24.2504
 95  4 19 16 22 30.0000000  0  7G 2G18G19G27G28G29G31
  24009895.8054   -2961184.69045  -2198621.41445                  24009901.5124
        10.0004          4.5004
  20431495.0314    -348623.07347   -262365.65347                  20431497.2704
        27.0004         35.2504
  20966163.5864   -3132867.47847  -2422387.97647                  20966166.3754
        24.0004         38.0004
  22733287.9384   -7433389.91646  -5727175.19846                  22733291.7814
        15.0004         14.5004
                     61143.132 5     47644.720 5  23467651.750    23467654.637
        10.750          11.000
  21704145.9064    4865901.03547   3753970.92747                  21704148.4494
        22.2504         30.2504
  22011191.5314   -6944526.78846  -5349593.43746                  22011194.4734
        19.7504         23.5004
 95  4 19 16 22 45.0000000  0  7G 2G18G19G27G28G29G31
  24001386.1884   -3005907.67045  -2233470.47445                  24001392.1294
        10.0004          6.5004
  20433139.1564    -339982.72147   -255632.91647                  20433141.3714
        26.7504         35.2504
  20963680.9534   -3145915.09647  -2432554.94847                  20963683.6374
        24.0004         37.2504
  22726527.1884   -7468916.78646  -5754858.45046                  22726531.1604
        15.0004         13.7504
                     72967.441 5     56858.457 5  23469901.883    23469904.461
        10.750          10.750
  21709978.3444    4896552.45647   3777855.13347                  21709980.8874
        22.2504         30.7504
  22006756.1094   -6967834.98146  -5367755.65446                  22006758.9224
        19.7504         23.0004
 95  4 19 16 23  0.0000000  0  7G 2G18G19G27G28G29G31
  23992881.5164   -3050594.23945  -2268291.12745                  23992887.1414
         9.7504          5.2504
  20434806.7034    -331219.87547   -248804.73047                  20434809.0354
        26.7504         35.2504
  20961203.0084   -3158936.26147  -2442701.30347                  20961205.8324
        23.7504         38.7504
  22719766.9064   -7504443.83246  -5782541.84046                  22719770.5274
        15.0004         14.5004
                     84910.468 5     66164.704 5  23472174.539    23472177.234
        10.500          10.750
  21715826.9304    4927284.89647   3801802.47247                  21715829.4844
        22.5004         31.5004
  22002342.3524   -6991029.29647  -5385829.13446                  22002345.4804
        20.0004         23.5004
 95  4 19 16 23 15.0000000  0  7G 2G18G19G27G28G29G31
  23984384.4304   -3095247.19945  -2303085.62545                  23984390.2194
         9.7504          6.5004
  20436496.9774    -322336.95747   -241882.98247                  20436499.2854
        26.5004         35.2504
  20958729.6254   -3171934.69847  -2452829.95147                  20958732.2154
        23.7504         37.2504
  22713005.5634   -7539976.22246  -5810229.39446                  22713009.3484
        15.2504         15.0004
                     96969.868 5     75561.623 5  23474469.422    23474472.098
        10.750          10.750
  21721689.5474    4958094.56747   3825809.99147                  21721692.1134
        22.2504         30.7504
  21997949.5234   -7014114.13147  -5403817.31246                  21997952.6054
        20.0004         23.0004
 95  4 19 16 23 30.0000000  0  7G 2G18G19G27G28G29G31
  23975894.0004   -3139862.92845  -2337851.08345                  23975898.9224
         9.7504          6.5004
  20438211.0234    -313330.23547   -234864.76647                  20438213.2974
        26.7504         36.0004
  20956260.6414   -3184909.49947  -2462940.18247                  20956263.3594
        23.7504         37.2504
  22706243.1484   -7575511.64246  -5837919.31146                  22706246.4064
        15.2504         15.0004
                    109147.506 5     85050.680 5  23476786.727    23476789.313
        10.750          10.750
  21727568.0704    4988984.93347   3849880.38947                  21727570.6844
        22.2504         30.7504
  21993577.8984   -7037086.19547  -5421717.60846                  21993580.8164
        20.0004         23.5004
 95  4 19 16 23 45.0000000  0  7G 2G18G19G27G28G29G31
  23967411.6414   -3184441.60645  -2372587.69745                  23967416.6684
        10.0004          6.0004
  20439948.4224    -304200.36847   -227750.59147                  20439950.6134
        26.7504         36.7504
  20953794.9844   -3197865.82147  -2473036.01347                  20953797.6334
        23.7504         38.0004
  22699480.8914   -7611049.13046  -5865610.83846                  22699484.5594
        15.5004         15.7504
                    121442.857 5     94631.461 5  23479126.555    23479129.234
        10.750          10.750
  21733461.3754    5019955.81947   3874013.53447                  21733463.8834
        22.2504         30.2504
  21989228.2734   -7059943.40247  -5439528.41246                  21989231.1214
        20.0004         23.0004
 95  4 19 16 24  0.0000000  0  7G 2G18G19G27G28G29G31
  23958934.9384   -3228984.57645  -2407296.46745                  23958940.1994
        10.0004          6.0004
  20441709.0394    -294948.81147   -220541.59247                  20441711.1024
        26.7504         36.0004
  20951333.0864   -3210803.83147  -2483117.57647                  20951335.8984
        24.0004         38.0004
  22692717.6484   -7646589.30946  -5893304.46446                  22692721.4344
        15.5004         15.0004
                    133855.032 5    104303.275 5  23481488.523    23481491.227
        10.750          10.750
  21739370.3364    5051006.66747   3898208.98247                  21739372.9384
        22.2504         30.2504
  21984900.3914   -7082686.36047  -5457250.18746                  21984903.2854
        20.0004         23.5004
 95  4 19 16 24 15.0000000  0  7G 2G18G19G27G28G29G31
  23950465.5944   -3273493.27645  -2441978.56345                  23950471.4064
        10.0004          6.5004
  20443492.1484    -285578.42247   -213239.99347                  20443494.3634
        27.0004         36.0004
  20948874.8984   -3223721.41847  -2493183.22347                  20948877.6294
        23.7504         37.2504
  22685954.1564   -7682131.14846  -5920999.37646                  22685957.8484
        15.5004         15.0004
                    146384.764 5    114066.687 5  23483873.008    23483875.438
        11.000          10.750
  21745293.8914    5082135.06847   3922464.86247                  21745296.6214
        22.0004         30.7504
  21980594.6334   -7105314.24347  -5474882.28946                  21980597.5394
        20.2504         23.5004
 95  4 19 16 24 30.0000000  0  7G 2G18G19G27G28G29G31
  23942001.2504   -3317968.96145  -2476634.89145                  23942006.7114
         9.7504          7.2504
  20445296.9534    -276092.94347   -205848.71647                  20445299.1334
        27.0004         36.0004
  20946420.5394   -3236618.51347  -2503232.90147                  20946423.1644
        23.5004         38.0004
  22679190.6884   -7717674.70746  -5948695.64446                  22679194.3554
        15.5004         14.5004
                    159031.135 5    123920.994 5  23486279.531    23486281.832
        10.750          10.750
  21751232.0784    5113340.31647   3946780.62547                  21751234.8094
        22.0004         30.2504
  21976310.8594   -7127825.80247  -5492423.75646                  21976313.6954
        20.0004         23.5004
 95  4 19 16 24 45.0000000  0  7G 2G18G19G27G28G29G31
  23933545.6254   -3362409.09745  -2511263.54445                  23933551.1094
        10.0004          6.5004
  20447123.4924    -266494.74647   -198369.60447                  20447125.6604
        27.0004         34.7504
  20943970.0474   -3249496.12447  -2513267.39947                  20943972.7544
        23.7504         37.2504
  22672425.8914   -7753221.76046  -5976394.62746                  22672429.7584
        15.2504         15.7504
                    171793.378 5    133865.590 5  23488708.117    23488710.488
        11.000          10.500
  21757184.3204    5144618.94647   3971153.56647                  21757187.0514
        22.2504         30.7504
  21972049.3444   -7150220.46747  -5509874.13546                  21972052.1914
        20.2504         24.2504
 95  4 19 16 25  0.0000000  0  7G 2G18G19G27G28G29G31
  23925095.8594   -3406810.10845  -2545861.70345                  23925101.2384
        10.2504          6.0004
  20448971.0164    -256786.35347   -190804.62647                  20448973.2544
        27.0004         36.7504
  20941523.7734   -3262351.10747  -2523284.26447                  20941526.5514
        23.7504         36.7504
  22665661.0784   -7788771.88546  -6004096.00246                  22665665.0164
        15.2504         16.5004
                    184672.928 5    143901.595 5  23491158.891    23491161.605
        10.750          10.750
  21763151.0394    5175975.33747   3995587.10447                  21763153.7704
        22.0004         30.2504
  21967810.0394   -7172496.35647  -5527231.96246                  21967813.0044
        20.0004         24.2504
 95  4 19 16 25 15.0000000  0  7G 2G18G19G27G28G29G31
  23916655.2584   -3451170.69045  -2580428.35545                  23916660.7894
        10.5004          7.2504
  20450838.6724    -246971.90347   -183157.00947                  20450840.8054
        27.0004         35.2504
  20939081.8754   -3275183.71847  -2533283.69747                  20939084.6994
        23.7504         37.2504
  22658895.6644   -7824325.90046  -6031800.40746                  22658899.3444
        15.7504         15.7504
                    197669.187 5    154028.537 5  23493631.945    23493634.582
        10.750          10.750
  21769133.3594    5207412.83947   4020083.84547                  21769135.9844
        22.0004         30.7504
  21963593.0704   -7194656.76047  -5544499.79846                  21963596.0474
        20.2504         23.5004
 95  4 19 16 25 30.0000000  0  7G 2G18G19G27G28G29G31
  23908219.6414   -3495495.12645  -2614966.82945                  23908224.9964
        10.2504          7.2504
  20452725.8674    -237054.25647   -175428.97847                  20452728.0354
        27.0004         36.7504
  20936643.8754   -3287996.55547  -2543267.71747                  20936646.6174
        23.7504         36.7504
  22652128.2344   -7859885.71146  -6059509.33446                  22652131.9614
        15.5004         15.7504
                    210777.318 5    164242.660 5  23496126.328    23496128.965
        10.750          10.750
  21775130.0784    5238926.59047   4044640.00247                  21775132.7734
        21.7504         28.7504
  21959397.2504   -7216706.43946  -5561681.35746                  21959400.2154
        19.7504         23.5004
 95  4 19 16 25 45.0000000  0  7G 2G18G19G27G28G29G31
  23899792.8674   -3539779.23645  -2649473.90245                  23899798.0704
        10.5004          7.2504
  20454633.4384    -227031.18547   -167618.79847                  20454635.5824
        26.7504         36.7504
  20934210.3204   -3300783.98547  -2553231.94547                  20934213.0044
        23.7504         37.2504
  22645361.6804   -7895445.12546  -6087217.94846                  22645365.4774
        15.5004         14.5004
                    224001.201 5    174546.973 5  23498642.695    23498645.410
        10.250          10.750
  21781141.7894    5270518.94047   4069257.39947                  21781144.5434
        22.0004         29.5004
  21955223.1724   -7238640.80046  -5578773.05846                  21955226.3714
        19.7504         23.5004
 95  4 19 16 26  0.0000000  0  7G 2G18G19G27G28G29G31
  23891373.6174   -3584022.87545  -2683949.42745                  23891378.5634
        10.7504          6.5004
  20456560.5084    -216903.70047   -159727.25947                  20456562.7464
        27.0004         37.2504
  20931782.1724   -3313544.32147  -2563175.05947                  20931784.8674
        23.7504         37.2504
  22638594.9614   -7931004.93446  -6114926.87746                  22638598.7934
        15.5004         15.0004
                    237340.957 5    184941.573 5  23501181.109    23501184.027
        10.500          10.750
  21787168.4534    5302188.28747   4093934.79847                  21787171.2194
        22.0004         29.5004
  21951070.7814   -7260461.07946  -5595775.85946                  21951073.9574
        19.7504         23.5004
 95  4 19 16 26 15.0000000  0  7G 2G18G19G27G28G29G31
  23882962.3754   -3628224.46245  -2718392.20645                  23882967.6844
        10.5004          7.2504
  20458507.7974    -206671.35647   -151754.01147                  20458509.9184
        27.0004         37.2504
  20929359.3914   -3326275.14447  -2573095.17647                  20929362.1214
        23.7504         36.7504
  22631828.0004   -7966564.37346  -6142635.50846                  22631831.5634
        15.5004         15.7504
                    250797.603 5    195427.258 5  23503741.820    23503744.699
        10.500          11.000
  21793209.5394    5333934.27847   4118671.91847                  21793212.2934
        22.0004         29.5004
  21946940.4774   -7282166.12746  -5612688.87546                  21946943.6294
        19.7504         23.5004
 95  4 19 16 26 30.0000000  0  7G 2G18G19G27G28G29G31
  23874558.7504   -3672385.60945  -2752803.45845                  23874563.8014
        10.7504          6.5004
  20460474.2344    -196337.56547   -143701.71547                  20460476.5314
        27.0004         37.2504
  20926942.1644   -3338979.02947  -2582994.30847                  20926944.8714
        23.7504         36.7504
  22625061.6094   -8002124.75746  -6170344.88246                  22625065.1724
        16.2504         14.5004
                    264369.624 5    206002.848 5  23506324.719    23506327.391
        10.750          10.750
  21799265.0634    5365756.54947   4143468.47147                  21799267.7464
        22.0004         28.7504
  21942832.5234   -7303753.69046  -5629510.34146                  21942835.5944
        19.7504         24.2504
 95  4 19 16 26 45.0000000  0  7G 2G18G19G27G28G29G31
  23866163.4064   -3716503.87945  -2787181.29345                  23866168.6804
        10.7504          7.7504
  20462460.4384    -185899.10047   -135567.85547                  20462462.6414
        27.0004         37.2504
  20924529.3914   -3351657.27147  -2592873.45647                  20924532.1564
        23.7504         36.7504
  22618294.3754   -8037684.72246  -6198053.92946                  22618297.6214
        16.0004         17.0004
                    278057.184 5    216668.468 5  23508929.336    23508932.000
        10.750          10.750
  21805335.3524    5397655.45447   4168324.74747                  21805338.0704
        21.7504         28.7504
  21938747.4064   -7325221.43447  -5646238.44546                  21938750.4414
        20.0004         23.0004
 95  4 19 16 27  0.0000000  0  7G 2G18G19G27G28G29G31
  23857775.1884   -3760580.98945  -2821527.06045                  23857780.6484
        10.5004          7.7504
  20464466.6804    -175356.80247   -127353.08447                  20464468.8244
        26.7504         37.2504
  20922121.6414   -3364310.47747  -2602733.09247                  20922124.2304
        23.7504         38.0004
  22611527.7894   -8073244.09946  -6225762.50746                  22611531.1994
        16.0004         15.0004
                    291859.802 5    227423.743 5  23511555.922    23511558.617
        10.750          10.750
  21811420.3054    5429630.30147   4193240.19047                  21811423.1524
        22.0004         28.2504
  21934684.9224   -7346570.14446  -5662873.79046                  21934687.9574
        19.7504         23.5004
 95  4 19 16 27 15.0000000  0  7G 2G18G19G27G28G29G31
  23849395.0864   -3804620.47745  -2855843.51445                  23849400.4884
        10.5004          6.5004
  20466492.4384    -164711.41247   -119057.98247                  20466494.7584
        27.0004         38.0004
  20919718.2114   -3376940.10347  -2612574.35947                  20919720.9064
        24.0004         36.7504
  22604761.4384   -8108802.13646  -6253470.06046                  22604764.9534
        16.2504         16.5004
                    305776.429 5    238267.858 5  23514204.219    23514206.969
        10.750          10.750
  21817518.9924    5461679.61047   4218213.66147                  21817521.6294
        22.0004         27.5004
  21930644.4064   -7367802.55746  -5679418.51946                  21930647.5594
        19.7504         23.5004
 95  4 19 16 27 30.0000000  0  7G 2G18G19G27G28G29G31
  23841021.6094   -3848624.24245  -2890132.11845                  23841027.2584
        10.7504          6.5004
  20468538.5084    -153958.57347   -110679.15147                  20468540.7934
        27.0004         38.0004
  20917320.0084   -3389544.39447  -2622395.88047                  20917322.6914
        24.0004         36.7504
  22597995.3444   -8144357.93946  -6281175.86346                  22597999.1764
        16.2504         15.7504
                    319807.874 5    249201.442 5  23516874.219    23516876.949
        10.500          10.750
  21823631.8594    5493802.04147   4243244.10847                  21823634.5784
        22.0004         28.2504
  21926626.8754   -7388915.49447  -5695870.15046                  21926629.8284
        20.2504         24.2504
 95  4 19 16 27 45.0000000  0  7G 2G18G19G27G28G29G31
  23832654.1644   -3892592.73145  -2924393.24845                  23832659.6484
        10.7504          7.7504
  20470605.6804    -143095.59747   -102214.49847                  20470607.9774
        27.0004         38.7504
  20914926.1804   -3402121.56847  -2632196.27447                  20914928.9344
        23.7504         37.2504
  22591230.1644   -8179909.88446  -6308878.65746                  22591233.8094
        16.0004         16.5004
                    333955.322 5    260225.414 5  23519566.188    23519569.047
        10.250          10.750
  21829758.8674    5525999.75547   4268333.21847                  21829761.6454
        21.7504         28.7504
  21922632.2894   -7409906.67647  -5712226.90646                  21922635.2304
        20.0004         24.2504
 95  4 19 16 28  0.0000000  0  7G 2G18G19G27G28G29G31
  23824294.0004   -3936526.29745  -2958627.18145                  23824299.6954
        11.0004          7.2504
  20472693.5164    -132124.24947    -93665.39547                  20472695.8954
        27.0004         38.7504
  20912537.6254   -3414674.61847  -2641977.86947                  20912540.3204
        23.7504         38.0004
  22584464.0784   -8215462.96446  -6336582.33646                  22584467.5354
        16.0004         14.5004
                    348216.439 5    271337.961 5  23522280.188    23522282.723
        10.500          10.750
  21835900.0234    5558273.30747   4293481.42247                  21835902.7894
        21.5004         27.5004
  21918660.8444   -7430776.87746  -5728489.39446                  21918664.0784
        19.5004         23.5004
 95  4 19 16 28 15.0000000  0  7G 2G18G19G27G28G29G31
  23815940.6094   -3980424.49445  -2992833.51745                  23815946.0704
        11.2504          6.5004
  20474802.2424    -121042.55747    -85030.31347                  20474804.6454
        26.7504         38.7504
  20910153.3834   -3427203.82947  -2651740.88947                  20910156.1134
        23.7504         36.7504
  22577698.2894   -8251017.32446  -6364287.02446                  22577701.7234
        15.7504         15.7504
                    362592.186 5    282539.833 5  23525015.742    23525018.660
        10.250          10.500
  21842056.5944    5590625.51347   4318690.91747                  21842059.2074
        21.5004         26.7504
  21914712.6644   -7451524.17446  -5744656.10446                  21914716.0164
        19.7504         23.5004
 95  4 19 16 28 30.0000000  0  7G 2G18G19G27G28G29G31
  23807593.3204   -4024288.38645  -3027013.15045                  23807599.1804
        11.0004          7.7504
  20476932.2034    -109850.35747    -76309.12147                  20476934.5944
        27.0004         38.7504
  20907774.0554   -3439707.70347  -2661484.16247                  20907776.7034
        23.7504         37.2504
  22570932.9144   -8286570.04146  -6391990.41746                  22570936.1484
        16.0004         15.7504
                    377083.765 5    293831.964 5  23527773.453    23527776.227
        10.250          10.750
  21848228.2584    5623059.30947   4343963.98846                  21848231.0234
        21.2504         25.5004
  21910788.3834   -7472145.82046  -5760724.91246                  21910791.5474
        19.5004         24.2504
 95  4 19 16 28 45.0000000  0  7G 2G18G19G27G28G29G31
  23799253.9144   -4068115.25345  -3061163.92045                  23799259.0004
        11.5004          7.7504
  20479083.3524     -98546.10747    -67500.61547                  20479085.7424
        26.7504         39.2504
  20905399.5004   -3452185.35547  -2671207.00647                  20905402.1844
        24.0004         37.2504
  22564167.9534   -8322120.41746  -6419691.98946                  22564171.3874
        16.2504         15.0004
                    391691.769 5    305214.806 5  23530553.258    23530556.059
        10.250          10.750
  21854416.4924    5655578.04947   4369303.25246                  21854419.1644
        21.2504         25.5004
  21906888.1724   -7492642.64646  -5776696.45446                  21906891.4534
        19.7504         24.2504
 95  4 19 16 29  0.0000000  0  7G 2G18G19G27G28G29G31
  23790920.3134   -4111907.02845  -3095287.34245                  23790925.3524
        11.7504          8.5004
  20481255.4064     -87131.53247    -58606.14847                  20481257.6804
        27.0004         39.2504
  20903029.9384   -3464638.20547  -2680910.52447                  20903032.5864
        24.0004         36.7504
  22557403.4844   -8357668.11846  -6447391.48546                  22557407.1764
        16.2504         15.7504
                    406414.432 5    316686.999 5  23533354.984    23533357.809
        10.250          10.750
  21860620.4144    5688180.01047   4394707.35947                  21860623.1914
        21.0004         26.2504
  21903010.4694   -7513019.18446  -5792574.26246                  21903013.6914
        19.7504         24.2504
 95  4 19 16 29 15.0000000  0  7G 2G18G19G27G28G29G31
  23782592.7194   -4155666.35745  -3129385.48845                  23782597.7584
        11.5004          8.5004
  20483448.5164     -75605.30147    -49624.67447                  20483450.8364
        27.0004         39.2504
  20900665.3674   -3477063.37147  -2690592.47047                  20900668.0514
        24.0004         37.2504
  22550639.4534   -8393213.11946  -6475088.86546                  22550642.8634
        16.5004         16.5004
                    421252.630 5    328249.216 5  23536178.695    23536181.418
        10.250          10.750
  21866840.8594    5720867.64747   4420178.23046                  21866843.4734
        21.0004         24.2504
  21899156.1254   -7533275.03246  -5808358.02646                  21899159.2544
        19.7504         24.2504
 95  4 19 16 29 30.0000000  0  7G 2G18G19G27G28G29G31
  23774272.4144   -4199391.68845  -3163457.14045                  23774277.9454
        11.2504          8.5004
  20485664.2034     -63962.74447    -40552.56347                  20485666.5474
        27.0004         39.2504
  20898306.6804   -3489459.54947  -2700251.82447                  20898309.2464
        24.0004         37.2504
  22543875.8674   -8428756.97146  -6502785.36446                  22543879.2304
        16.5004         16.5004
                    436207.226 5    339902.137 5  23539024.375    23539027.172
        10.250          10.750
  21873077.8834    5753643.73847   4445718.02446                  21873080.5434
        20.5004         25.5004
  21895324.5944   -7553410.26746  -5824047.81246                  21895327.7344
        19.7504         23.5004
 95  4 19 16 29 45.0000000  0  7G 2G18G19G27G28G29G31
  23765958.2894   -4243083.61245  -3197502.76845                  23765963.5274
        11.5004          8.5004
  20487901.9224     -52203.45547    -31389.48947                  20487904.3364
        26.7504         39.2504
  20895952.4614   -3501830.29947  -2709891.36647                  20895955.0044
        24.2504         36.0004
  22537112.1564   -8464300.85846  -6530481.88346                  22537115.2974
        17.0004         16.5004
                    451276.766 5    351644.621 5  23541892.023    23541894.828
        10.250          10.750
  21879331.6484    5786507.29247   4471325.97347                  21879334.2734
        20.5004         26.2504
  21891515.6884   -7573425.59046  -5839644.16346                  21891518.8054
        19.7504         24.2504
 95  4 19 16 30  0.0000000  0  7G 2G18G19G27G28G29G31
  23757650.9064   -4286738.91945  -3231519.84745                  23757656.3204
        11.7504          7.7504
  20490161.6724     -40329.51647    -22137.07747                  20490164.0984
        26.7504         39.2504
  20893603.0394   -3514176.79647  -2719512.01247                  20893605.6054
        24.2504         36.7504
  22530348.3054   -8499843.47846  -6558177.41746                  22530351.8674
        16.5004         17.0004
                    466461.623 5    363476.962 5  23544781.492    23544784.465
        10.000          10.750
  21885601.9064    5819457.05147   4497001.09546                  21885604.4964
        20.5004         24.2504
  21887729.5784   -7593320.89947  -5855146.98746                  21887732.6604
        20.2504         24.2504
 95  4 19 16 30 15.0000000  0  7G 2G18G19G27G28G29G31
  23749350.3674   -4330358.44245  -3265509.04845                  23749355.1724
        11.7504          7.7504
  20492442.4064     -28342.73447    -12796.73248                  20492444.9024
        26.7504         40.0004
  20891258.0004   -3526500.78247  -2729115.11547                  20891260.5204
        24.2504         37.2504
  22523584.9844   -8535384.86046  -6585871.98546                  22523588.0204
        16.5004         17.0004
                    481761.088 5    375398.611 5  23547692.930    23547695.773
        10.000          10.750
  21891887.9224    5852489.53947   4522740.67946                  21891890.5824
        20.5004         24.2504
  21883966.8674   -7613094.47846  -5870554.96346                  21883969.8554
        19.7504         23.5004
 95  4 19 16 30 30.0000000  0  7G 2G18G19G27G28G29G31
  23741056.5474   -4373942.01845  -3299470.24345                  23741060.8714
        11.5004          9.2504
  20494745.3594     -16241.67247     -3367.34148                  20494747.8444
        26.7504         40.0004
  20888917.4144   -3538800.67647  -2738699.44347                  20888919.9344
        24.2504         37.2504
  22516822.8524   -8570920.27746  -6613561.90946                  22516826.0394
        16.5004         16.5004
                    497176.397 5    387410.526 5  23550626.258    23550629.250
        10.000          10.750
  21898189.1644    5885605.15647   4548545.04146                  21898192.0124
        20.2504         24.2504
  21880227.3594   -7632745.86246  -5885867.72146                  21880230.3484
        19.7504         23.5004
 95  4 19 16 30 45.0000000  0  7G 2G18G19G27G28G29G31
  23732770.2584   -4417488.93045  -3333402.87545                  23732775.0634
        11.5004          7.2504
  20497069.8524      -4026.46847      6150.99248                  20497072.3834
        26.5004         40.0004
  20886581.0004   -3551076.55647  -2748265.06147                  20886583.6484
        23.7504         37.2504
  22510061.6174   -8606451.26046  -6641248.37346                  22510064.7814
        16.5004         16.5004
                    512706.471 5    399511.872 5  23553581.742    23553584.570
         9.750          10.500
  21904506.3594    5918802.41047   4574413.01446                  21904509.1024
        20.2504         24.2504
  21876510.7734   -7652277.30546  -5901087.01946                  21876513.9264
        19.7504         24.2504
 95  4 19 16 31  0.0000000  0  7G 2G18G19G27G28G29G31
  23724489.9224   -4460997.62545  -3367305.72145                  23724495.3954
        11.0004          6.0004
  20499416.0864       8303.40847     15758.68748                  20499418.6294
        26.5004         40.0004
  20884249.8364   -3563327.23947  -2757811.04447                  20884252.5554
        24.0004         37.2504
  22503301.1334   -8641978.81446  -6668932.16246                  22503304.2504
        17.0004         16.5004
                    528351.882 5    411703.086 5  23556558.984    23556561.652
        10.000          10.250
  21910838.9614    5952079.30447   4600343.04846                  21910841.7504
        20.0004         23.5004
  21872817.1414   -7671687.56346  -5916211.88546                  21872820.2114
        19.7504         23.5004
 95  4 19 16 31 15.0000000  0  7G 2G18G19G27G28G29G31
  23716217.2664   -4504470.81545  -3401180.88745                  23716222.6454
        11.0004          7.2504
  20501784.5084      20749.12347     25456.63347                  20501787.1804
        26.7504         39.2504
  20881923.6884   -3575551.74447  -2767336.63347                  20881926.3954
        24.0004         38.0004
  22496540.9454   -8677504.27546  -6696614.32946                  22496543.9924
        17.2504         17.0004
                    544111.285 5    423983.131 5  23559557.789    23559560.703
        10.000          10.500
  21917186.0474    5985432.48847   4626332.52346                  21917188.8134
        20.2504         24.2504
  21869146.5164   -7690976.34946  -5931242.09946                  21869149.5864
        19.7504         25.0004
 95  4 19 16 31 30.0000000  0  7G 2G18G19G27G28G29G31
  23707952.2194   -4547904.55845  -3435025.32545                  23707957.7034
        11.0004          7.7504
  20504175.2034      33312.02747     35245.89848                  20504177.6994
        26.5004         40.0004
  20879602.7194   -3587748.92747  -2776840.92547                  20879605.3444
        24.2504         36.0004
  22489780.5474   -8713030.53846  -6724297.11346                  22489783.7464
        17.0004         17.7504
                    559985.290 5    436352.470 5  23562578.508    23562581.520
        10.000          10.250
  21923547.4924    6018863.24347   4652382.44646                  21923550.2934
        20.2504         24.2504
  21865499.2114   -7710143.68847  -5946177.67446                  21865502.2814
        20.0004         24.2504
 95  4 19 16 31 45.0000000  0  7G 2G18G19G27G28G29G31
  23699695.1334   -4591296.17945  -3468836.94145                  23699700.7234
        11.5004          7.2504
  20506587.6724      45989.57547     45124.49847                  20506590.2504
        26.5004         38.7504
  20877286.3524   -3599920.61047  -2786325.35147                  20877288.9774
        24.0004         37.2504
  22483019.9694   -8748557.25946  -6751980.26346                  22483023.2274
        17.2504         17.7504
                    575972.510 5    448810.031 5  23565620.930    23565623.637
        10.000          10.250
  21929923.4924    6052369.77747   4678491.41546                  21929926.3634
        20.2504         24.2504
  21861874.6024   -7729191.45147  -5961020.08146                  21861877.7074
        20.2504         25.5004
 95  4 19 16 32  0.0000000  0  7G 2G18G19G27G28G29G31
  23691446.2344   -4634645.50345  -3502615.61145                  23691451.5204
        11.5004          7.7504
  20509020.9454      58777.14847     55088.83347                  20509023.4534
        26.2504         39.2504
  20874975.2664   -3612065.42847  -2795788.84647                  20874978.0314
        24.2504         37.2504
  22476259.1484   -8784084.65146  -6779663.92846                  22476262.6764
        16.5004         17.0004
                    592071.197 5    461354.452 5  23568684.586    23568687.121
        10.000          10.000
  21936313.5314    6085947.86647   4704656.14046                  21936316.5084
        20.2504         23.5004
  21858273.0164   -7748117.71147  -5975767.80746                  21858275.9454
        20.0004         23.5004
 95  4 19 16 32 15.0000000  0  7G 2G18G19G27G28G29G31
  23683207.0234   -4677943.39445  -3536354.18645                  23683212.0274
        11.5004          8.5004
  20511476.7584      71682.02947     65144.57447                  20511479.2544
        26.2504         38.7504
  20872671.9454   -3624169.88447  -2805220.88647                  20872674.7234
        24.0004         36.7504
  22469499.7034   -8819605.44946  -6807342.45246                  22469503.3484
        17.0004         17.0004
                    608290.174 5    473992.604 5  23571770.859    23571773.531
        10.250          10.000
  21942718.7274    6119608.12047   4730884.89746                  21942721.6454
        20.5004         24.2504
  21854696.3834   -7766912.64847  -5990413.20146                  21854699.4884
        20.0004         24.2504
 95  4 19 16 32 30.0000000  0  7G 2G18G19G27G28G29G31
  23674976.2734   -4721195.38445  -3570057.01145                  23674981.2304
        11.2504          7.7504
  20513954.0554      84700.50147     75288.83447                  20513956.6564
        26.2504         38.7504
  20870375.3914   -3636238.18547  -2814624.75547                  20870378.1214
        24.0004         37.2504
  22462740.7974   -8855124.40746  -6835019.55146                  22462744.3834
        16.7504         15.7504
                    624624.402 5    486720.563 5  23574879.039    23574881.750
        10.000          10.000
  21949139.2344    6153346.99547   4757174.91446                  21949141.9534
        20.5004         24.2504
  21851143.5314   -7785583.04947  -6004961.55846                  21851146.6604
        20.2504         24.2504
 95  4 19 16 32 45.0000000  0  7G 2G18G19G27G28G29G31
  23666754.5944   -4764400.66345  -3603723.44145                  23666759.6454
        11.5004          7.2504
  20516452.5944      97831.52447     85520.79447                  20516455.1844
        26.0004         39.2504
  20868085.4924   -3648271.14147  -2824001.08247                  20868088.2584
        23.7504         36.7504
  22455981.6254   -8890644.41346  -6862697.45646                  22455985.0234
        16.7504         17.0004
                    641072.905 5    499537.569 5  23578009.188    23578011.977
        10.000          10.000
  21955573.8284    6187162.20447   4783524.40946                  21955576.7934
        20.2504         25.0004
  21847613.9454   -7804130.65347  -6019414.22646                  21847617.0164
        20.2504         25.5004
 95  4 19 16 33  0.0000000  0  7G 2G18G19G27G28G29G31
  23658541.3284   -4807559.90945  -3637353.98645                  23658546.1684
        11.5004          7.7504
  20518973.0314     111075.16647     95840.51047                  20518975.5744
        26.0004         39.2504
  20865802.7424   -3660267.96247  -2833349.25547                  20865805.4844
        23.7504         36.7504
  22449221.5784   -8926167.14546  -6890377.49646                  22449224.9064
        17.0004         17.0004
                    657635.491 5    512443.465 5  23581160.813    23581163.805
        10.000          10.000
  21962022.9384    6221052.09347   4809932.09546                  21962025.7154
        20.5004         25.0004
  21844108.1174   -7822554.07647  -6033770.13046                  21844111.3404
        20.5004         25.0004
 95  4 19 16 33 15.0000000  0  7G 2G18G19G27G28G29G31
  23650335.7424   -4850682.15145  -3670955.70045                  23650340.6644
        11.7504          9.2504
  20521513.1804     124423.84147    106242.06847                  20521515.8404
        25.7504         38.7504
  20863524.9224   -3672237.96147  -2842676.52447                  20863527.6644
        23.7504         36.0004
  22442459.9454   -8961699.61646  -6918065.12546                  22442463.3444
        16.5004         17.7504
                    674303.678 5    525431.652 5  23584332.539    23584335.484
         9.750          10.000
  21968484.8204    6255008.25447   4836391.42546                  21968487.6804
        20.2504         24.2504
  21840624.4304   -7840860.90247  -6048035.18446                  21840627.2424
        20.2504         25.5004
 95  4 19 16 33 30.0000000  0  7G 2G18G19G27G28G29G31
  23642139.4144   -4893751.30745  -3704516.04945                  23642144.6644
        11.5004          8.5004
  20524076.3054     137893.16547    116737.63947                  20524079.0004
        25.7504         38.7504
  20861254.6484   -3684167.82947  -2851972.52447                  20861257.2854
        23.7504         37.2504
  22435699.5164   -8997225.35646  -6945747.50446                  22435702.9144
        17.0004         16.5004
                    691092.435 5    538513.785 5  23587527.531    23587530.371
         9.750          10.000
  21974961.7504    6289045.47047   4862913.91746                  21974964.4574
        20.2504         24.2504
  21837165.7504   -7859036.53247  -6062198.00046                  21837168.6454
        20.5004         24.2504
 95  4 19 16 33 45.0000000  0  7G 2G18G19G27G28G29G31
  23633952.9694   -4936773.78645  -3738040.02545                  23633957.7974
        11.7504          9.2504
  20526660.6884     151474.55147    127320.53247                  20526663.4414
        25.5004         38.0004
  20858990.7194   -3696065.51247  -2861243.44047                  20858993.5314
        23.7504         36.7504
  22428939.4454   -9032749.61746  -6973428.73246                  22428942.7854
        16.5004         17.7504
                    707995.330 5    551684.858 5  23590744.078    23590746.988
        10.000          10.000
  21981452.7424    6323156.95847   4889494.28146                  21981455.5204
        20.2504         23.5004
  21833730.7664   -7877085.42147  -6076262.06346                  21833733.8954
        20.2504         25.5004
 95  4 19 16 34  0.0000000  0  7G 2G18G19G27G28G29G31
  23625774.3834   -4979751.40645  -3771529.04545                  23625779.0594
        11.7504          8.5004
  20529266.5164     165168.46847    137991.10947                  20529269.2704
        25.0004         38.0004
  20856733.0864   -3707930.10747  -2870488.57747                  20856735.6994
        23.7504         37.2504
  22422180.4224   -9068269.61046  -7001106.63146                  22422183.7034
        16.7504         17.7504
                    725013.535 5    564945.789 5  23593982.664    23593985.508
        10.000          10.000
  21987957.5944    6357339.46547   4916129.98346                  21987960.3364
        20.2504         24.2504
  21830321.4924   -7895002.95447  -6090223.77246                  21830324.5274
        20.5004         25.5004
 95  4 19 16 34 15.0000000  0  7G 2G18G19G27G28G29G31
  23617604.0864   -5022687.04645  -3804985.36745                  23617609.3244
        11.7504          9.2504
  20531893.7424     178974.55147    148749.08747                  20531896.4384
        25.0004         38.0004
  20854481.0944   -3719764.20747  -2879709.95347                  20854483.7074
        24.0004         37.2504
  22415422.4224   -9103783.72246  -7028779.95246                  22415425.5744
        17.0004         18.2504
                    742148.154 5    578297.425 5  23597243.313    23597246.133
        10.250          10.000
  21994476.5634    6391596.00247   4942823.37146                  21994479.4574
        20.0004         23.5004
  21826937.0944   -7912787.76247  -6104082.05646                  21826940.0704
        20.2504         25.5004
 95  4 19 16 34 30.0000000  0  7G 2G18G19G27G28G29G31
  23609441.0004   -5065584.65645  -3838412.04445                  23609446.0164
        11.7504          8.5004
  20534542.3524     192893.92947    159595.35047                  20534545.1414
        25.0004         38.0004
  20852233.7664   -3731574.62547  -2888912.87347                  20852236.4494
        24.2504         37.2504
  22408665.0234   -9139291.79746  -7056448.56346                  22408668.5984
        16.5004         17.0004
                    759397.620 5    591738.558 5  23600525.891    23600528.520
        10.250           9.750
  22001009.2734    6425925.73647   4969573.79746                  22001011.9574
        20.0004         23.5004
  21823577.3984   -7930443.00947  -6117839.38447                  21823580.5864
        20.2504         26.2504
 95  4 19 16 34 45.0000000  0  7G 2G18G19G27G28G29G31
  23601284.9454   -5108443.42645  -3871808.45145                  23601290.3954
        11.7504          9.2504
  20537213.0234     206927.51347    170530.59847                  20537215.8484
        25.0004         36.7504
  20849990.3524   -3743363.77147  -2898099.21747                  20849993.0124
        24.2504         38.0004
  22401909.5784   -9174792.22146  -7084111.21446                  22401913.0944
        16.5004         17.7504
                    776762.139 5    605269.339 5  23603830.188    23603832.984
        10.000           9.750
  22007555.5474    6460327.35246   4996380.23746                  22007558.2894
        19.7504         23.0004
  21820242.5084   -7947968.45647  -6131495.56946                  21820245.6024
        20.2504         24.2504
 95  4 19 16 35  0.0000000  0  7G 2G18G19G27G28G29G31
  23593135.7664   -5151268.30945  -3905178.47445                  23593140.9344
        11.7504          8.5004
  20539904.6884     221073.86147    181553.71347                  20539907.4414
        24.5004         36.7504
  20847750.9144   -3755132.29647  -2907269.49647                  20847753.5394
        24.2504         36.7504
  22395155.3594   -9210286.50846  -7111769.08446                  22395158.9454
        16.7504         17.7504
                    794239.351 5    618887.936 5  23607155.992    23607158.742
        10.000           9.750
  22014115.6094    6494800.62246   5023242.50846                  22014118.3874
        19.2504         23.0004
  21816932.2894   -7965364.25147  -6145050.72946                  21816935.2424
        20.5004         25.5004
 95  4 19 16 35 15.0000000  0  7G 2G18G19G27G28G29G31
  23584993.2584   -5194058.08145  -3938521.11045                  23584999.0234
        11.7504          9.2504
  20542618.5864     235333.62647    192665.21347                  20542621.3874
        24.5004         37.2504
  20845515.7664   -3766877.88547  -2916421.90247                  20845518.4024
        24.2504         37.2504
  22388402.8204   -9245771.94246  -7139420.05646                  22388406.2194
        16.7504         17.7504
                    811830.718 5    632595.483 5  23610503.375    23610506.398
        10.000           9.750
  22020689.4924    6529347.64146   5050162.24246                  22020692.4454
        19.5004         21.5004
  21813646.8284   -7982630.17547  -6158504.68646                  21813649.8284
        20.2504         25.5004
 95  4 19 16 35 30.0000000  0  7G 2G18G19G27G28G29G31
  23576857.7894   -5236810.27446  -3971834.47845                  23576862.8634
        12.0004          9.7504
  20545353.2504     249706.09147    203864.52547                  20545356.2034
        24.2504         36.7504
  20843285.0164   -3778600.86847  -2925556.69247                  20843287.7464
        24.2504         36.7504
  22381651.9924   -9281246.75146  -7167062.75046                  22381655.1684
        16.7504         18.2504
                    829536.451 5    646392.144 5  23613872.648    23613875.629
         9.750           9.750
  22027278.2274    6563969.22846   5077140.08546                  22027281.1914
        19.5004         22.2504
  21810385.4614   -7999766.73147  -6171857.84347                  21810388.5554
        20.2504         26.7504
 95  4 19 16 35 45.0000000  0  7G 2G18G19G27G28G29G31
  23568729.1564   -5279527.63745  -4005120.71145                  23568733.9844
        11.7504          9.2504
  20548109.1564     264187.51747    215148.74147                  20548112.0744
        24.0004         36.0004
  20841058.2734   -3790302.62647  -2934674.94747                  20841060.9804
        24.5004         37.2504
  22374902.8204   -9316713.38346  -7194699.07146                  22374906.4414
        16.5004         17.7504
                    847353.844 5    660275.818 5  23617263.219    23617266.148
         9.750           9.750
  22033880.0164    6598662.77146   5104173.99946                  22033882.8984
        19.5004         22.2504
  21807148.9844   -8016776.25447  -6185112.01246                  21807151.9144
        20.5004         25.5004
 95  4 19 16 36  0.0000000  0  7G 2G18G19G27G28G29G31
  23560606.7584   -5322209.38945  -4038379.18445                  23560612.0664
        11.7504          7.7504
  20550885.8524     278779.08547    226518.78647                  20550888.7934
        23.7504         36.0004
  20838835.5634   -3801981.72447  -2943775.54047                  20838838.2934
        24.2504         37.2504
  22368155.8984   -9352170.04646  -7222327.62546                  22368159.2274
        16.7504         17.7504
                    865284.180 5    674247.490 5  23620675.313    23620678.109
         9.750           9.750
  22040496.2194    6633431.33046   5131266.36946                  22040498.9614
        19.2504         21.5004
  21803936.1414   -8033657.57947  -6198266.28746                  21803939.0594
        20.2504         24.2504
 95  4 19 16 36 15.0000000  0  7G 2G18G19G27G28G29G31
  23552491.5554   -5364855.52346  -4071609.90445                  23552496.3244
        12.2504          9.2504
  20553683.4534     293480.45247    237974.38647                  20553686.4414
        23.7504         35.2504
  20836617.7734   -3813636.42847  -2952857.12447                  20836620.3874
        24.2504         38.0004
  22361410.6804   -9387615.32446  -7249947.30546                  22361414.0784
        16.5004         18.2504
                    883327.279 5    688307.034 5  23624108.727    23624111.754
         9.750           9.750
  22047127.2894    6668277.58446   5158419.27646                  22047130.1604
        19.0004         21.5004
  21800747.8914   -8050412.19947  -6211321.83046                  21800751.0204
        20.0004         25.0004
 95  4 19 16 36 30.0000000  0  7G 2G18G19G27G28G29G31
  23544383.3054   -5407463.92746  -4104811.23345                  23544388.5434
        12.2504          9.7504
  20556501.7584     308292.08547    249515.91447                  20556504.7464
        23.5004         34.7504
  20834405.2894   -3825264.25947  -2961917.76847                  20834408.0084
        24.5004         37.2504
  22354667.4694   -9423050.64546  -7277559.22746                  22354671.0664
        16.2504         18.2504
                    901483.699 5    702454.879 5  23627563.844    23627566.848
         9.750           9.750
  22053773.7194    6703203.90046   5185634.57146                  22053776.5084
        19.0004         21.0004
  21797583.8984   -8067040.06447  -6224278.60546                  21797587.0394
        20.2504         25.0004
 95  4 19 16 36 45.0000000  0  7G 2G18G19G27G28G29G31
  23536282.9454   -5450032.27446  -4137981.35345                  23536287.8094
        12.2504          9.2504
  20559341.1484     323212.11947    261141.90647                  20559344.1254
        23.5004         34.7504
  20832198.4064   -3836860.56347  -2970953.84547                  20832201.1724
        24.2504         38.0004
  22347925.7424   -9458478.62046  -7305165.42346                  22347929.2704
        16.5004         19.7504
                    919751.830 5    716689.766 5  23631040.102    23631043.066
         9.750           9.750
  22060433.9614    6738204.47146   5212907.73146                  22060436.7384
        19.0004         20.2504
  21794443.7664   -8083541.92347  -6237137.19846                  21794446.9184
        20.5004         25.5004
 95  4 19 16 37  0.0000000  0  7G 2G18G19G27G28G29G31
  23528190.4774   -5492557.19846  -4171117.63345                  23528195.7274
        12.0004          9.2504
  20562201.2034     338243.27447    272854.48947                  20562204.1334
        23.5004         34.7504
  20829999.1644   -3848417.62447  -2979959.35047                  20830001.8364
        24.2504         38.7504
  22341185.9924   -9493897.27346  -7332764.35746                  22341189.4024
        16.5004         19.7504
                    938135.092 5    731014.369 5  23634538.422    23634541.293
         9.500           9.750
  22067108.7584    6773281.23946   5240240.25446                  22067111.4654
        19.0004         21.5004
  21791328.5704   -8099912.64347  -6249893.60046                  21791331.6054
        20.5004         25.5004
 95  4 19 16 37 15.0000000  0  7G 2G18G19G27G28G29G31
  23520106.5314   -5535038.25845  -4204219.73245                  23520111.8164
        11.7504          8.5004
  20565082.3364     353383.08147    284651.73447                  20565085.2894
        23.5004         34.0004
  20827807.3204   -3859935.05347  -2988933.97147                  20827810.0634
        24.2504         38.7504
  22334447.5864   -9529307.68046  -7360356.86746                  22334451.0904
        16.7504         17.7504
                    956632.564 5    745427.970 5  23638058.344    23638061.336
         9.500           9.750
  22073797.8444    6808431.90246   5267630.37246                  22073800.7034
        19.0004         20.2504
  21788237.6954   -8116153.33647  -6262548.68246                  21788240.7424
        20.2504         25.5004
 95  4 19 16 37 30.0000000  0  7G 2G18G19G27G28G29G31
  23512031.1414   -5577473.87746  -4237286.42245                  23512036.3094
        12.0004          8.5004
  20567983.8834     368629.33047    296531.92047                  20567986.8484
        23.5004         34.7504
  20825622.7664   -3871417.07247  -2997880.99347                  20825625.5204
        24.5004         38.7504
  22327709.8444   -9564713.63246  -7387945.90146                  22327713.4774
        16.2504         18.2504
                    975241.206 5    759928.195 5  23641599.617    23641602.281
         9.250           9.750
  22080500.4694    6843653.29746   5295075.60046                  22080503.2814
        19.0004         21.0004
  21785171.7274   -8132266.34747  -6275104.27047                  21785174.8674
        20.5004         27.5004
 95  4 19 16 37 45.0000000  0  7G 2G18G19G27G28G29G31
  23503965.1024   -5619861.50845  -4270315.71945                  23503970.4344
        11.7504          9.2504
  20570906.1174     383985.81947    308498.00847                  20570909.0824
        23.2504         34.7504
  20823444.8834   -3882860.70747  -3006798.11347                  20823447.6954
        24.2504         39.2504
  22320973.6094   -9600112.30846  -7415529.26146                  22320977.0434
        16.5004         18.2504
                    993964.062 5    774517.420 5  23645162.227    23645165.320
         9.250          10.000
  22087216.6254    6878948.57546   5322578.40246                  22087219.4844
        19.0004         20.2504
  21782131.0394   -8148244.86647  -6287555.06346                  21782134.1214
        20.2504         25.5004
 95  4 19 16 38  0.0000000  0  7G 2G18G19G27G28G29G31
  23495908.1804   -5662199.68445  -4303306.48045                  23495913.2664
        11.7504          8.5004
  20573849.1484     399452.63147    320550.05847                  20573852.1604
        23.5004         36.0004
  20821274.7734   -3894264.63747  -3015684.29247                  20821277.6094
        24.0004         36.7504
  22314238.9534   -9635504.30246  -7443107.42646                  22314242.4454
        16.7504         18.2504
                   1012802.559 5    789196.749 5  23648747.102    23648750.340
         9.250          10.000
  22093948.2114    6914321.02546   5350141.32946                  22093951.0704
        19.5004         21.5004
  21779116.8674   -8164086.24747  -6299898.99546                  21779119.8444
        20.2504         25.0004
 95  4 19 16 38 15.0000000  0  7G 2G18G19G27G28G29G31
  23487861.9064   -5704486.64946  -4336257.33145                  23487866.7234
        12.0004          9.2504
  20576813.6484     415031.12347    332689.13747                  20576816.5204
        23.5004         35.2504
  20819112.3754   -3905627.36947  -3024538.36747                  20819115.1644
        24.0004         38.7504
  22307505.4064   -9670889.37846  -7470680.20146                  22307508.5704
        17.0004         19.7504
                   1031757.593 5    803966.888 5  23652354.234    23652357.340
         9.250          10.000
  22100693.9304    6949770.98146   5377764.65646                  22100696.9304
        19.2504         21.0004
  21776128.5864   -8179788.42947  -6312134.45746                  21776131.3164
        20.2504         25.0004
 95  4 19 16 38 30.0000000  0  7G 2G18G19G27G28G29G31
  23479824.2734   -5746722.78745  -4369168.58445                  23479829.4774
        11.7504          9.7504
  20579799.3284     430720.17347    344914.35747                  20579802.2934
        23.5004         34.0004
  20816957.5394   -3916952.75247  -3033363.34247                  20816960.3054
        24.2504         38.7504
  22300772.1724   -9706272.17846  -7498251.19646                  22300775.4414
        17.0004         19.7504
                   1050826.647 5    818825.878 5  23655982.875    23655986.043
         9.250          10.000
  22107454.3914    6985296.90546   5405447.17646                  22107457.0744
        19.5004         21.0004
  21773166.7664   -8195353.99447  -6324263.46547                  21773169.6374
        20.2504         26.2504
 95  4 19 16 38 45.0000000  0  7G 2G18G19G27G28G29G31
  23471797.3054   -5788904.00845  -4402037.04345                  23471802.6724
        11.7504          9.2504
  20582806.4694     446523.59847    357228.70847                  20582809.3874
        23.2504         34.0004
  20814809.0554   -3928242.27047  -3042160.36547                  20814811.9964
        24.2504         38.7504
  22294039.4304   -9741652.71446  -7525820.42746                  22294042.8054
        17.2504         20.2504
                   1070011.401 5    833775.021 5  23659633.805    23659636.891
         9.250          10.000
  22114229.4224    7020899.53946   5433189.47346                  22114232.4454
        19.2504         21.5004
  21770230.6724   -8210781.59747  -6336284.97546                  21770233.5784
        20.2504         25.5004
 95  4 19 16 39  0.0000000  0  7G 2G18G19G27G28G29G31
  23463781.4534   -5831028.04245  -4434860.94245                  23463787.0904
        11.7504          9.2504
  20585836.2734     462444.76947    369634.80247                  20585839.1804
        23.5004         34.0004
  20812667.6724   -3939494.93247  -3050928.67547                  20812670.4964
        24.2504         37.2504
  22287308.4144   -9777026.49046  -7553384.38946                  22287311.6604
        17.2504         20.2504
                   1089313.779 5    848815.818 5  23663306.891    23663310.008
         9.250          10.250
  22121019.9304    7056584.12346   5460995.63146                  22121022.9534
        19.0004         22.2504
  21767321.1954   -8226069.36347  -6348197.51746                  21767324.2304
        20.2504         25.0004
 95  4 19 16 39 15.0000000  0  7G 2G18G19G27G28G29G31
  23455775.6414   -5873096.58145  -4467641.59345                  23455780.9734
        11.7504          9.2504
  20588887.3754     478479.68347    382129.53147                  20588890.0124
        23.5004         34.7504
  20810531.9774   -3950718.40547  -3059674.24047                  20810534.8014
        24.2504         38.0004
  22280577.0944   -9812398.35346  -7580946.86946                  22280580.7734
        17.0004         20.2504
                   1108730.287 5    863945.551 5  23667001.625    23667004.758
         9.000          10.000
  22127826.0314    7092350.79246   5488865.74546                  22127829.1254
        19.2504         21.0004
  21764438.1954   -8241222.40147  -6360005.07847                  21764441.0084
        20.5004         26.7504
 95  4 19 16 39 30.0000000  0  7G 2G18G19G27G28G29G31
  23447781.9224   -5915106.55145  -4500376.60945                  23447787.4774
        11.7504          9.2504
  20591960.6334     494628.45347    394712.97747                  20591963.2344
        23.7504         34.7504
  20808401.3204   -3961914.75147  -3068398.66447                  20808404.0634
        24.2504         38.0004
  22273846.5554   -9847767.00546  -7608506.83546                  22273850.0594
        17.2504         20.2504
                   1128261.289 5    879164.495 5  23670718.320    23670721.375
         9.000          10.250
  22134648.6174    7128203.96846   5516803.26446                  22134651.6174
        19.5004         21.5004
  21761580.5784   -8256239.80647  -6371706.94946                  21761583.5434
        20.2504         25.5004
 95  4 19 16 39 45.0000000  0  7G 2G18G19G27G28G29G31
  23439798.4304   -5957060.75446  -4533068.16645                  23439803.4574
        12.5004          9.7504
  20595055.4224     510890.77347    407384.90347                  20595058.0594
        23.7504         35.2504
  20806275.6484   -3973084.92947  -3077102.70047                  20806278.3674
        24.0004         39.2504
  22267116.7894   -9883132.37446  -7636064.25646                  22267120.3404
        17.2504         18.2504
                   1147906.502 5    894472.433 5  23674456.727    23674459.742
         9.000          10.250
  22141487.9534    7164144.14746   5544808.58246                  22141490.8834
        19.5004         20.2504
  21758748.6334   -8271120.78847  -6383302.51446                  21758751.3524
        20.2504         25.5004
 95  4 19 16 40  0.0000000  0  7G 2G18G19G27G28G29G31
  23431825.1644   -5998959.42046  -4565716.45845                  23431830.0274
        12.5004         10.5004
  20598171.2344     527264.59647    420143.71947                  20598173.8364
        23.7504         35.2504
  20804154.8524   -3984229.89647  -3085787.09147                  20804157.7234
        24.2504         38.0004
  22260388.2424   -9918493.08346  -7663618.03746                  22260391.7114
        17.7504         20.2504
                   1167664.737 5    909868.441 5  23678216.781    23678219.875
         9.000          10.500
  22148343.4694    7200169.36546   5572880.16846                  22148346.3054
        19.2504         21.5004
  21755942.1414   -8285868.09747  -6394793.92346                  21755945.0704
        20.2504         25.5004
 95  4 19 16 40 15.0000000  0  7G 2G18G19G27G28G29G31
  23423863.1484   -6040800.69946  -4598320.02845                  23423868.1884
        12.5004         10.5004
  20601308.8284     543752.78447    432991.65247                  20601311.4184
        24.0004         34.7504
  20802039.6484   -3995347.12947  -3094449.87147                  20802042.4844
        24.2504         38.7504
  22253660.5394   -9953846.24746  -7691165.94346                  22253663.7974
        17.7504         19.7504
                   1187537.678 5    925353.834 5  23681998.492    23682001.461
         9.250          10.500
  22155214.7814    7236281.23946   5601019.26946                  22155217.8404
        18.7504         21.0004
  21753161.4144   -8300481.07847  -6406180.65847                  21753164.4144
        20.2504         26.2504
 95  4 19 16 40 30.0000000  0  7G 2G18G19G27G28G29G31
  23415910.8594   -6082589.71846  -4630882.88145                  23415916.0394
        12.7504         10.5004
  20604467.9224     560353.89047    445927.57147                  20604470.5704
        24.0004         36.0004
  20799928.3594   -4006440.74847  -3103094.24647                  20799931.1134
        24.2504         38.7504
  22246934.4614   -9989192.96946  -7718708.82746                  22246937.7544
        17.7504         21.0004
                   1207521.737 5    940925.809 5  23685801.094    23685804.156
         9.000          10.250
  22162102.6804    7272476.34846   5629223.23346                  22162105.8674
        19.0004         19.7504
  21750405.5234   -8314964.06847  -6417466.10446                  21750408.5124
        20.2504         25.5004
 95  4 19 16 40 45.0000000  0  7G 2G18G19G27G28G29G31
  23407968.6254   -6124326.38946  -4663404.93745                  23407973.5234
        12.5004          9.2504
  20607648.5234     577068.47247    458951.91047                  20607651.1954
        24.0004         36.0004
  20797821.9924   -4017510.69947  -3111720.18047                  20797824.7934
        24.5004         37.2504
  22240209.3594  -10024531.55946  -7746245.37646                  22240212.7704
        17.7504         20.2504
                   1227617.907 5    956585.147 5  23689625.453    23689628.547
         9.000          10.750
  22169006.1094    7308753.53346   5657491.15146                  22169009.2734
        18.7504         21.0004
  21747674.5394   -8329315.72647  -6428649.20647                  21747677.3984
        20.2504         26.2504
 95  4 19 16 41  0.0000000  0  7G 2G18G19G27G28G29G31
  23400035.3984   -6166014.40046  -4695889.07945                  23400040.7774
        12.7504         10.5004
  20610850.7344     593896.90647    472064.97147                  20610853.3484
        24.2504         34.7504
  20795720.9534   -4028551.59147  -3120323.47847                  20795723.6374
        24.2504         39.2504
  22233487.1094  -10059857.72946  -7773772.24546                  22233490.3324
        17.7504         20.2504
                   1247826.765 5    972332.289 5  23693471.031    23693474.051
         9.000          10.750
  22175924.2734    7345108.14646   5685819.40046                  22175927.3554
        18.7504         20.2504
  21744968.6954   -8343535.00447  -6439729.15946                  21744971.5784
        20.2504         25.5004
 95  4 19 16 41 15.0000000  0  7G 2G18G19G27G28G29G31
  23392111.4924   -6207656.03346  -4728337.08545                  23392116.0864
        13.0004          9.7504
  20614074.6724     610837.67447    485265.56147                  20614077.4264
        24.2504         36.0004
  20793625.3594   -4039563.37447  -3128904.08647                  20793627.8794
        24.2504         39.2504
  22226767.4384  -10095170.47146  -7801288.65446                  22226770.6134
        18.0004         20.2504
                   1268147.813 5    988166.853 5  23697337.867    23697341.246
         9.000          10.750
  22182856.7974    7381538.00246   5714206.28946                  22182859.8674
        18.7504         20.2504
  21742288.2114   -8357621.23647  -6450705.43946                  21742291.1884
        20.2504         25.5004
 95  4 19 16 41 30.0000000  0  7G 2G18G19G27G28G29G31
  23384195.8834   -6249254.21446  -4760751.23345                  23384200.5124
        13.2504         10.5004
  20617319.7114     627890.79047    498553.69147                  20617322.3364
        24.2504         35.2504
  20791535.4304   -4050546.33247  -3137462.23547                  20791538.1484
        24.2504         38.7504
  22220049.9224  -10130471.14946  -7828795.66246                  22220053.2624
        18.0004         20.2504
                   1288579.793 5   1004087.859 5  23701225.945    23701229.215
         9.000          10.500
  22189802.5474    7418040.05846   5742649.42846                  22189805.6524
        18.2504         21.0004
  21739632.8204   -8371573.36647  -6461577.22647                  21739635.8914
        20.2504         26.2504
 95  4 19 16 41 45.0000000  0  7G 2G18G19G27G28G29G31
  23376288.3444   -6290809.19546  -4793131.71745                  23376293.2544
        13.2504         10.5004
  20620587.4304     645061.32547    511933.31947                  20620589.8554
        24.7504         35.2504
  20789452.1174   -4061493.95647  -3145992.85347                  20789454.7774
        24.2504         38.0004
  22213335.1414  -10165755.73346  -7856290.13246                  22213338.2934
        17.7504         21.0004
                   1309125.680 5   1020097.622 5  23705135.875    23705138.828
         9.000          10.500
  22196762.8674    7454615.99746   5771150.14446                  22196766.0554
        18.0004         19.7504
  21737004.3674   -8385387.15047  -6472341.21046                  21737007.3094
        20.2504         25.5004
 95  4 19 16 42  0.0000000  0  7G 2G18G19G27G28G29G31
  23368387.7734   -6332323.79346  -4825480.73045                  23368392.6724
        12.7504         10.5004
  20623876.8284     662347.92347    525403.38947                  20623879.3714
        24.5004         36.0004
  20787375.5164   -4072407.01147  -3154496.53147                  20787378.4104
        24.0004         38.0004
  22206624.0164  -10201026.15546  -7883773.56546                  22206627.2974
        18.2504         21.0004
                   1329783.498 5   1036194.614 5  23709066.750    23709069.910
         9.000          10.250
  22203736.0634    7491260.68146   5799704.42646                  22203739.1094
        18.2504         20.2504
  21734401.2274   -8399066.45847  -6483000.40646                  21734404.0744
        20.2504         25.5004
 95  4 19 16 42 15.0000000  0  7G 2G18G19G27G28G29G31
  23360495.3054   -6373797.68346  -4857798.02545                  23360500.6024
        12.7504          9.7504
  20627189.1414     679753.40547    538966.08947                  20627191.5784
        25.0004         35.2504
  20785305.5004   -4083284.52847  -3162972.51947                  20785308.3714
        24.2504         38.0004
  22199914.3134  -10236283.08446  -7911246.48346                  22199917.2774
        18.0004         20.2504
                   1350553.826 5   1052379.267 5  23713019.398    23713022.496
         9.000          10.250
  22210722.4694    7527973.83046   5828312.05046                  22210725.7504
        18.2504         19.0004
  21731823.9144   -8412610.95247  -6493554.54947                  21731827.0554
        20.2504         26.2504
 95  4 19 16 42 30.0000000  0  7G 2G18G19G27G28G29G31
  23352609.3284   -6415240.22446  -4890090.89945                  23352614.5204
        13.0004         10.5004
  20630522.2734     697268.80247    552614.44447                  20630524.5824
        25.0004         37.2504
  20783241.3444   -4094132.25647  -3171425.29147                  20783244.1564
        24.0004         38.0004
  22193206.5004  -10271534.55846  -7938715.14746                  22193209.6764
        18.0004         20.2504
                   1371429.940 5   1068646.348 5  23716992.148    23716995.098
         9.250          10.250
  22217720.9144    7564750.89146   5856969.49046                  22217723.8914
        18.2504         19.7504
  21729270.8984   -8426028.17247  -6504009.52247                  21729273.8054
        20.5004         26.7504
 95  4 19 16 42 45.0000000  0  7G 2G18G19G27G28G29G31
  23344729.8524   -6456647.65046  -4922356.39545                  23344735.1724
        13.2504         11.2504
  20633877.0234     714897.62847    566351.17947                  20633879.3444
        25.2504         36.0004
  20781183.2034   -4104947.21947  -3179852.54047                  20781186.0164
        24.2504         37.2504
  22186499.4614  -10306779.79946  -7966178.96146                  22186502.6844
        18.0004         21.0004
                   1392414.554 5   1084997.987 5  23720985.281    23720988.117
         9.250          10.250
  22224731.1644    7601591.54546   5885676.47046                  22224734.2344
        17.7504         19.0004
  21726742.1884   -8439314.82147  -6514362.75246                  21726744.9654
        20.2504         25.0004
 95  4 19 16 43  0.0000000  0  7G 2G18G19G27G28G29G31
  23336857.1644   -6498017.86546  -4954592.90845                  23336862.1214
        13.2504         10.5004
  20637253.0004     732640.03347    580176.42247                  20637255.2854
        25.0004         36.0004
  20779132.0944   -4115725.70947  -3188251.36148                  20779134.9414
        24.2504         40.0004
  22179793.4224  -10342019.27546  -7993638.27446                  22179796.7274
        18.0004         21.0004
                   1413507.064 5   1101433.696 5  23724999.008    23725002.027
         9.250          10.250
  22231753.3984    7638494.01746   5914431.62346                  22231756.2704
        18.0004         19.0004
  21724239.1884   -8452470.88247  -6524614.21847                  21724242.0704
        20.2504         26.2504
 95  4 19 16 43 15.0000000  0  7G 2G18G19G27G28G29G31
  23328992.7114   -6539344.87046  -4986795.75245                  23328997.3754
        13.2504         10.5004
  20640651.6174     750498.69447    594092.25047                  20640653.8914
        25.2504         36.7504
  20777088.4534   -4126464.41247  -3196619.17847                  20777091.2304
        24.0004         38.0004
  22173089.1884  -10377250.73746  -8021091.34646                  22173092.3164
        18.2504         21.0004
                   1434709.918 5   1117955.386 5  23729033.820    23729036.809
         9.250          10.250
  22238789.3284    7675465.84146   5943240.81846                  22238792.2704
        18.0004         19.0004
  21721760.7114   -8465494.17147  -6534762.23147                  21721763.8404
        20.2504         26.2504
 95  4 19 16 43 30.0000000  0  7G 2G18G19G27G28G29G31
  23321136.5864   -6580629.78546  -5018965.78245                  23321141.2974
        13.2504         10.5004
  20644071.5084     768469.77447    608095.68447                  20644073.7114
        25.2504         36.0004
  20775051.8674   -4137167.96247  -3204959.61147                  20775054.6914
        24.0004         38.0004
  22166385.2894  -10412480.55746  -8048543.14646                  22166388.6644
        18.0004         19.7504
                   1456018.689 5   1134559.607 5  23733088.945    23733091.906
         9.250          10.250
  22245837.4924    7712505.18846   5972102.62746                  22245840.6334
        17.7504         18.2504
  21719306.5634   -8478388.95147  -6544810.10646                  21719309.6094
        20.2504         25.5004
 95  4 19 16 43 45.0000000  0  7G 2G18G19G27G28G29G31
  23313289.3754   -6621867.95646  -5051099.40245                  23313294.6254
        13.7504         11.2504
  20647513.0234     786555.79847    622188.67847                  20647515.2274
        25.5004         36.7504
  20773022.6484   -4147832.17447  -3213269.38747                  20773025.4964
        24.0004         38.7504
  22159682.0474  -10447705.07246  -8075990.80346                  22159685.0704
        18.0004         21.5004
                   1477436.195 5   1151248.557 5  23737164.383    23737167.496
         9.250          10.500
  22252899.4454    7749613.89346   6001018.48546                  22252902.6914
        18.2504         19.0004
  21716878.1024   -8491153.05747  -6554756.15946                  21716880.8794
        20.5004         25.5004
 95  4 19 16 44  0.0000000  0  7G 2G18G19G27G28G29G31
  23305451.9384   -6663055.50746  -5083193.58745                  23305456.5084
        14.0004         11.2504
  20650976.6884     804756.81647    636371.28047                  20650978.8794
        25.5004         37.2504
  20771000.8134   -4158457.09447  -3221548.54247                  20771003.7544
        23.7504         37.2504
  22152980.9224  -10482920.13846  -8103431.09946                  22152984.4614
        18.0004         20.2504
                   1498964.262 5   1168023.658 5  23741261.031    23741264.266
         9.250          10.500
  22259974.1954    7786793.55646   6029989.63346                  22259977.1844
        17.7504         18.2504
  21714473.6564   -8503786.85247  -6564600.67347                  21714476.8324
        20.2504         26.2504
 95  4 19 16 44 15.0000000  0  7G 2G18G19G27G28G29G31
  23297623.1484   -6704195.62346  -5115250.79246                  23297627.8954
        13.7504         12.5004
  20654461.4774     823069.06147    650640.55447                  20654463.5514
        25.5004         37.2504
  20768985.3204   -4169047.93047  -3229801.13947                  20768988.3094
        23.7504         38.7504
  22146280.8444  -10518129.17146  -8130866.69846                  22146284.2894
        18.0004         21.5004
                   1520599.485 5   1184882.264 5  23745377.992    23745381.344
         9.000          10.500
  22267062.3204    7824040.58846   6059013.27846                  22267065.1684
        17.7504         17.7504
  21712094.1094   -8516292.26847  -6574345.14447                  21712097.0274
        20.5004         26.7504
 95  4 19 16 44 30.0000000  0  7G 2G18G19G27G28G29G31
  23289804.1484   -6745285.40346  -5147268.79445                  23289809.1994
        13.7504         11.7504
  20657967.3444     841492.45647    664996.43747                  20657969.5234
        25.2504         36.7504
  20766976.8524   -4179602.15147  -3238025.20647                  20766979.6994
        23.7504         38.7504
  22139582.1254  -10553330.85046  -8158296.56346                  22139585.3714
        18.0004         21.5004
                   1542343.385 5   1201825.543 5  23749516.016    23749519.047
         9.000          10.250
  22274163.1724    7861356.86746   6088090.87846                  22274166.1374
        18.0004         18.2504
  21709738.6954   -8528667.98047  -6583988.55247                  21709741.4734
        20.0004         26.7504
 95  4 19 16 44 45.0000000  0  7G 2G18G19G27G28G29G31
  23281994.5164   -6786324.66046  -5179247.40945                  23281998.9574
        13.7504         11.2504
  20661494.5864     860027.91947    679439.64647                  20661496.8364
        25.2504         37.2504
  20764975.1954   -4190121.15247  -3246221.82847                  20764978.0784
        23.7504         39.2504
  22132884.8364  -10588524.63546  -8185720.27746                  22132888.1524
        17.7504         21.5004
                   1564194.852 5   1218852.644 5  23753673.992    23753677.230
         9.000          10.250
  22281277.6644    7898741.85146   6117222.02146                  22281280.5594
        18.0004         18.2504
  21707408.8134   -8540913.28447  -6593530.34147                  21707411.6254
        20.2504         26.2504
 95  4 19 16 45  0.0000000  0  7G 2G18G19G27G28G29G31
  23274194.6414   -6827312.68846  -5211186.11445                  23274199.2584
        13.7504         11.7504
  20665043.2584     878676.81647    693971.24647                  20665045.4494
        25.2504         37.2504
  20762979.9064   -4200607.76247  -3254393.21247                  20762982.6254
        24.0004         37.2504
  22126189.2974  -10623710.66646  -8213137.94946                  22126192.3094
        18.2504         21.0004
                   1586152.149 5   1235962.212 5  23757852.570    23757855.375
         9.250          10.000
  22288404.2894    7936193.17646   6146404.85346                  22288407.3954
        17.5004         17.7504
  21705103.5314   -8553027.82047  -6602970.23247                  21705106.3674
        20.5004         26.7504
 95  4 19 16 45 15.0000000  0  7G 2G18G19G27G28G29G31
  23266404.4534   -6868250.50646  -5243085.68945                  23266409.3634
        13.7504         11.2504
  20668613.3054     897438.42347    708590.66847                  20668615.4734
        25.2504         37.2504
  20760989.6564   -4211065.77047  -3262542.31047                  20760992.3054
        24.2504         39.2504
  22119495.1884  -10658888.82746  -8240549.49546                  22119498.3164
        18.2504         21.5004
                   1608215.443 5   1253154.382 5  23762051.000    23762053.984
         9.250          10.000
  22295544.1024    7973714.59946   6175642.30746                  22295547.2424
        17.7504         17.7504
  21702823.1414   -8565011.48047  -6612308.14447                  21702826.1414
        20.2504         26.7504
 95  4 19 16 45 30.0000000  0  7G 2G18G19G27G28G29G31
  23258623.9614   -6909135.47546  -5274944.09045                  23258629.0824
        13.5004         11.2504
  20672205.4224     916314.39147    723299.20747                  20672207.6134
        25.2504         37.2504
  20759005.5474   -4221492.33947  -3270666.90847                  20759008.2074
        24.0004         38.7504
  22112803.3754  -10694054.98646  -8267951.68446                  22112806.4454
        18.2504         21.0004
                   1630388.791 5   1270432.303 5  23766270.563    23766273.563
         9.250          10.000
  22302698.5634    8011310.28546   6204937.62946                  22302701.3284
        18.0004         17.7504
  21700568.7194   -8576858.39247  -6621539.49946                  21700571.9184
        20.2504         25.5004
 95  4 19 16 45 45.0000000  0  7G 2G18G19G27G28G29G31
  23250853.9144   -6949969.19146  -5306762.55245                  23250858.9654
        13.5004         11.2504
  20675819.2814     935305.32047    738097.32147                  20675821.5314
        25.2504         37.2504
  20757027.1724   -4231888.50547  -3278767.81647                  20757029.9144
        24.2504         36.7504
  22106113.6644  -10729209.57146  -8295344.84846                  22106116.9224
        18.2504         20.2504
                   1652673.020 5   1287796.620 5  23770511.086    23770513.863
         9.250           9.750
  22309867.1644    8048979.20146   6234290.01346                  22309869.8364
        18.0004         17.0004
  21698340.3984   -8588567.70947  -6630663.63347                  21698343.6564
        20.2504         26.2504
 95  4 19 16 46  0.0000000  0  7G 2G18G19G27G28G29G31
  23243092.0864   -6990760.72046  -5338548.13545                  23243096.8554
        13.7504         11.7504
  20679453.5314     954402.28347    752978.06247                  20679455.9804
        25.2504         37.2504
  20755053.0314   -4242262.78847  -3286851.66747                  20755055.7274
        24.0004         39.2504
  22099424.4534  -10764360.58246  -8322735.23346                  22099427.5354
        18.2504         21.0004
                   1675060.394 5   1305241.314 5  23774771.188    23774774.082
         9.250           9.750
  22317047.6564    8086715.72946   6263695.08646                  22317050.4104
        17.7504         16.5004
  21696137.0704   -8600146.67747  -6639686.20047                  21696139.9884
        20.5004         26.2504
 95  4 19 16 46 15.0000000  0  7G 2G18G19G27G28G29G31
  23235337.6174   -7031506.46146  -5370298.04645                  23235342.4804
        13.7504         11.2504
  20683108.7274     973610.32247    767945.35847                  20683111.1174
        25.2504         37.2504
  20753084.0784   -4252609.05647  -3294913.69247                  20753086.8794
        24.0004         38.7504
  22092736.5394  -10799504.22546  -8350119.87946                  22092739.7974
        18.0004         21.5004
                   1697555.401 5   1322769.880 5  23779051.875    23779054.859
         9.250           9.750
  22324242.8914    8124527.34946   6293158.66346                  22324245.8094
        17.2504         17.7504
  21693959.2504   -8611590.66047  -6648603.58647                  21693962.2504
        20.2504         27.5004
 95  4 19 16 46 30.0000000  0  7G 2G18G19G27G28G29G31
  23227591.1414   -7072216.34346  -5402020.01846                  23227595.7234
        14.0004         13.0004
  20686782.7894     992918.63447    782990.78347                  20686785.2154
        25.0004         36.0004
  20751118.8134   -4262937.97947  -3302962.20247                  20751121.6254
        24.0004         37.2504
  22086048.1564  -10834653.04546  -8377508.55846                  22086051.4734
        18.2504         21.5004
                   1720146.732 5   1340373.502 5  23783350.867    23783353.836
         9.000           9.750
  22331450.1484    8162401.75846   6322671.17046                  22331453.6294
        17.2504         17.0004
  21691805.5234   -8622908.64147  -6657422.78447                  21691808.4884
        20.2504         27.5004
 95  4 19 16 46 45.0000000  0  7G 2G18G19G27G28G29G31
  23219853.1254   -7112880.41846  -5433706.28846                  23219857.8714
        14.0004         12.5004
  20690477.6254    1012335.12847    798120.50947                  20690479.9344
        25.0004         35.2504
  20749158.3284   -4273240.39747  -3310990.05647                  20749161.1414
        24.0004         37.2504
  22079360.3754  -10869796.65546  -8404893.18046                  22079363.5514
        18.0004         21.5004
                   1742843.660 5   1358059.407 5  23787669.922    23787672.871
         9.000           9.500
  22338671.7814    8200350.04246   6352241.24346                  22338674.7934
        17.5004         17.0004
  21689677.9384   -8634091.05547  -6666136.34647                  21689680.8914
        20.5004         26.2504
 95  4 19 16 47  0.0000000  0  7G 2G18G19G27G28G29G31
  23212122.8444   -7153500.61846  -5465358.37145                  23212127.5084
        14.0004         11.7504
  20694193.1334    1031860.05947    813334.72947                  20694195.5594
        24.5004         36.7504
  20747202.5004   -4283517.80447  -3318998.42447                  20747205.2424
        24.2504         38.7504
  22072674.2034  -10904934.63446  -8432273.40446                  22072677.3674
        18.2504         22.2504
                   1765645.979 5   1375827.437 5  23792008.906    23792012.098
         9.000           9.250
  22345906.7814    8238370.71846   6381867.72146                  22345910.0044
        17.7504         17.7504
  21687575.8204   -8645136.34547  -6674743.05647                  21687578.7854
        20.5004         27.5004
 95  4 19 16 47 15.0000000  0  7G 2G18G19G27G28G29G31
  23204401.3674   -7194077.21046  -5496976.46345                  23204406.0434
        14.0004         11.7504
  20697928.3524    1051489.12747    828630.09447                  20697930.8244
        24.5004         37.2504
  20745251.6564   -4293769.29747  -3326986.60147                  20745254.4224
        24.2504         36.7504
  22065988.2974  -10940068.13946  -8459650.14846                  22065991.6024
        18.2504         21.0004
                   1788553.414 5   1393677.377 5  23796367.945    23796371.297
         8.500           9.250
  22353155.5944    8276462.42546   6411549.55846                  22353158.5704
        17.5004         17.0004
  21685500.1564   -8656044.69747  -6683243.06747                  21685502.9924
        20.5004         27.5004
 95  4 19 16 47 30.0000000  0  7G 2G18G19G27G28G29G31
  23196687.6884   -7234612.79946  -5528562.62746                  23196692.8554
        14.2504         12.5004
  20701682.8134    1071219.43647    844004.35547                  20701685.3444
        24.5004         36.0004
  20743306.4844   -4303990.70847  -3334951.33447                  20743309.1804
        24.0004         38.7504
  22059303.9304  -10975196.01946  -8487022.50446                  22059307.2234
        18.7504         21.5004
                   1811566.137 5   1411609.347 5  23800747.203    23800750.258
         8.500           9.250
  22360418.0704    8314627.22646   6441288.34446                  22360421.1174
        17.2504         18.2504
  21683450.2424   -8666815.73247  -6691636.07047                  21683453.1254
        20.5004         28.2504
 95  4 19 16 47 45.0000000  0  7G 2G18G19G27G28G29G31
  23188981.9844   -7275108.26546  -5560117.50546                  23188986.7664
        14.2504         13.0004
  20705456.2114    1091049.69047    859456.48947                  20705458.9064
        24.2504         36.7504
  20741367.6024   -4314181.06547  -3342891.86747                  20741370.3914
        23.7504         38.0004
  22052619.8284  -11010318.62046  -8514390.75146                  22052623.1914
        18.0004         21.5004
                   1834682.545 5   1429622.119 5  23805146.180    23805149.328
         8.500           9.250
  22367693.4774    8352862.00446   6471081.65746                  22367696.7234
        17.0004         17.0004
  21681426.5004   -8677451.18547  -6699923.43047                  21681429.3364
        20.5004         26.7504
 95  4 19 16 48  0.0000000  0  7G 2G18G19G27G28G29G31
  23181283.9534   -7315562.51246  -5591640.26946                  23181288.7234
        14.5004         12.5004
  20709249.3594    1110981.37347    874987.65847                  20709251.9384
        24.2504         36.7504
  20739434.2344   -4324340.63847  -3350808.41447                  20739437.1054
        23.7504         39.2504
  22045938.2894  -11045433.45946  -8541752.95046                  22045941.6054
        18.7504         21.5004
                   1857902.891 5   1447715.883 5  23809565.039    23809568.031
         8.500           9.250
  22374983.0704    8391167.04446   6500929.72146                  22374985.8714
        17.7504         17.0004
  21679428.2664   -8687951.63347  -6708105.59047                  21679431.1954
        20.5004         26.2504
 95  4 19 16 48 15.0000000  0  7G 2G18G19G27G28G29G31
  23173593.8914   -7355972.67446  -5623128.69946                  23173598.6374
        14.5004         12.5004
  20713061.6254    1131016.09147    890599.11647                  20713064.1804
        24.0004         37.2504
  20737507.1564   -4334466.95647  -3358699.05247                  20737509.9804
        24.0004         38.7504
  22039258.0004  -11080536.67146  -8569106.09246                  22039261.4804
        18.2504         21.5004
                   1881228.943 5   1465892.010 5  23814003.914    23814006.918
         8.500           9.250
  22382285.9614    8429543.71746   6530833.60046                  22382289.4414
        17.2504         17.7504
  21677456.4384   -8698313.67547  -6716179.90147                  21677459.2734
        20.5004         28.2504
 95  4 19 16 48 30.0000000  0  7G 2G18G19G27G28G29G31
  23165911.7734   -7396341.77346  -5654585.11446                  23165916.2734
        14.2504         12.5004
  20716892.7974    1151149.40247    906287.40147                  20716895.5274
        24.2504         36.0004
  20735585.8204   -4344564.21847  -3366567.04847                  20735588.5514
        23.7504         38.7504
  22032579.9614  -11115630.71046  -8596452.08446                  22032583.1954
        18.7504         22.2504
                   1904656.770 5   1484147.447 5  23818461.906    23818465.277
         8.250           9.250
  22389600.7504    8467983.72946   6560786.82946                  22389604.0664
        17.0004         17.7504
  21675510.1564   -8708540.07447  -6724148.51447                  21675513.1094
        20.2504         29.5004
 95  4 19 16 48 45.0000000  0  7G 2G18G19G27G28G29G31
  23158236.9064   -7436673.39146  -5686012.32546                  23158241.6994
        14.2504         13.0004
  20720742.5554    1171378.97047    922050.69047                  20720745.2274
        24.2504         36.7504
  20733669.3284   -4354635.16047  -3374414.54547                  20733672.0594
        24.0004         37.2504
  22025903.1884  -11150717.30746  -8623792.27946                  22025906.2344
        18.7504         21.0004
                   1928183.620 5   1502480.040 5  23822938.859    23822942.328
         8.250           9.250
  22396927.0004    8506481.93546   6590785.41646                  22396930.2584
        17.2504         17.7504
  21673590.1254   -8718631.82647  -6732012.18146                  21673592.9384
        20.5004         24.2504
 95  4 19 16 49  0.0000000  0  7G 2G18G19G27G28G29G31
  23150571.3984   -7476956.88146  -5717402.04046                  23150576.3324
        14.2504         13.0004
  20724613.1334    1191718.35347    937899.55047                  20724615.8634
        24.2504         36.7504
  20731760.1564   -4364667.03547  -3382231.57447                  20731762.8404
        23.7504         37.2504
  22019229.9384  -11185783.85746  -8651116.85046                  22019232.9144
        18.7504         23.0004
                   1951820.305 5   1520898.220 5  23827436.953    23827440.211
         8.250           9.000
  22404265.9144    8545049.47546   6620838.02346                  22404269.2194
        17.0004         17.7504
  21671697.0084   -8728578.06847  -6739762.52547                  21671699.9144
        20.5004         27.5004
 95  4 19 16 49 15.0000000  0  7G 2G18G19G27G28G29G31
  23142913.2894   -7517200.21946  -5748760.45746                  23142917.9184
        14.2504         12.5004
  20728502.8914    1212160.22747    953828.27147                  20728505.5864
        24.0004         36.7504
  20729857.5784   -4374666.21547  -3390023.14347                  20729860.1684
        23.7504         38.0004
  22012559.1564  -11220840.27246  -8678433.52246                  22012562.0394
        18.7504         23.5004
                   1975557.023 5   1539394.352 5  23831953.984    23831957.117
         8.250           9.000
  22411616.0784    8583676.08146   6650936.65346                  22411619.3244
        17.0004         17.0004
  21669830.1484   -8738388.50347  -6747407.00747                  21669832.9144
        20.5004         27.5004
 95  4 19 16 49 30.0000000  0  7G 2G18G19G27G28G29G31
  23135263.1484   -7557400.79946  -5780085.57646                  23135268.2344
        14.2504         13.7504
  20732412.6484    1232705.47447    969837.54147                  20732415.3914
        24.2504         36.7504
  20727961.4224   -4384629.43047  -3397786.68647                  20727964.2114
        23.7504         37.2504
  22005890.1024  -11255885.39246  -8705741.39546                  22005893.3834
        19.0004         23.5004
                   1999394.708 5   1557969.153 5  23836490.000    23836493.188
         8.250           8.500
  22418978.8134    8622365.39246   6681084.15446                  22418982.0824
        17.2504         17.0004
  21667989.5944   -8748062.51547  -6754945.19247                  21667992.5124
        20.5004         26.2504
 95  4 19 16 49 45.0000000  0  7G 2G18G19G27G28G29G31
  23127621.8914   -7597556.25246  -5811375.51746                  23127626.6134
        14.2504         13.0004
  20736342.8444    1253358.25047    985930.60047                  20736345.5514
        24.2504         36.7504
  20726072.0784   -4394558.78047  -3405523.83847                  20726074.9144
        23.7504         38.0004
  21999223.7194  -11290918.57146  -8733039.96646                  21999226.7194
        19.0004         23.5004
                   2023332.582 5   1576622.032 5  23841045.313    23841048.688
         8.250           8.500
  22426352.8284    8661115.20346   6711278.79046                  22426355.8054
        17.2504         16.5004
  21666174.3284   -8757600.05647  -6762377.03547                  21666177.2934
        20.5004         27.5004
 95  4 19 16 50  0.0000000  0  7G 2G18G19G27G28G29G31
  23119990.2584   -7637659.38546  -5842624.68746                  23119994.9454
        14.2504         13.0004
  20740294.6024    1274125.45147   1002112.82247                  20740297.3914
        24.2504         36.0004
  20724189.5394   -4404451.06747  -3413232.11247                  20724192.3754
        23.7504         36.7504
  21992559.9844  -11325936.96246  -8760327.01146                  21992562.8444
        19.2504         23.0004
                   2047375.247 5   1595356.562 5  23845620.500    23845623.563
         8.250           8.500
  22433738.2194    8699926.46946   6741521.30846                  22433741.4414
        17.0004         17.0004
  21664386.3444   -8766997.31047  -6769699.56247                  21664389.4024
        20.5004         27.5004
 95  4 19 16 50 15.0000000  0  7G 2G18G19G27G28G29G31
  23112369.5944   -7677706.11746  -5873829.92346                  23112374.4924
        14.2504         13.7504
  20744268.8674    1295009.63147   1018386.19547                  20744271.5744
        24.0004         37.2504
  20722315.2194   -4414301.81847  -3420908.01647                  20722318.0904
        23.7504         38.0004
  21985899.3754  -11360937.93146  -8787600.48046                  21985902.2344
        19.0004         23.5004
                   2071526.219 5   1614175.482 5  23850216.148    23850219.699
         8.000           8.750
  22441135.6334    8738800.94446   6771813.08746                  22441138.8204
        17.2504         16.5004
  21662625.9774   -8776249.08847  -6776908.73347                  21662628.8954
        20.5004         26.7504
 95  4 19 16 50 30.0000000  0  7G 2G18G19G27G28G29G31
  23104758.0554   -7717703.69746  -5904996.84346                  23104762.8134
        14.2504         13.0004
  20748263.8364    1316003.98847   1034745.42147                  20748266.6484
        24.2504         37.2504
  20720447.4224   -4424117.07647  -3428556.26747                  20720450.2464
        24.2504         36.7504
  21979240.2734  -11395931.83546  -8814868.44946                  21979243.3674
        19.0004         23.5004
                   2095778.201 5   1633073.112 5  23854831.148    23854834.410
         8.250           8.750
  22448544.0164    8777730.95946   6802148.14646                  22448547.0274
        17.0004         16.5004
  21660891.4454   -8785362.18947  -6784009.84547                  21660894.3524
        20.5004         27.5004
 95  4 19 16 50 45.0000000  0  7G 2G18G19G27G28G29G31
  23097156.4454   -7757650.35246  -5936124.08946                  23097161.4144
        14.2504         12.5004
  20752280.7664    1337112.11747   1051193.30147                  20752283.6374
        24.2504         36.7504
  20718586.7974   -4433895.45347  -3436175.77647                  20718589.6564
        24.0004         39.2504
  21972582.7194  -11430917.79746  -8842130.22046                  21972585.9534
        19.5004         23.5004
                   2120132.312 5   1652050.329 5  23859465.633    23859468.871
         8.000           9.000
  22455963.0084    8816718.22546   6832527.81446                  22455966.3244
        17.0004         15.7504
  21659184.0164   -8794334.63647  -6791001.35447                  21659187.0274
        20.5004         27.5004
 95  4 19 16 51  0.0000000  0  7G 2G18G19G27G28G29G31
  23089563.8984   -7797549.53146  -5967214.34746                  23089568.8794
        14.5004         13.0004
  20756318.2664    1358329.45947   1067726.28147                  20756321.0434
        24.2504         36.7504
  20716732.2974   -4443639.36247  -3443768.43347                  20716735.2384
        23.7504         38.0004
  21965925.3524  -11465902.52646  -8869391.03646                  21965928.5044
        19.5004         24.2504
                   2144584.055 5   1671103.617 5  23864118.797    23864121.770
         8.250           9.000
  22463392.5784    8855761.55746   6862951.17646                  22463395.7424
        17.0004         16.5004
  21657502.6484   -8803171.82147  -6797887.46447                  21657505.5664
        20.7504         28.2504
 95  4 19 16 51 15.0000000  0  7G 2G18G19G27G28G29G31
  23081980.9534   -7837399.94146  -5998266.60045                  23081985.8754
        14.2504         11.7504
  20760376.3524    1379655.00947   1084343.57747                  20760379.1294
        24.2504         37.2504
  20714884.8284   -4453347.13947  -3451332.93047                  20714887.8634
        23.5004         38.0004
  21959267.5084  -11500888.95846  -8896653.18346                  21959270.4964
        19.5004         24.2504
                   2169133.668 5   1690233.170 5  23868790.250    23868793.746
         8.250           9.000
  22470833.5864    8894863.00646   6893419.81146                  22470836.7734
        16.7504         15.0004
  21655846.1804   -8811875.58047  -6804669.61047                  21655849.2624
        20.7504         27.5004
 95  4 19 16 51 30.0000000  0  7G 2G18G19G27G28G29G31
  23074407.1254   -7877199.90646  -6029279.53846                  23074411.8834
        14.2504         12.5004
  20764454.6644    1401087.44347   1101044.16647                  20764457.3014
        24.5004         38.7504
  20713044.7504   -4463018.32147  -3458868.91347                  20713047.6564
        23.7504         38.0004
  21952609.7894  -11535876.13046  -8923915.90146                  21952612.6844
        19.7504         25.0004
                   2193784.011 5   1709441.207 5  23873480.969    23873484.480
         8.250           9.250
  22478285.7114    8934026.17946   6923936.54546                  22478289.0984
        16.7504         15.7504
  21654215.8204   -8820444.14547  -6811346.40947                  21654218.9144
        20.5004         27.5004
 95  4 19 16 51 45.0000000  0  7G 2G18G19G27G28G29G31
  23066841.8444   -7916955.86146  -6060258.18945                  23066846.8594
        14.2504         11.7504
  20768551.6024    1422617.10447   1117820.51647                  20768554.4384
        24.2504         36.0004
  20711209.6174   -4472661.32347  -3466382.94147                  20711212.6054
        23.7504         38.0004
  21945950.6484  -11570869.81246  -8951183.69546                  21945953.5554
        19.5004         25.0004
                   2218528.850 5   1728722.883 5  23878190.117    23878193.164
         8.250           9.250
  22485749.1484    8973245.09946   6954496.72646                  22485752.4774
        16.5004         16.5004
  21652609.9384   -8828882.04347  -6817921.39447                  21652613.0314
        21.0004         27.5004
 95  4 19 16 52  0.0000000  0  7G 2G18G19G27G28G29G31
  23059286.0784   -7956663.09646  -6091198.87146                  23059291.2584
        14.2504         13.0004
  20772668.1484    1444248.65947   1134676.26047                  20772671.0554
        24.5004         37.2504
  20709380.5554   -4482272.72447  -3473872.34347                  20709383.5554
        23.5004         37.2504
  21939291.2664  -11605865.90646  -8978453.36246                  21939294.3014
        19.7504         24.2504
                   2243373.721 5   1748082.505 5  23882918.039    23882921.211
         8.500           9.500
  22493223.8834    9012524.87746   6985104.31746                  22493227.2344
        16.5004         15.7504
  21651030.4534   -8837183.53847  -6824390.08647                  21651033.3014
        20.7504         28.2504
 95  4 19 16 52 15.0000000  0  7G 2G18G19G27G28G29G31
  23051740.3364   -7996315.08746  -6122096.51246                  23051744.8244
        14.0004         13.0004
  20776804.9304    1465986.25147   1151614.63047                  20776807.7774
        24.5004         36.7504
  20707559.1884   -4491844.18447  -3481330.62347                  20707562.1524
        23.7504         38.0004
  21932632.9454  -11640855.96746  -9005718.33846                  21932635.8404
        19.5004         23.5004
                   2268326.806 5   1767526.440 5  23887666.555    23887669.586
         8.500           9.500
  22500712.0084    9051876.24246   7015767.69546                  22500715.4884
        16.2504         13.7504
  21649478.0164   -8845341.39847  -6830746.85747                  21649480.9574
        20.7504         27.5004
 95  4 19 16 52 30.0000000  0  7G 2G18G19G27G28G29G31
  23044203.4064   -8035919.76446  -6152957.28046                  23044208.5394
        14.0004         12.5004
  20780959.9924    1487823.01947   1168630.28447                  20780962.6644
        24.5004         36.0004
  20705743.2194   -4501387.05947  -3488766.62947                  20705745.9964
        23.5004         36.7504
  21925974.2344  -11675846.14946  -9032983.40446                  21925977.2934
        19.2504         25.0004
                   2293379.385 5   1787047.910 5  23892433.766    23892436.977
         8.250           9.500
  22508212.9694    9091293.58846   7046482.48746                  22508216.3794
        16.2504         15.0004
  21647951.2814   -8853364.19447  -6836998.38047                  21647954.1414
        21.0004         27.5004
 95  4 19 16 52 45.0000000  0  7G 2G18G19G27G28G29G31
  23036675.8834   -8075478.09046  -6183781.93345                  23036680.6414
        13.7504         11.7504
  20785134.3364    1509758.92847   1185723.19047                  20785137.0434
        24.2504         36.0004
  20703932.3364   -4510903.02247  -3496181.66147                  20703935.1954
        23.5004         38.0004
  21919316.1484  -11710834.68146  -9060247.18246                  21919319.0554
        19.2504         23.5004
                   2318530.466 5   1806646.134 5  23897219.727    23897222.918
         8.250           9.250
  22515726.4924    9130778.75346   7077250.13346                  22515730.2194
        15.7504         13.7504
  21646450.0944   -8861252.09347  -6843144.79047                  21646452.8954
        20.5004         28.7504
 95  4 19 16 53  0.0000000  0  7G 2G18G19G27G28G29G31
  23029157.3284   -8114988.71046  -6214569.40446                  23029162.4614
        14.0004         13.0004
  20789327.4224    1531794.06047   1202893.40947                  20789330.2814
        24.2504         36.0004
  20702127.3054   -4520389.78347  -3503573.94347                  20702130.2234
        23.7504         37.2504
  21912659.1484  -11745818.44846  -9087507.24346                  21912662.1954
        19.2504         23.5004
                   2343779.996 5   1826321.068 5  23902024.813    23902027.805
         8.250           9.500
  22523254.0004    9170333.05946   7108071.64246                  22523257.1764
        16.2504         15.0004
  21644974.5394   -8869006.10947  -6849186.87947                  21644977.4924
        20.7504         26.7504
 95  4 19 16 53 15.0000000  0  7G 2G18G19G27G28G29G31
  23021647.4454   -8154454.23946  -6245321.75146                  23021652.2624
        14.2504         13.0004
  20793538.5164    1553922.95247   1220136.68847                  20793541.2234
        24.2504         36.0004
  20700326.5864   -4529851.26147  -3510946.52247                  20700329.4574
        23.7504         36.7504
  21906002.1484  -11780800.91046  -9114766.29046                  21906005.0664
        19.2504         25.0004
                   2369123.564 5   1846069.276 5  23906847.156    23906850.582
         8.250           9.500
  22530793.2734    9209953.07646   7138944.36246                  22530796.3674
        16.2504         13.7504
  21643523.5004   -8876631.60247  -6855128.82147                  21643526.5234
        20.5004         26.7504
 95  4 19 16 53 30.0000000  0  7G 2G18G19G27G28G29G31
  23014147.5944   -8193864.66546  -6276031.16146                  23014152.4454
        14.2504         12.5004
  20797769.4774    1576156.77547   1237461.73947                  20797772.0784
        24.5004         36.7504
  20698532.5314   -4539279.14747  -3518292.92447                  20698535.4494
        23.5004         37.2504
  21899348.4924  -11815766.17646  -9142011.94246                  21899351.5044
        19.5004         23.5004
                   2394572.424 5   1865899.539 5  23911690.219    23911693.289
         8.250           9.250
  22538347.0084    9249648.85846   7169876.11846                  22538350.3364
        16.0004         15.0004
  21642099.6954   -8884115.21647  -6860960.20647                  21642102.6484
        21.0004         28.7504
 95  4 19 16 53 45.0000000  0  7G 2G18G19G27G28G29G31
  23006659.2734   -8233218.37946  -6306696.37046                  23006664.1254
        14.5004         13.0004
  20802021.1414    1598498.63047   1254870.96547                  20802023.9184
        24.5004         36.7504
  20696744.7504   -4548674.04047  -3525613.61647                  20696747.7734
        23.7504         37.2504
  21892699.1334  -11850708.52846  -9169239.73746                  21892702.0044
        19.2504         23.5004
                   2420127.611 5   1885812.646 5  23916553.070    23916556.273
         8.250           9.500
  22545915.5004    9289421.56646   7200867.81746                  22545918.7114
        15.7504         15.0004
  21640703.0704   -8891452.96047  -6866677.93147                  21640706.0124
        20.7504         28.2504
 95  4 19 16 54  0.0000000  0  7G 2G18G19G27G28G29G31
  22999179.5864   -8272523.27646  -6337323.55346                  22999184.7194
        14.7504         13.7504
  20806292.3444    1620946.35047   1272362.68347                  20806295.0044
        24.2504         36.0004
  20694962.3674   -4558040.63547  -3532912.25947                  20694965.2504
        23.7504         36.7504
  21886053.0944  -11885632.75946  -9196453.41046                  21886056.0124
        19.2504         23.5004
                   2445782.050 5   1905803.099 5  23921435.164    23921438.434
         8.250           9.500
  22553496.2894    9329259.64346   7231910.45946                  22553499.7704
        15.2504         13.7504
  21639333.2424   -8898652.60947  -6872288.04147                  21639336.3594
        21.0004         27.5004
 95  4 19 16 54 15.0000000  0  7G 2G18G19G27G28G29G31
  22991709.5314   -8311778.77346  -6367912.22846                  22991714.3364
        15.0004         13.7504
  20810585.4614    1643505.21347   1289941.01047                  20810588.2624
        24.2504         36.7504
  20693186.0634   -4567375.90647  -3540186.49447                  20693188.9224
        23.5004         36.0004
  21879411.3754  -11920535.98246  -9223650.71646                  21879414.2704
        19.5004         24.2504
                   2471536.757 5   1925871.682 5  23926335.867    23926339.051
         8.250           9.250
  22561089.8834    9369162.82146   7263003.81346                  22561093.2464
        15.5004         14.5004
  21637989.3204   -8905714.52347  -6877790.83047                  21637992.2154
        21.0004         28.2504
 95  4 19 16 54 30.0000000  0  7G 2G18G19G27G28G29G31
  22984247.9614   -8350988.91946  -6398465.57846                  22984252.4964
        15.0004         13.7504
  20814899.2194    1666174.74247   1307605.56647                  20814901.8094
        24.2504         37.2504
  20691415.2664   -4576680.46047  -3547436.79647                  20691418.1024
        23.5004         38.0004
  21872773.3524  -11955418.81546  -9250832.13346                  21872776.1174
        19.2504         23.5004
                   2497388.660 5   1946015.999 5  23931255.578    23931258.586
         8.250           9.250
  22568695.1174    9409129.37346   7294146.55946                  22568698.5634
        15.5004         14.5004
  21636671.2034   -8912640.75947  -6883187.89747                  21636674.0864
        21.0004         28.7504
 95  4 19 16 54 45.0000000  0  7G 2G18G19G27G28G29G31
  22976795.6724   -8390151.34246  -6428981.74246                  22976800.5124
        15.0004         12.5004
  20819235.1724    1688959.85847   1325360.19347                  20819237.8324
        24.2504         36.0004
  20689652.0634   -4585946.53947  -3554657.11247                  20689655.0394
        23.5004         36.0004
  21866139.3134  -11990279.90146  -9277996.61146                  21866142.1254
        19.0004         24.2504
                   2523340.932 5   1966238.526 5  23936194.039    23936197.211
         8.250           9.250
  22576312.5004    9449159.35646   7325338.73346                  22576315.1724
        16.0004         14.5004
  21635380.3524   -8919425.62247  -6888474.80147                  21635383.1884
        21.2504         27.5004
 95  4 19 16 55  0.0000000  0  7G 2G18G19G27G28G29G31
  22969352.4534   -8429263.91546  -6459459.05646                  22969357.3874
        14.7504         13.7504
  20823592.7894    1711859.09947   1343203.74847                  20823595.4734
        24.2504         36.7504
  20687897.3914   -4595167.30347  -3561842.12147                  20687900.4264
        23.5004         36.7504
  21859510.1564  -12025117.26546  -9305142.59446                  21859513.1214
        19.0004         23.5004
                   2549396.155 5   1986541.274 5  23941152.156    23941155.367
         8.250           9.250
  22583942.3984    9489254.20046   7356581.44446                  22583945.5744
        16.0004         14.5004
  21634116.3834   -8926067.98547  -6893650.67047                  21634119.3484
        21.2504         29.5004
 95  4 19 16 55 15.0000000  0  7G 2G18G19G27G28G29G31
  22961918.8444   -8468327.76746  -6489898.40946                  22961923.7664
        15.0004         13.7504
  20827972.0234    1734871.97447   1361135.84947                  20827974.8364
        24.0004         36.7504
  20686150.9304   -4604343.90447  -3568992.71747                  20686153.8954
        23.5004         37.2504
  21852884.7584  -12059934.46746  -9332272.87146                  21852887.5594
        19.5004         23.5004
                   2575553.786 5   2006923.825 5  23946130.016    23946133.113
         8.500           9.500
  22591584.1564    9529411.85946   7387873.10546                  22591587.1804
        15.7504         14.5004
  21632879.2114   -8932569.18147  -6898716.53947                  21632882.2934
        21.2504         30.2504
 95  4 19 16 55 30.0000000  0  7G 2G18G19G27G28G29G31
  22954494.1884   -8507346.36046  -6520302.49146                  22954498.7934
        15.0004         15.0004
  20832372.0314    1757994.61747   1379153.48347                  20832374.8094
        23.7504         35.2504
  20684412.3834   -4613480.96247  -3576112.50247                  20684415.3714
        23.5004         36.7504
  21846262.4304  -12094734.08046  -9359389.44046                  21846265.3714
        19.2504         23.5004
                   2601811.281 5   2027384.189 5  23951126.703    23951129.852
         8.500           9.500
  22599237.0164    9569626.86446   7419209.45046                  22599240.8484
        15.5004         13.0004
  21631668.2194   -8938931.46747  -6903674.16447                  21631671.3364
        21.0004         28.7504
 95  4 19 16 55 45.0000000  0  7G 2G18G19G27G28G29G31
  22947077.6644   -8546319.72546  -6550671.33746                  22947082.0234
        15.0004         15.7504
  20836793.4924    1781229.58347   1397258.63947                  20836796.3284
        23.7504         34.7504
  20682681.3674   -4622578.43947  -3583201.44647                  20682684.2734
        23.7504         37.2504
  21839643.8754  -12129515.01746  -9386491.45646                  21839646.7344
        19.5004         24.2504
                   2628170.205 5   2047923.586 5  23956142.320    23956145.766
         8.250           9.750
  22606900.5234    9609899.21546   7450590.47146                  22606903.8164
        15.5004         13.7504
  21630484.3284   -8945153.23547  -6908522.29447                  21630487.4694
        21.2504         29.5004
 95  4 19 16 56  0.0000000  0  7G 2G18G19G27G28G29G31
  22939670.2974   -8585246.02746  -6581003.51046                  22939674.8204
        15.0004         14.5004
  20841236.3054    1804576.15747   1415450.76347                  20841239.1764
        23.5004         34.7504
  20680957.8754   -4631634.62347  -3590258.21247                  20680960.7584
        23.5004         37.2504
  21833027.6334  -12164283.66446  -9413583.90246                  21833030.5274
        19.2504         23.0004
                   2654629.090 5   2068540.870 5  23961177.766    23961180.801
         8.250           9.500
  22614574.6484    9650226.30646   7482014.15846                  22614578.2114
        15.7504         13.7504
  21629326.7194   -8951237.49047  -6913263.27547                  21629329.6374
        21.2504         28.2504
 95  4 19 16 56 15.0000000  0  7G 2G18G19G27G28G29G31
  22932272.9614   -8624120.35046  -6611295.17846                  22932278.1294
        15.0004         15.0004
  20845699.9844    1828034.03047   1433729.61447                  20845702.8674
        23.5004         35.2504
  20679242.7274   -4640647.22847  -3597281.01947                  20679245.6914
        23.5004         37.2504
  21826413.8284  -12199039.86346  -9440666.64246                  21826416.6054
        19.7504         24.2504
                   2681190.040 5   2089237.695 5  23966231.875    23966235.352
         8.250           9.750
  22622259.8054    9690612.26146   7513483.70846                  22622263.6844
        15.2504         13.7504
  21628195.3444   -8957182.70447  -6917895.91347                  21628198.3444
        21.2504         28.2504
 95  4 19 16 56 30.0000000  0  7G 2G18G19G27G28G29G31
  22924885.2664   -8662941.47746  -6641545.39246                  22924890.4694
        15.2504         15.7504
  20850184.2034    1851598.72547   1452091.70247                  20850187.1334
        23.2504         34.7504
  20677535.8524   -4649617.69547  -3604270.99347                  20677538.6884
        23.5004         36.7504
  21819801.7664  -12233786.82046  -9467742.18346                  21819804.6604
        19.5004         24.2504
                   2707852.020 5   2110013.242 5  23971305.711    23971308.777
         8.000           9.500
  22629956.7584    9731058.77546   7545000.44446                  22629960.3094
        15.7504         13.7504
  21627090.7814   -8962987.73247  -6922419.31147                  21627093.7344
        21.2504         28.7504
 95  4 19 16 56 45.0000000  0  7G 2G18G19G27G28G29G31
  22917509.0474   -8701706.39246  -6671751.80746                  22917514.0634
        15.7504         14.5004
  20854688.3984    1875269.02647   1470536.07847                  20854691.2814
        23.0004         35.2504
  20675836.7974   -4658546.45747  -3611228.46947                  20675839.7274
        23.7504         36.7504
  21813190.8594  -12268525.76946  -9494811.48846                  21813193.8014
        19.0004         25.0004
                   2734615.003 5   2130867.488 5  23976398.383    23976401.613
         7.750           9.250
  22637664.2424    9771563.07546   7576562.20746                  22637667.4534
        15.0004         13.0004
  21626012.4924   -8968652.78147  -6926833.63447                  21626015.2704
        21.2504         29.5004
 95  4 19 16 57  0.0000000  0  7G 2G18G19G27G28G29G31
  22910143.9224   -8740408.86746  -6701909.56546                  22910148.8914
        15.5004         15.7504
  20859212.5394    1899042.31247   1489060.70447                  20859215.4344
        23.2504         35.2504
  20674145.6804   -4667433.76747  -3618153.64247                  20674148.7504
        23.5004         37.2504
  21806582.2814  -12303254.90346  -9521873.13746                  21806585.2234
        19.2504         24.2504
                   2761481.190 5   2151802.145 5  23981510.820    23981514.184
         7.750           9.250
  22645383.7894    9812128.38246   7608171.51346                  22645387.1414
        15.0004         13.7504
  21624961.5784   -8974175.53047  -6931137.07947                  21624964.3674
        21.2504         29.5004
 95  4 19 16 57 15.0000000  0  7G 2G18G19G27G28G29G31
  22902790.7194   -8779048.73546  -6732018.54346                  22902795.5944
        15.5004         15.0004
  20863755.7734    1922917.69547   1507664.88347                  20863758.6564
        23.0004         34.7504
  20672460.9774   -4676285.37347  -3625050.99847                  20672464.0824
        23.5004         37.2504
  21799975.5004  -12337973.87446  -9548926.86946                  21799978.4654
        19.5004         23.5004
                   2788449.121 5   2172816.092 5  23986642.383    23986645.668
         7.500           9.000
  22653114.7974    9852754.93146   7639828.53646                  22653118.3014
        15.5004         13.0004
  21623937.6094   -8979557.19247  -6935330.57947                  21623940.4574
        21.0004         27.5004
 95  4 19 16 57 30.0000000  0  7G 2G18G19G27G28G29G31
  22895449.7734   -8817626.24646  -6762078.92746                  22895454.5664
        15.2504         14.5004
  20868318.7034    1946895.58847   1526348.94347                  20868321.7384
        23.0004         35.2504
  20670783.2504   -4685102.48747  -3631921.47747                  20670786.2854
        23.5004         38.0004
  21793370.4064  -12372684.15646  -9575973.83246                  21793373.5004
        19.5004         25.0004
                   2815517.526 5   2193908.326 5  23991793.383    23991796.754
         7.500           9.000
  22660856.9064    9893440.24446   7671531.34946                  22660860.5864
        15.0004         14.5004
  21622940.6024   -8984794.78047  -6939411.82447                  21622943.4494
        21.0004         28.7504
 95  4 19 16 57 45.0000000  0  7G 2G18G19G27G28G29G31
  22888120.5234   -8856141.15746  -6792090.53946                  22888125.3984
        15.5004         15.7504
  20872901.2734    1970977.62147   1545114.14847                  20872904.3204
        23.0004         34.7504
  20669112.1724   -4693884.25347  -3638764.40947                  20669115.1604
        23.5004         36.7504
  21786767.1804  -12407383.86146  -9603012.55146                  21786770.1564
        19.5004         23.0004
                   2842686.252 4   2215078.736 5  23996963.563    23996967.027
         7.250           9.000
  22668610.3594    9934185.14446   7703280.59846                  22668613.8874
        14.7504         13.0004
  21621971.8364   -8989887.37147  -6943380.07947                  21621974.7194
        21.0004         29.5004
 95  4 19 16 58  0.0000000  0  7G 2G18G19G27G28G29G31
  22880803.6884   -8894591.32646  -6822051.69446                  22880808.3634
        15.5004         15.7504
  20877504.0314    1995163.96247   1563960.63547                  20877507.1024
        23.0004         35.2504
  20667448.6094   -4702626.20447  -3645576.31947                  20667451.4224
        23.5004         37.2504
  21780165.6334  -12442074.15646  -9630043.94146                  21780168.5164
        19.5004         25.0004
                   2869955.773 4   2236327.686 5  24002152.633    24002156.020
         7.250           8.750
  22676375.7734    9974992.90546   7735078.81546                  22676379.5124
        14.7504         13.0004
  21621030.7664   -8994831.15147  -6947232.37547                  21621033.5314
        21.0004         27.5004
 95  4 19 16 58 15.0000000  0  7G 2G18G19G27G28G29G31
  22873498.7814   -8932979.06846  -6851964.21046                  22873503.6214
        15.5004         15.7504
  20882125.9534    2019454.34747   1582888.19747                  20882129.0704
        22.7504         35.2504
  20665792.8834   -4711328.08047  -3652357.00147                  20665795.7664
        23.7504         37.2504
  21773566.3914  -12476753.40946  -9657066.72546                  21773569.3794
        19.2504         25.0004
                   2897324.788 5   2257654.169 5  24007361.172    24007364.359
         7.500           8.750
  22684153.6804   10015865.84346   7766927.83446                  22684157.6644
        14.7504         12.5004
  21620118.4224   -8999626.49547  -6950969.01147                  21620121.2704
        21.0004         28.7504
 95  4 19 16 58 30.0000000  0  7G 2G18G19G27G28G29G31
  22866205.0944   -8971308.92446  -6881831.61746                  22866209.9344
        15.7504         15.7504
  20886768.5554    2043849.36347   1601897.28547                  20886771.7544
        23.0004         34.0004
  20664144.3834   -4719992.12647  -3659108.20547                  20664147.2664
        23.7504         36.0004
  21766970.0164  -12511418.34946  -9684078.35846                  21766972.9454
        19.5004         25.0004
                   2924792.747 5   2279057.744 5  24012588.070    24012591.246
         7.500           8.500
  22691943.8834   10056802.87746   7798826.78945                  22691947.3634
        15.0004         11.7504
  21619234.4144   -9004271.63947  -6954588.60747                  21619237.2734
        21.0004         28.7504
 95  4 19 16 58 45.0000000  0  7G 2G18G19G27G28G29G31
  22858922.3444   -9009578.89346  -6911652.35546                  22858927.2664
        15.7504         14.5004
  20891431.9304    2068354.14947   1620991.91047                  20891434.8364
        23.2504         36.7504
  20662503.5944   -4728613.57647  -3665826.21747                  20662506.4534
        23.7504         37.2504
  21760376.8444  -12546065.38146  -9711076.03546                  21760379.8204
        19.7504         25.5004
                   2952362.373 5   2300540.539 5  24017834.234    24017838.012
         7.500           8.500
  22699746.7504   10097806.61746   7830777.72845                  22699750.3364
        15.0004         11.7504
  21618379.5784   -9008763.94847  -6958089.11147                  21618382.5084
        21.0004         28.7504
 95  4 19 16 59  0.0000000  0  7G 2G18G19G27G28G29G31
  22851650.5394   -9047792.45746  -6941429.15346                  22851655.4734
        15.5004         15.0004
  20896114.7584    2092964.65647   1640168.91647                  20896117.6644
        23.0004         34.7504
  20660870.3284   -4737196.70347  -3672514.36747                  20660873.1644
        23.7504         37.2504
  21753787.5704  -12580694.51847  -9738059.76546                  21753790.4304
        20.2504         25.5004
                   2980031.362 5   2322100.765 5  24023099.766    24023102.707
         7.500           8.250
  22707562.3444   10138879.21546   7862782.32745                  22707565.6254
        14.7504         11.7504
  21617553.6724   -9013105.40147  -6961472.05947                  21617556.3914
        21.0004         28.7504
